GFSGBSN_sfc_thetae_000.txt.gz
Theta_e
317 317 318 318 317 315 314 314 314 313 313 313 313 313 313 313 313 313 313 314 314 314 314 314 316 318 316 308 305 319 342 340 331 321 316 316 315 314 310 313 314 311 312 314 316 315 313
315 314 315 315 316 317 316 315 314 314 314 313 313 313 313 313 313 313 314 314 314 314 313 314 316 317 312 301 314 315 317 317 317 321 317 317 317 318 314 314 312 313 313 313 314 313 311
313 313 313 314 314 315 316 316 316 314 314 314 313 313 313 312 313 313 313 313 312 313 313 315 317 317 308 305 314 319 323 323 320 319 316 317 320 316 316 312 316 314 309 312 311 311 310
312 312 311 311 313 313 312 313 315 316 315 314 313 313 313 312 312 312 313 313 313 312 313 316 319 317 304 313 317 314 315 316 322 323 320 321 320 317 315 317 313 309 310 305 311 310 309
309 309 310 311 312 311 311 312 312 313 315 315 314 313 313 313 313 312 313 312 312 312 314 319 317 314 304 315 310 314 315 310 312 316 317 320 319 315 314 310 307 308 302 305 307 312 309
307 306 307 307 308 310 311 311 311 312 311 313 314 313 312 313 312 312 312 312 312 314 319 320 318 308 309 306 311 313 316 312 312 311 315 315 314 310 310 308 300 303 303 305 305 309 309
307 307 307 307 306 307 308 308 310 310 311 311 312 314 313 313 313 312 309 308 308 311 313 305 306 304 306 310 313 311 315 310 311 314 308 312 307 304 308 310 309 307 305 304 308 310 307
308 308 308 308 308 307 306 306 307 310 310 310 310 312 313 313 313 312 308 302 304 303 299 308 309 309 310 311 306 309 317 307 307 305 310 308 304 310 311 311 308 307 305 305 308 309 307
310 310 310 309 309 308 307 307 306 307 309 310 310 311 312 313 312 309 306 304 309 308 300 302 306 306 308 310 305 308 313 309 306 305 307 305 307 311 310 308 306 306 305 305 304 308 308
310 310 310 311 310 310 309 308 307 306 306 309 310 310 311 312 306 309 303 307 309 308 296 299 301 304 307 308 303 311 314 310 308 304 307 307 311 309 308 306 307 303 308 306 305 303 298
310 310 311 310 310 310 310 310 309 307 306 308 309 309 310 310 307 304 305 310 308 308 287 303 304 313 308 304 305 305 313 311 305 305 308 306 308 307 305 306 308 304 308 307 306 303 302
309 310 311 310 311 311 310 310 310 308 308 307 308 309 309 307 308 309 310 309 307 295 287 298 304 302 303 304 304 307 307 312 311 307 309 308 312 310 308 308 308 309 306 306 305 303 296
308 309 310 310 310 310 310 310 310 310 309 307 306 308 308 308 300 310 310 303 293 289 301 297 299 302 302 300 302 304 302 301 301 299 301 305 306 310 311 306 308 307 304 296 295 295 294
308 309 309 309 309 309 309 310 309 310 309 307 307 308 307 306 306 309 305 294 287 294 297 302 301 302 299 302 301 302 301 299 304 304 302 299 297 306 309 306 304 304 304 297 290 292 295
307 308 309 309 309 308 309 309 309 308 308 307 306 305 305 308 307 305 297 286 289 295 300 299 299 298 299 301 302 301 301 300 302 306 301 300 300 308 309 309 308 304 301 307 300 301 296
307 308 308 309 308 309 309 309 309 308 308 307 302 300 301 309 310 300 290 288 292 299 300 301 296 300 297 299 299 300 300 303 302 306 309 305 299 305 307 309 309 307 308 299 300 292 291
307 307 308 308 308 308 309 308 308 308 307 306 299 294 303 309 307 293 285 288 293 299 300 298 298 298 300 300 300 300 301 303 305 304 308 307 304 303 306 304 303 303 302 303 304 301 294
306 306 307 308 308 308 308 308 308 308 306 303 297 288 305 308 289 288 286 292 294 295 298 297 300 300 300 301 300 301 300 303 306 306 302 308 304 300 301 307 309 307 304 305 298 297 300
306 306 307 307 308 308 308 308 308 307 304 298 293 293 306 302 284 285 292 292 295 293 293 295 296 301 303 301 299 302 303 306 306 305 304 307 302 296 298 304 307 303 305 306 306 305 299
305 306 307 307 308 308 307 307 307 306 304 302 296 285 293 292 294 291 289 288 288 295 293 294 294 297 299 300 303 301 302 305 306 306 311 309 305 300 296 300 303 301 302 305 305 300 300
305 306 306 307 308 308 308 307 306 305 304 302 296 289 292 286 286 291 290 290 288 288 294 295 294 296 299 297 299 299 303 304 305 308 309 310 301 303 303 303 304 303 302 303 302 304 300
304 305 306 307 308 308 307 307 306 305 304 299 289 289 290 291 291 289 289 288 288 289 291 291 292 294 298 297 300 298 302 303 302 307 306 311 301 303 301 303 303 301 303 304 304 304 304
304 305 306 307 307 307 307 306 306 305 304 298 294 295 290 289 288 286 286 289 289 292 293 295 294 294 294 298 301 304 306 305 306 306 306 306 303 301 296 301 300 297 302 304 305 306 306
304 305 306 306 307 307 307 306 306 306 305 303 298 295 291 287 290 288 289 290 289 291 291 294 296 293 297 304 305 304 304 303 303 304 310 306 304 303 298 300 291 302 308 307 305 306 308
304 305 306 306 307 308 307 306 305 304 304 304 304 299 294 287 289 289 290 290 292 293 290 294 296 299 301 300 297 296 297 299 300 303 303 310 307 300 298 298 299 303 306 305 303 303 309
303 304 306 306 307 308 307 306 306 305 305 305 304 303 298 289 291 291 288 292 290 291 291 294 299 305 302 295 292 290 290 294 295 297 303 304 310 302 300 296 292 303 308 312 311 300 311
304 304 305 306 307 307 307 306 305 304 305 304 302 306 298 290 295 293 288 288 295 295 293 295 297 297 301 292 287 289 292 298 293 295 296 298 301 299 299 299 301 309 311 314 301 303 314
304 304 305 305 306 306 307 307 306 304 305 305 305 307 298 292 295 296 294 288 292 296 292 296 295 296 295 290 289 288 291 295 296 299 298 297 297 297 301 298 295 313 312 305 312 322 318
304 304 305 305 305 306 307 307 306 305 305 305 299 305 306 296 296 301 301 301 300 300 298 299 297 296 296 292 292 292 289 294 295 292 301 296 301 300 301 301 315 317 315 319 319 317 318

GFSGBSN_sfc_thetae_003.txt.gz
Theta_e
314 314 314 315 315 316 317 316 316 315 315 314 314 314 314 314 314 314 314 314 314 314 314 314 316 317 318 311 308 320 343 336 323 318 317 316 316 317 314 316 317 314 314 314 315 315 317
313 313 313 313 313 314 315 316 316 316 315 315 314 314 313 313 314 314 314 314 314 314 313 314 316 318 314 302 315 318 323 326 326 320 317 318 318 320 316 315 314 316 316 314 315 315 317
310 311 312 312 312 312 312 312 313 315 316 316 315 315 314 313 314 314 314 314 314 314 313 314 316 317 310 306 317 318 316 315 317 317 317 318 319 317 317 313 317 316 311 313 314 314 314
307 308 308 309 309 311 311 311 311 311 313 315 315 314 314 314 314 314 314 314 314 313 314 315 316 317 307 315 318 315 318 320 322 322 317 321 319 316 317 318 314 311 312 307 313 314 314
308 308 308 307 307 308 308 309 311 311 311 312 314 314 315 314 314 314 314 313 313 313 314 316 318 315 305 318 312 315 316 312 314 318 320 320 319 313 314 310 307 310 304 306 308 315 313
309 309 309 309 309 309 307 307 308 309 311 310 312 312 314 314 314 314 313 312 314 312 318 320 316 310 312 307 312 315 317 314 311 312 314 313 313 309 310 308 300 304 306 307 306 312 313
311 311 311 311 311 311 309 308 308 307 308 310 310 311 312 313 314 313 311 312 309 309 313 306 307 306 308 312 313 312 315 313 312 309 304 310 307 303 307 310 310 309 308 306 310 313 311
310 311 311 311 311 311 311 310 309 309 307 308 310 310 311 312 313 313 312 306 308 308 304 314 312 310 312 312 307 309 317 308 306 303 306 309 304 309 311 310 309 309 307 306 309 312 311
310 310 311 311 311 311 311 311 311 310 309 308 308 309 310 311 312 311 309 309 313 312 302 304 308 309 309 311 307 308 312 310 305 303 305 305 308 311 310 309 308 308 306 306 306 310 312
309 309 310 311 311 311 311 312 312 311 310 309 308 309 310 310 306 310 308 313 312 312 296 300 304 307 310 310 305 312 314 311 307 302 306 307 312 309 308 307 309 305 310 308 307 306 301
308 308 310 310 310 310 311 311 312 312 311 310 309 307 309 309 305 308 309 313 311 309 288 305 307 314 311 306 307 307 314 311 305 304 306 304 307 307 306 308 311 307 311 308 308 305 304
307 308 309 309 310 310 310 310 310 311 311 311 309 307 308 307 308 310 313 311 308 295 287 301 307 305 304 305 306 310 307 312 312 306 308 307 312 311 310 311 311 312 308 308 307 305 297
307 307 308 309 309 310 309 309 310 310 311 311 310 308 307 308 305 311 312 306 292 289 302 300 302 305 304 302 303 305 303 303 302 299 301 305 307 311 313 309 311 308 305 297 296 297 296
306 307 308 308 309 309 309 309 309 310 310 310 310 308 306 307 311 309 307 296 286 294 298 305 304 304 301 304 303 304 302 301 306 305 303 300 298 308 312 310 306 306 305 298 292 294 298
305 307 307 308 309 309 309 309 309 309 309 309 308 306 304 306 309 306 298 288 289 296 301 301 303 301 301 304 303 303 302 301 305 307 302 301 302 310 311 312 310 305 302 308 301 302 298
305 306 307 307 308 309 309 309 309 309 308 308 304 300 299 306 310 304 290 287 292 298 300 302 298 302 299 301 301 302 302 305 304 307 310 308 301 308 309 311 311 308 310 301 302 293 292
305 305 307 307 308 308 309 309 309 309 308 307 301 294 303 306 309 295 284 289 293 299 300 297 298 299 302 302 303 302 302 306 307 306 309 308 307 305 309 306 304 304 303 305 305 302 295
305 306 306 307 308 308 308 309 309 309 306 303 297 291 306 308 291 290 286 292 295 295 299 298 298 298 299 303 303 302 302 305 309 309 304 309 308 302 304 310 311 309 305 306 300 298 302
305 305 306 307 307 308 308 308 308 306 304 302 295 297 308 306 287 289 293 292 294 295 295 295 296 298 301 300 299 304 305 309 309 308 307 310 305 300 302 306 309 305 306 307 307 307 301
305 305 306 307 308 308 308 308 307 306 304 303 294 290 296 298 293 290 291 291 290 297 295 296 296 298 297 297 303 302 304 308 310 309 312 313 308 303 299 302 305 302 304 306 306 301 301
304 305 306 306 307 308 308 308 306 306 305 302 297 292 295 287 290 291 290 291 290 289 295 297 295 295 296 296 300 301 305 307 308 309 311 313 304 305 306 306 306 305 304 304 303 304 301
304 304 306 306 307 308 308 307 307 306 305 300 291 293 296 293 292 290 291 289 289 290 292 292 292 295 297 296 300 299 303 305 305 307 308 313 305 306 302 305 305 303 305 305 305 305 305
304 305 305 306 307 308 308 308 307 306 304 298 300 299 294 288 292 289 288 290 290 292 293 295 295 294 294 297 299 303 305 307 309 306 308 308 305 304 298 303 303 300 304 305 305 306 307
304 305 306 306 307 308 308 307 307 306 304 304 301 301 291 288 289 290 291 291 291 292 292 294 297 294 298 303 304 305 305 306 309 309 313 309 307 304 299 302 293 303 310 309 307 308 309
304 305 305 306 307 308 308 307 306 305 305 303 305 299 295 290 291 291 291 291 293 293 293 295 298 301 302 300 295 296 298 301 304 307 308 312 310 301 299 299 301 303 306 306 305 305 311
304 305 306 306 306 307 308 307 307 306 306 306 306 304 298 291 292 294 292 293 289 291 294 296 301 305 302 295 293 288 290 295 297 300 309 309 312 304 301 296 293 303 309 312 311 301 312
304 305 305 306 306 306 308 307 307 306 306 306 306 306 300 292 297 297 292 289 294 296 294 297 298 298 303 293 288 290 292 299 293 295 298 301 304 300 298 299 301 309 311 313 300 304 314
304 305 305 306 306 307 307 308 307 306 305 306 304 309 301 295 296 297 297 292 295 294 292 298 296 297 297 292 289 289 292 297 296 299 299 298 299 299 300 297 295 312 311 305 313 316 317
304 305 305 305 306 306 307 307 307 306 305 306 302 310 309 297 296 303 303 302 300 297 294 298 297 295 296 294 295 294 290 293 294 291 304 298 303 301 303 303 314 314 314 319 319 318 318

GFSGBSN_sfc_thetae_006.txt.gz
Theta_e
313 314 314 314 314 313 314 315 316 316 316 316 315 315 315 315 314 315 315 315 314 315 314 314 314 316 315 306 306 318 339 337 326 317 314 313 313 317 313 315 316 314 315 316 317 316 315
310 310 311 311 311 312 313 312 313 314 314 315 316 316 316 315 315 315 315 314 315 315 314 314 315 316 311 300 313 316 318 324 319 315 313 314 313 316 313 313 313 316 316 315 316 315 315
309 309 309 309 309 309 310 311 312 312 313 313 314 315 316 315 315 315 315 314 314 314 314 314 315 314 307 304 315 317 317 316 322 319 313 315 316 314 315 312 317 315 311 312 313 314 312
310 310 310 310 309 309 309 309 309 310 311 312 313 313 314 315 316 315 315 314 314 314 314 315 315 311 302 313 316 313 314 314 315 317 318 320 319 314 312 315 313 309 310 304 311 313 314
312 312 312 311 311 310 310 310 309 308 309 310 312 312 313 312 313 315 314 314 314 314 315 315 310 306 300 316 310 314 316 311 316 318 319 318 315 312 310 306 305 307 302 304 307 313 312
311 311 312 312 312 312 312 311 311 310 309 308 309 312 312 312 312 313 313 314 314 315 314 315 310 304 310 308 311 314 315 314 310 312 310 311 310 307 307 304 297 301 302 304 305 310 312
311 311 311 312 312 312 312 312 312 311 311 310 308 310 312 312 312 312 310 310 307 308 307 306 306 303 308 315 317 311 315 311 310 308 302 307 304 301 304 307 306 306 305 304 309 312 310
309 310 310 310 310 311 312 312 312 312 312 311 310 308 309 311 311 312 309 304 307 309 301 309 310 308 310 312 306 309 314 307 305 300 304 302 302 306 308 308 305 305 304 304 308 311 310
308 309 309 309 310 310 311 311 312 312 312 312 311 309 308 309 311 308 305 305 313 313 300 303 308 310 310 311 306 307 309 308 304 300 301 299 302 308 307 306 304 305 304 305 305 309 310
307 308 308 309 309 310 310 311 311 311 312 312 312 310 308 309 305 309 308 312 315 312 293 296 301 305 309 312 305 312 313 308 305 300 301 301 305 306 305 304 306 302 308 308 307 304 299
306 307 308 308 309 309 310 310 310 310 311 311 311 311 309 307 305 303 309 313 312 308 284 303 303 313 309 306 307 307 313 309 303 302 302 300 303 303 305 305 308 305 310 308 307 305 303
307 307 307 308 309 309 309 309 310 310 310 310 311 311 310 305 305 306 309 313 308 291 283 299 307 304 303 305 306 309 308 310 309 304 305 302 308 307 307 310 310 310 308 308 307 304 297
306 306 307 308 308 308 309 309 309 310 310 310 310 310 309 308 300 309 310 305 290 284 298 298 302 304 302 301 302 304 303 301 300 297 298 302 302 307 310 306 310 308 306 297 295 294 294
307 307 307 308 308 308 308 309 309 309 309 310 310 309 309 309 307 307 304 295 283 290 292 304 304 304 300 303 302 302 301 299 304 302 299 297 295 303 308 307 305 306 306 298 290 292 295
305 306 306 307 307 308 308 308 308 308 309 309 307 307 306 309 308 305 296 283 286 291 297 296 299 297 300 303 303 302 302 301 303 305 299 298 298 307 308 310 309 306 302 307 300 301 296
305 305 305 307 307 308 308 309 309 309 309 308 306 303 302 309 308 302 290 285 290 295 296 296 291 297 294 300 300 301 301 305 303 306 309 305 299 306 307 311 311 309 309 300 300 292 291
305 305 306 307 307 308 308 309 309 309 308 308 304 293 303 309 308 295 285 287 291 296 296 292 292 293 295 294 299 301 301 304 306 305 308 308 307 304 307 306 304 305 304 304 304 301 295
305 305 306 307 307 307 308 308 308 308 307 305 297 288 306 307 291 289 287 292 294 293 296 294 294 294 294 296 296 297 301 305 308 308 304 308 307 301 303 309 311 309 306 306 299 298 301
305 305 306 306 307 307 307 308 308 307 305 303 295 297 308 303 286 286 292 291 292 292 293 292 292 295 297 295 293 300 303 308 309 308 306 308 303 299 301 306 309 306 307 308 308 308 302
305 305 306 306 307 307 308 308 308 307 306 304 297 288 298 301 297 291 289 289 289 296 294 293 293 295 294 293 297 297 301 307 309 309 311 312 306 302 299 303 307 304 305 306 305 301 300
304 305 306 307 307 308 308 308 307 307 306 301 298 292 295 288 290 290 289 290 287 287 295 295 293 293 292 291 293 297 299 298 304 310 311 311 301 306 305 306 306 305 304 304 303 305 300
305 306 306 307 307 308 308 308 307 307 306 299 292 293 295 294 293 289 290 289 288 290 292 291 291 293 294 291 293 293 295 298 298 301 308 313 302 306 302 305 306 303 305 305 305 304 304
305 306 306 307 307 307 308 308 308 307 305 297 302 301 295 291 291 289 290 290 290 292 294 295 294 292 291 293 297 299 301 301 302 300 302 310 305 303 300 304 303 300 304 305 306 307 306
305 306 306 307 307 307 308 308 308 307 306 302 301 301 291 287 291 288 291 291 291 292 291 294 295 294 296 301 300 301 299 300 302 304 308 307 307 305 300 303 293 304 311 309 307 308 309
305 306 306 306 307 307 308 308 308 306 305 303 302 297 292 288 291 291 291 292 293 294 293 294 296 298 302 299 293 291 294 298 300 304 306 310 309 302 299 298 301 303 307 307 307 307 312
305 305 306 306 307 307 308 308 308 307 305 303 306 304 296 290 291 294 292 293 291 291 293 295 300 302 302 297 291 285 287 294 295 300 307 309 311 304 301 295 293 304 309 311 311 302 314
305 305 306 306 306 307 307 308 307 307 307 306 305 308 297 291 295 297 292 292 294 293 291 296 297 297 301 294 289 286 287 296 292 295 298 301 303 300 299 299 300 309 311 313 300 304 315
306 306 306 306 306 306 307 308 308 307 307 305 306 309 301 294 295 298 299 295 296 295 289 293 296 297 295 291 291 290 288 291 294 297 297 299 298 300 301 298 294 311 310 305 316 326 321
306 306 306 306 306 306 307 307 308 307 307 306 303 310 309 297 297 303 302 303 301 299 295 297 294 297 296 294 294 294 291 292 291 291 303 294 303 301 303 303 319 317 319 323 323 321 318

GFSGBSN_sfc_thetae_009.txt.gz
Theta_e
310 310 310 310 311 311 311 312 313 314 314 314 314 314 315 317 317 316 315 315 315 314 314 314 315 315 311 303 302 313 340 339 333 323 313 310 306 306 305 312 313 311 312 314 315 315 311
310 310 310 310 309 309 309 310 310 311 313 313 313 313 313 315 316 316 315 315 315 314 315 314 315 315 308 295 308 312 312 317 319 315 312 310 307 309 307 309 310 313 312 313 314 314 311
312 312 312 311 311 311 311 311 310 309 309 311 312 313 313 313 314 315 316 315 314 314 315 315 316 312 302 299 311 312 310 308 315 314 309 311 312 308 307 304 309 309 305 308 310 311 309
312 312 312 313 313 313 312 312 312 311 311 310 310 311 312 312 312 313 314 314 314 315 315 316 316 308 296 307 311 308 309 308 311 316 314 314 312 308 305 307 307 303 304 300 307 309 311
311 311 312 313 313 313 312 312 312 312 312 311 311 310 310 311 312 312 313 313 313 313 315 316 309 303 293 309 305 309 311 307 309 310 317 318 312 305 305 301 298 300 295 298 303 310 309
311 311 311 311 312 312 312 311 312 312 312 312 312 311 310 310 310 312 312 312 311 313 312 313 309 298 302 302 305 310 310 311 308 308 307 305 303 299 299 298 291 294 296 300 301 306 307
309 309 310 310 310 311 311 311 311 311 311 312 312 312 311 310 310 310 308 303 300 302 305 301 301 298 304 310 314 310 312 309 307 304 297 305 296 294 299 300 302 300 299 299 304 308 306
308 308 308 309 309 309 310 311 311 311 311 311 311 312 311 311 309 310 306 297 300 301 295 304 304 304 305 307 302 307 311 304 301 296 299 297 293 299 304 303 302 301 298 298 303 307 306
307 307 307 308 308 309 309 310 311 311 311 311 311 312 312 311 309 304 300 300 305 304 295 300 304 303 305 308 302 303 308 304 300 296 297 293 297 302 303 302 300 301 299 298 299 305 306
307 306 306 308 309 309 309 309 310 310 310 311 311 311 311 311 302 301 301 308 308 306 289 291 297 301 304 308 303 310 310 305 301 296 297 295 300 300 301 300 302 297 304 303 302 300 294
306 307 307 308 308 309 309 309 309 309 310 310 310 310 311 309 298 295 302 305 308 305 276 295 297 308 304 303 306 306 311 306 298 299 298 295 297 297 297 301 303 300 305 303 303 300 297
306 307 306 307 307 308 308 309 309 310 310 310 310 310 310 306 303 300 302 306 303 286 277 292 301 299 297 301 304 308 305 307 305 300 300 298 303 300 299 302 305 306 303 303 302 299 289
306 306 306 307 308 308 308 308 309 310 310 310 309 309 308 307 299 305 304 300 285 280 292 291 295 299 297 296 299 302 299 297 295 291 293 298 298 302 303 299 302 304 297 290 287 287 286
306 306 307 307 307 308 308 308 309 309 309 309 309 309 307 306 306 306 301 291 279 286 287 294 293 295 293 298 297 299 298 294 298 297 292 291 289 298 302 299 298 299 298 291 284 286 289
306 306 306 306 307 307 308 308 308 308 308 308 308 303 302 304 306 305 294 282 281 286 291 291 291 289 292 295 298 297 297 295 297 298 292 291 292 302 303 303 302 299 296 300 293 294 289
306 305 306 306 307 307 308 308 308 309 308 308 302 300 299 305 307 300 288 283 286 292 292 292 285 289 285 289 291 293 296 300 298 301 301 296 290 300 302 303 303 301 303 294 292 285 283
305 305 306 306 307 307 308 308 309 309 307 307 301 294 300 305 304 293 283 285 289 293 293 289 287 286 288 287 290 290 294 300 302 301 301 299 295 296 300 297 296 298 298 296 295 292 286
305 305 306 306 307 307 308 308 308 308 306 304 297 288 304 305 290 288 286 288 293 292 294 292 291 290 288 290 289 289 292 298 304 303 297 300 295 292 297 302 304 302 299 297 293 291 293
305 305 306 307 307 307 308 308 308 308 306 301 293 293 304 301 285 284 288 289 291 290 291 291 290 292 292 289 286 291 295 301 303 300 299 300 295 289 292 297 301 300 302 301 298 296 293
305 306 307 307 307 308 308 308 308 307 306 301 293 285 292 297 293 288 286 286 286 293 291 292 291 293 289 289 292 290 292 299 300 302 309 305 295 293 291 294 299 298 301 302 298 293 294
305 306 307 307 307 307 308 308 308 307 306 301 293 288 292 284 286 288 288 287 285 285 290 291 289 291 289 286 288 289 293 294 298 304 298 300 294 297 298 300 302 301 301 301 299 298 295
306 306 307 307 307 307 307 308 308 307 305 298 290 290 292 288 290 288 288 286 286 288 289 288 288 291 292 288 290 288 290 290 291 295 293 296 294 297 296 301 300 301 302 302 302 301 299
305 306 307 307 307 307 307 308 308 307 304 297 297 299 293 288 287 287 286 288 288 290 292 293 291 290 290 292 295 296 295 294 294 292 291 292 296 295 291 298 299 294 301 302 302 302 301
306 306 306 307 307 307 308 308 308 308 306 301 299 297 289 285 288 287 289 289 288 290 289 292 292 289 294 300 299 296 294 295 294 294 295 291 293 296 292 294 287 298 305 307 303 304 303
307 307 307 307 307 307 308 308 308 308 305 301 302 296 291 284 287 289 290 290 291 292 290 291 294 297 298 294 290 288 287 290 294 296 296 296 294 294 290 290 297 300 304 303 300 300 305
306 307 307 307 307 307 308 308 308 308 307 302 301 303 294 287 287 292 290 291 287 287 288 292 296 299 298 292 290 283 282 287 291 296 301 300 300 296 292 287 287 298 305 308 306 297 306
306 306 306 307 307 307 307 308 308 308 308 303 302 304 297 289 292 293 288 288 293 290 289 291 293 294 296 290 284 283 284 290 287 289 294 295 296 294 293 289 296 305 308 307 294 296 307
305 305 305 305 306 306 307 307 308 308 308 304 301 306 298 292 293 296 297 293 292 292 287 292 291 291 290 287 287 288 286 288 287 291 293 293 293 293 292 291 289 306 305 297 301 305 309
304 304 304 304 305 306 306 307 307 307 308 307 299 305 307 297 295 300 300 301 300 297 293 295 289 291 294 290 290 291 289 290 289 284 295 293 294 293 294 297 304 308 308 312 312 308 308

GFSGBSN_sfc_thetae_015.txt.gz
Theta_e
313 313 313 314 314 314 313 313 313 313 313 312 312 312 311 310 311 312 312 312 313 314 315 315 315 315 309 301 295 305 332 329 325 318 310 305 302 305 302 307 309 305 308 311 312 312 312
312 312 312 312 312 312 312 312 311 313 313 313 313 313 312 312 311 310 312 313 312 313 313 314 314 315 304 290 302 308 307 306 306 314 312 307 304 306 300 301 301 307 308 309 311 312 312
311 311 311 311 311 310 311 311 311 311 312 313 313 313 313 313 312 312 311 311 312 312 312 312 313 310 302 298 307 306 303 302 304 305 307 312 310 306 302 299 302 301 298 301 304 307 307
309 309 310 309 310 309 309 310 311 311 311 312 313 312 312 312 313 313 312 312 311 310 311 312 313 307 297 309 310 307 307 303 302 303 306 310 313 305 299 300 301 297 296 293 301 305 307
308 308 308 308 308 308 308 309 310 311 311 311 312 312 311 311 311 313 313 312 311 311 310 311 305 303 294 309 304 307 304 299 301 301 303 309 307 300 299 296 291 292 290 292 296 302 302
307 307 308 308 307 307 308 309 309 309 310 311 311 311 311 311 311 312 312 311 310 308 307 307 306 298 299 297 302 303 303 303 301 300 299 300 299 295 293 291 287 289 289 293 293 299 300
307 307 307 307 307 306 308 309 309 309 310 310 311 311 311 311 311 311 309 299 293 295 300 296 296 294 299 304 307 304 304 300 301 299 291 296 291 292 294 297 297 296 294 293 297 301 299
307 307 307 307 306 307 308 308 308 309 309 310 310 310 310 310 310 311 305 293 297 299 291 299 298 300 304 305 298 302 305 297 296 290 295 294 290 296 301 299 297 296 293 293 297 301 298
308 307 307 306 307 307 307 308 308 309 310 310 310 310 310 310 310 302 295 297 303 302 290 294 298 297 298 301 297 298 303 300 295 292 292 290 294 299 300 299 296 295 293 293 294 299 300
307 306 307 307 307 307 307 307 308 309 309 310 310 310 310 310 301 296 295 300 301 302 284 288 294 297 299 300 295 302 304 302 297 291 293 292 297 297 297 297 296 290 297 297 296 293 289
307 307 307 307 307 307 307 307 308 308 309 310 310 309 309 309 301 297 299 301 305 299 273 290 294 304 301 296 299 298 304 301 295 293 293 290 293 293 294 295 297 294 300 298 297 293 290
306 306 306 307 307 307 308 308 308 308 309 309 309 309 309 303 299 300 303 302 298 284 275 287 293 291 291 297 297 300 300 301 301 296 294 293 299 297 296 300 299 300 295 295 294 291 286
305 305 306 306 307 307 308 308 308 309 309 309 309 309 307 305 294 300 300 294 283 277 289 285 287 290 290 289 294 295 295 293 291 288 288 292 293 297 298 294 296 295 289 282 281 283 284
305 306 307 308 308 308 308 308 309 309 309 309 308 307 305 304 300 302 299 286 277 283 284 291 289 289 286 289 288 290 292 291 295 293 290 287 285 294 298 295 293 293 292 285 280 281 285
305 306 306 307 308 308 308 308 308 308 308 308 306 297 298 298 302 299 294 276 278 284 288 286 287 285 285 288 288 288 288 290 295 295 287 287 287 297 298 298 296 292 290 295 287 288 285
306 306 306 307 308 308 308 308 309 309 308 306 299 296 293 299 302 300 288 280 284 290 289 288 282 286 282 284 285 285 287 293 294 297 295 291 285 295 297 298 297 292 294 286 286 281 281
306 306 306 307 307 308 308 308 308 308 307 305 293 289 294 301 304 293 283 282 286 291 290 287 285 284 284 283 286 285 287 291 295 294 296 291 288 291 295 292 291 289 290 288 289 287 282
306 306 306 307 307 307 307 308 308 308 305 298 289 283 294 304 289 288 284 287 291 289 291 289 289 287 286 286 285 284 285 289 296 295 290 292 288 286 290 294 298 295 292 291 287 285 288
307 306 307 307 308 307 307 307 308 307 305 298 287 285 296 297 282 284 287 288 289 288 288 288 287 290 290 287 283 286 289 295 295 293 290 293 287 284 285 290 293 292 293 294 290 289 287
307 308 308 308 308 307 307 307 308 307 306 294 289 282 285 292 289 286 284 284 285 291 288 289 288 290 288 286 289 286 287 291 294 293 299 294 287 287 285 288 292 289 293 293 292 288 289
306 307 308 308 308 308 308 308 308 307 305 294 286 282 287 279 281 283 285 285 284 285 288 289 286 287 286 284 286 286 289 290 293 295 293 288 283 290 293 293 293 293 293 293 292 293 291
305 306 307 307 307 307 308 308 308 307 303 291 289 287 290 288 285 283 283 285 285 287 288 286 286 288 289 285 287 286 289 290 288 291 291 288 282 288 290 294 293 291 293 294 295 295 295
305 305 306 306 306 306 307 308 308 307 300 289 292 297 291 287 282 279 281 286 285 288 290 291 290 288 286 289 293 294 294 293 293 290 288 286 285 284 284 293 291 287 292 293 295 298 298
305 305 305 305 304 304 305 307 307 307 302 295 292 296 288 283 285 285 286 287 286 287 286 290 290 285 290 296 296 295 293 292 294 292 293 286 284 284 282 288 280 292 297 297 296 298 299
304 304 304 304 303 304 304 306 307 308 307 299 295 295 291 283 287 286 288 287 287 288 286 288 290 292 292 290 287 285 287 288 289 292 292 291 285 282 282 283 289 293 297 295 293 294 300
304 304 304 305 304 304 304 305 307 307 307 298 293 294 294 286 284 289 288 288 286 286 285 288 292 295 291 287 284 280 279 284 285 290 296 294 289 284 285 280 281 291 299 301 300 292 301
304 304 304 304 304 305 305 305 306 307 307 300 300 296 297 289 292 292 288 288 292 290 286 287 291 290 292 286 276 279 282 288 282 284 285 286 284 282 283 282 290 296 300 304 291 291 302
303 304 304 304 304 305 305 306 306 307 307 303 300 298 297 292 293 295 295 291 292 291 287 288 289 290 290 282 283 285 285 287 285 287 286 285 285 284 286 285 285 299 298 293 296 300 302
303 303 304 304 305 305 306 306 307 308 307 306 297 299 302 295 292 297 297 298 297 296 292 290 288 290 290 287 287 289 286 288 286 282 290 285 289 287 290 292 297 299 296 300 300 298 299

GFSGBSN_sfc_thetae_021.txt.gz
Theta_e
310 310 310 309 309 309 309 308 310 310 311 311 312 312 312 312 311 311 311 311 313 313 312 311 311 312 309 301 298 305 316 315 314 318 309 307 308 307 304 307 309 309 311 314 315 315 315
308 308 309 308 308 308 307 308 309 309 310 310 310 311 311 312 310 311 310 311 312 312 312 311 311 311 302 291 308 310 310 309 304 309 310 307 309 311 308 307 306 309 310 311 313 313 313
308 308 308 307 307 307 307 307 308 308 309 310 310 311 311 311 310 310 310 311 312 311 312 312 312 307 300 295 308 310 309 307 306 304 303 310 309 307 307 305 310 309 305 308 309 310 310
307 308 308 308 308 307 307 308 309 309 310 310 311 311 311 311 311 310 311 312 311 311 312 313 313 305 295 306 310 307 309 307 309 309 305 306 310 306 304 306 303 301 301 297 303 305 306
308 307 307 307 307 306 308 308 308 309 309 310 311 311 311 311 311 311 311 311 311 311 311 311 306 301 293 307 302 307 309 303 306 307 306 306 306 304 303 299 297 298 295 296 299 304 304
307 307 308 307 307 308 308 308 308 309 309 310 311 311 310 310 310 310 311 310 309 308 307 307 305 295 297 296 304 305 309 307 303 303 301 300 301 299 299 296 290 293 293 296 296 301 302
309 309 309 308 308 308 308 307 307 308 308 309 310 310 310 309 309 310 307 302 300 297 299 296 295 295 297 302 305 301 305 304 303 298 294 297 294 293 296 297 298 299 297 296 300 302 300
307 307 307 307 308 308 308 308 308 309 309 310 310 310 310 310 309 308 304 297 297 298 291 298 297 298 301 302 295 299 304 297 296 291 295 293 290 297 300 298 296 296 295 296 299 301 300
306 307 307 308 308 308 308 309 309 309 310 310 310 310 310 310 310 303 300 299 304 304 291 294 297 296 298 300 295 296 300 298 294 292 292 292 295 297 296 297 294 295 294 295 295 299 301
307 307 308 308 309 309 308 308 308 309 309 310 310 310 310 309 302 301 298 303 305 304 286 288 292 296 299 299 293 301 301 298 295 291 293 293 298 295 294 294 296 292 298 297 296 294 291
307 307 308 309 309 309 308 308 309 309 309 309 309 309 309 307 301 297 300 305 305 300 273 289 294 304 300 295 296 298 303 298 293 293 293 291 293 293 292 293 298 295 299 297 296 295 295
306 306 307 308 308 308 309 308 308 309 309 309 309 309 308 304 303 302 305 304 300 284 273 286 292 291 291 294 294 297 297 299 299 295 295 295 298 297 296 297 299 300 299 298 298 296 289
307 307 306 308 308 308 309 308 309 309 309 309 308 308 306 304 297 304 304 299 282 276 287 285 287 290 289 289 291 291 292 291 289 287 289 293 293 296 297 295 298 299 296 289 287 287 286
307 307 308 308 308 309 308 308 308 309 309 309 308 306 303 304 305 305 300 289 275 281 283 290 288 288 285 289 287 288 289 290 293 292 291 288 286 294 297 295 294 296 296 290 283 285 289
306 307 307 308 309 308 308 308 308 308 308 308 305 302 301 303 303 304 293 279 279 283 287 286 287 283 284 287 286 286 287 288 293 293 287 289 289 298 298 299 299 295 293 299 292 294 291
306 306 307 308 308 308 308 308 308 308 308 306 299 297 297 302 304 300 289 281 283 288 289 288 281 285 281 284 284 284 284 289 288 293 295 292 288 296 297 299 299 298 300 291 293 285 284
306 306 306 307 308 308 308 308 308 308 307 304 296 293 298 306 303 292 284 284 287 291 291 286 284 283 284 283 285 284 284 288 291 291 294 294 292 293 296 294 293 294 294 295 296 293 287
306 306 305 306 306 307 307 307 308 308 306 302 294 289 299 304 290 288 284 287 290 289 292 289 289 287 285 285 284 285 284 287 292 292 288 293 293 289 292 298 300 298 296 296 290 289 293
305 305 305 305 305 305 305 306 307 307 306 300 290 289 300 302 283 284 287 286 289 288 288 288 287 288 289 286 283 287 288 293 293 291 288 292 291 287 289 294 298 295 296 298 297 297 291
305 305 306 305 305 305 304 305 306 306 306 300 293 285 292 294 292 286 284 284 285 291 289 290 289 290 288 286 289 286 287 291 293 292 295 295 289 288 287 291 294 292 294 296 296 291 291
305 305 305 305 305 305 305 304 306 306 305 299 292 287 289 283 287 287 286 285 284 284 289 290 288 288 287 284 286 286 288 290 293 294 294 292 285 288 290 291 292 293 294 294 293 294 291
304 304 305 305 304 305 304 304 305 305 303 297 290 290 292 288 288 286 286 284 284 286 287 285 286 288 288 285 286 284 288 288 289 292 292 293 287 289 289 292 293 292 295 295 295 296 296
305 304 304 304 304 304 305 305 305 306 303 294 293 295 292 288 286 285 285 286 286 288 290 290 289 287 286 289 292 293 293 293 292 290 290 290 289 287 287 290 292 289 294 295 296 297 297
304 304 304 304 305 304 305 306 306 306 305 300 298 295 289 284 286 286 287 288 288 288 286 288 291 288 292 296 296 296 294 293 292 293 294 289 288 288 286 290 283 295 301 300 298 298 300
304 304 304 304 305 305 305 306 307 307 306 301 301 295 291 284 288 287 287 287 289 290 289 290 292 294 296 294 288 286 287 288 290 291 292 294 290 287 285 288 292 296 297 296 297 297 301
303 303 303 304 304 305 304 305 307 307 307 303 302 301 295 287 287 290 287 288 286 287 288 291 296 298 295 290 288 281 280 284 284 288 293 293 293 287 287 284 285 293 298 301 301 294 300
303 303 303 303 304 305 304 306 306 307 308 305 301 301 296 289 292 292 288 287 291 289 287 289 292 292 293 288 285 283 283 288 283 285 285 286 287 284 286 286 291 297 299 301 293 293 301
303 303 303 304 304 304 304 306 306 307 308 306 302 302 297 292 292 294 294 291 292 291 287 291 289 292 290 285 285 285 285 288 287 289 288 287 285 285 287 286 286 301 298 294 297 301 301
303 303 303 303 304 304 304 305 306 307 308 307 300 302 302 294 292 299 297 298 297 296 292 292 291 291 293 287 288 287 286 287 287 284 293 286 291 288 290 290 297 299 299 302 301 301 302

GFSGBSN_sfc_thetae_024.txt.gz
Theta_e
309 309 310 309 309 309 307 308 309 310 309 310 311 311 311 312 312 311 311 311 311 312 312 313 313 311 311 303 302 313 320 321 314 319 312 311 310 310 310 312 312 311 314 316 317 318 318
309 309 308 309 308 308 307 308 309 309 309 310 311 311 311 312 312 311 310 310 311 312 312 312 312 312 306 295 309 313 313 313 311 313 314 312 309 313 313 313 311 313 312 312 314 315 317
308 308 308 308 307 307 308 309 309 309 310 310 311 311 311 311 311 311 311 312 312 312 312 313 313 310 303 300 310 312 311 310 311 309 307 314 313 311 313 310 315 313 309 311 312 314 312
308 308 308 308 308 309 309 309 309 309 309 310 312 312 311 311 311 311 311 312 312 312 312 313 313 308 299 309 312 309 311 309 311 312 309 310 314 311 311 313 309 307 309 304 311 312 313
309 309 309 308 308 309 309 308 308 308 309 309 311 311 311 311 310 310 311 311 311 312 312 313 310 306 297 310 304 308 310 305 308 310 311 309 308 307 307 302 302 305 300 303 306 312 310
308 308 308 308 308 308 309 309 309 309 309 310 311 311 311 311 311 311 311 310 311 310 310 312 308 299 302 297 304 308 310 310 306 306 305 303 303 301 302 301 295 299 300 302 303 310 307
308 308 308 309 309 309 309 309 309 309 310 310 310 311 311 311 311 311 309 307 303 301 303 299 298 299 299 303 305 304 306 307 306 304 298 301 296 295 299 302 303 303 303 302 306 309 307
307 308 309 309 310 309 309 309 309 309 310 310 310 310 310 311 310 310 308 301 300 302 294 300 300 300 301 302 296 300 305 300 301 296 300 299 294 301 303 303 302 301 300 301 305 308 307
307 308 309 309 309 309 309 310 310 310 311 311 310 309 310 310 310 308 304 302 308 307 294 296 299 298 300 302 297 297 301 300 297 296 297 296 298 302 301 300 299 300 299 299 300 305 307
307 308 308 308 309 309 309 309 309 309 310 310 310 310 310 309 305 306 302 307 308 308 288 290 295 299 302 302 296 305 305 299 297 295 297 297 302 300 299 298 300 297 302 301 300 299 295
308 307 307 308 309 309 309 309 309 309 310 310 310 309 309 308 304 301 303 308 309 304 276 291 296 306 302 298 299 300 307 301 293 296 298 295 297 298 298 298 301 299 303 301 301 299 298
308 308 308 309 309 309 309 309 309 309 310 310 310 309 308 308 306 306 308 308 305 286 276 287 295 294 294 296 296 299 299 304 301 294 298 298 303 300 300 302 302 303 301 300 301 299 292
307 307 308 309 309 309 309 309 309 309 309 310 309 308 307 308 301 308 309 302 286 279 289 286 289 292 292 291 292 295 293 295 292 288 288 295 297 300 301 299 302 301 298 292 291 291 291
307 307 307 308 309 309 309 309 309 309 309 308 307 305 304 309 308 307 304 291 279 284 284 291 290 290 287 290 291 291 291 290 297 294 290 288 289 297 301 299 297 298 299 294 288 290 294
307 307 307 307 307 308 308 308 308 308 308 307 305 309 307 308 308 308 297 283 283 286 289 287 289 285 286 289 289 289 288 287 291 297 290 290 291 301 300 301 302 298 296 303 297 298 295
307 307 307 306 306 307 307 307 308 308 308 307 304 305 304 310 311 304 291 284 287 291 291 290 284 286 282 286 286 287 287 291 289 294 299 295 290 299 299 302 302 301 304 296 298 290 289
306 306 306 305 305 306 306 306 307 308 307 305 304 298 305 310 310 297 286 287 290 293 293 289 287 286 286 286 287 286 286 290 291 291 297 297 294 296 299 297 297 299 298 300 300 298 292
305 306 306 306 305 305 305 305 306 306 305 304 301 295 305 309 294 294 287 289 292 292 294 291 291 289 287 288 287 287 286 289 294 293 289 297 296 292 295 301 303 302 300 300 295 294 297
305 305 306 306 306 306 306 306 305 306 306 302 297 297 306 305 287 288 290 290 291 291 291 290 289 291 292 289 285 288 290 294 294 293 290 294 293 290 293 298 301 299 300 302 302 302 296
305 305 305 306 306 305 306 306 305 305 306 303 298 292 299 300 295 289 287 288 288 292 291 292 291 293 291 289 291 288 289 293 294 294 295 296 294 293 290 294 298 296 298 301 300 296 297
304 304 305 305 305 305 306 306 306 305 305 303 298 293 294 289 291 290 289 288 286 286 291 293 290 290 288 286 288 286 289 291 294 295 295 294 291 295 296 295 296 298 298 299 298 300 296
304 304 304 305 305 305 305 306 306 306 305 300 295 292 293 292 291 288 289 288 288 289 290 288 289 291 291 288 288 287 289 290 287 292 292 295 290 295 292 296 296 295 298 299 299 300 300
304 304 304 305 305 306 306 306 306 306 305 298 298 300 294 290 289 287 289 289 288 289 292 292 290 290 289 292 295 296 297 296 293 291 291 292 291 292 289 296 295 292 297 299 300 301 301
304 304 304 304 305 306 306 305 307 307 306 304 301 298 291 287 288 288 289 289 289 290 287 293 293 290 295 299 299 299 298 297 296 295 296 292 291 294 291 294 286 299 304 303 301 302 302
303 303 303 303 304 305 306 306 307 307 307 304 305 298 292 287 290 290 291 289 291 293 291 292 294 296 298 296 290 290 290 291 293 294 294 296 292 289 289 290 295 298 301 301 300 300 305
303 303 303 303 303 305 305 306 307 307 307 305 306 304 296 288 290 293 289 291 289 290 292 293 298 300 296 292 289 284 284 285 286 290 295 294 295 289 292 287 286 298 302 305 305 298 305
303 303 303 303 303 304 305 305 306 307 308 307 305 306 298 289 295 294 290 290 293 292 288 292 294 294 296 290 286 286 286 290 285 286 287 287 290 286 288 291 295 301 303 305 295 297 306
303 303 303 304 303 304 305 305 305 308 308 308 305 308 300 293 295 297 296 293 293 293 288 293 292 294 292 286 287 287 287 290 289 289 288 287 286 286 287 289 289 303 303 299 301 307 308
303 303 303 303 304 304 304 305 305 306 308 307 302 308 306 295 296 302 302 302 300 300 294 294 292 291 292 289 291 288 286 290 290 286 294 289 292 291 291 290 297 304 302 306 306 306 307

GFSGBSN_sfc_thetae_027.txt.gz
Theta_e
310 310 310 310 309 308 308 309 310 310 311 311 311 312 312 312 312 312 313 312 312 312 312 313 313 313 311 305 305 318 323 323 318 320 319 312 308 310 311 312 314 312 314 317 318 318 319
309 309 309 309 309 309 309 310 310 310 311 311 311 312 312 312 312 312 313 312 313 313 312 313 313 313 308 297 313 314 314 314 316 315 318 316 312 314 313 314 313 315 316 316 317 316 318
309 310 310 309 309 309 310 309 309 309 310 310 311 311 312 312 312 311 312 312 312 312 312 313 313 312 305 302 311 312 313 312 313 312 310 316 316 313 314 311 316 315 311 314 315 316 314
310 310 310 309 309 309 310 310 310 310 310 310 311 312 311 311 311 312 312 312 312 312 313 314 314 311 301 310 312 309 310 309 312 313 313 314 316 314 312 315 313 309 311 305 312 314 315
310 310 310 310 310 310 310 310 310 311 311 311 312 312 311 311 312 312 313 312 312 313 313 313 311 308 300 313 307 309 310 306 309 311 312 313 311 308 310 305 304 308 302 305 307 314 313
309 309 309 310 310 310 310 310 310 310 311 311 312 311 311 311 311 312 311 311 313 312 312 314 311 302 305 300 304 308 312 310 306 307 307 307 305 302 303 303 297 301 302 304 304 310 312
308 310 310 310 310 309 309 310 310 310 311 311 311 311 311 311 311 310 310 310 305 304 308 302 300 301 302 305 307 304 307 306 307 304 299 304 299 295 299 303 305 305 304 304 307 311 309
308 309 309 309 309 309 309 309 310 310 310 310 310 311 311 311 311 311 310 303 303 303 296 302 301 301 303 304 297 301 305 300 301 298 300 300 296 301 303 304 303 302 302 302 307 310 309
309 308 308 309 309 309 309 310 310 310 311 311 311 311 310 311 310 309 306 305 309 308 295 297 301 300 301 303 298 298 302 300 296 297 299 296 300 303 302 301 300 301 300 302 303 308 309
309 309 309 309 310 310 309 310 310 310 310 311 311 311 311 310 306 308 304 308 309 309 290 292 296 299 302 303 298 304 305 300 297 294 298 298 302 301 300 299 301 298 304 304 304 303 298
309 309 309 309 310 310 310 309 309 310 310 310 310 310 310 309 307 304 306 310 310 305 278 293 296 307 303 299 300 301 308 302 294 294 296 294 298 298 298 300 303 300 305 304 304 301 301
308 308 308 308 309 309 309 309 309 310 310 310 310 309 308 310 310 309 311 310 306 288 278 290 296 294 296 299 298 301 301 305 303 296 296 297 302 302 301 303 304 305 302 303 304 301 294
308 307 307 308 308 308 308 308 308 309 309 310 310 308 307 310 304 311 310 302 286 281 290 287 289 293 292 293 294 296 294 295 293 290 289 293 296 301 304 300 303 303 300 293 292 293 293
307 308 308 308 307 308 308 307 308 308 308 309 308 306 307 311 309 311 306 292 282 286 287 292 292 291 288 291 292 293 292 290 295 294 293 288 286 296 302 300 299 300 300 294 288 291 294
307 307 307 307 307 307 307 306 306 307 307 307 306 311 307 311 312 309 297 285 284 288 291 289 291 287 288 290 290 291 291 290 293 295 290 291 289 298 300 303 302 299 298 303 298 301 296
306 306 307 307 307 306 306 305 306 307 307 306 308 306 307 311 312 306 295 286 289 293 293 292 285 289 285 287 287 289 288 294 291 294 295 295 290 296 299 303 303 301 305 296 299 291 291
306 306 306 307 307 305 305 306 306 307 306 306 306 301 309 312 310 300 289 289 291 294 295 291 288 287 288 287 289 287 288 293 294 293 296 295 292 295 298 298 297 298 299 300 301 299 294
305 306 306 306 307 306 307 306 306 306 305 306 305 296 307 310 296 297 290 292 294 293 295 293 293 291 289 290 288 288 288 292 296 295 292 297 294 290 295 301 303 302 301 301 298 296 300
305 305 306 306 306 306 306 306 307 306 305 305 300 301 309 307 290 291 293 293 293 292 292 292 290 293 294 291 286 290 291 295 295 293 293 296 293 287 291 299 301 299 301 303 303 304 299
305 306 306 306 307 307 306 306 307 306 306 305 302 294 301 304 297 291 290 291 290 295 293 293 292 294 290 290 293 290 290 293 295 295 297 295 293 292 288 294 299 297 299 302 303 298 300
305 305 305 305 306 307 307 307 306 306 306 305 302 296 297 292 293 291 292 291 289 289 295 295 292 291 291 287 289 289 291 293 294 296 294 293 290 293 293 296 298 299 299 301 301 302 300
305 305 305 305 306 306 307 307 307 307 306 305 297 295 298 295 294 291 291 290 289 291 292 291 291 292 292 290 291 288 290 292 289 292 293 294 290 295 289 294 297 297 300 301 302 303 303
305 305 305 305 305 305 307 307 307 307 306 303 305 301 296 293 294 291 292 290 290 292 294 295 293 292 291 293 296 298 298 297 295 293 292 291 293 293 287 292 293 293 299 301 302 305 304
304 305 305 305 305 305 306 306 307 307 307 307 305 302 294 290 293 292 292 293 292 293 290 295 294 292 297 301 301 300 299 298 297 296 297 292 292 295 288 291 286 298 305 305 303 304 306
303 304 304 304 304 305 306 306 307 308 308 305 307 301 295 289 293 293 293 291 294 294 293 295 296 300 302 298 294 292 292 293 294 297 296 297 293 289 287 288 296 298 304 302 301 302 309
303 303 303 304 304 304 305 306 306 307 308 306 306 307 300 291 294 295 293 292 290 292 294 296 301 303 302 294 291 286 285 288 288 292 297 296 297 291 290 288 285 297 305 308 309 299 309
304 304 303 303 304 304 304 305 306 307 308 307 306 311 301 292 298 296 292 291 294 292 291 294 295 296 300 290 288 286 287 293 287 287 289 291 292 290 289 290 294 300 307 308 297 297 309
305 304 304 304 304 304 304 305 305 306 307 306 306 312 302 296 299 301 300 296 295 293 289 296 293 295 296 288 288 288 288 290 290 291 291 290 288 291 292 291 288 303 305 301 303 308 310
305 305 305 305 305 304 304 305 305 306 306 307 303 310 309 298 299 305 305 306 303 300 294 293 293 292 296 291 293 290 289 290 289 285 293 288 290 289 292 290 297 302 302 305 307 306 310

GFSGBSN_sfc_thetae_030.txt.gz
Theta_e
310 310 311 310 310 310 310 311 310 310 310 311 311 312 312 312 312 313 313 312 313 313 313 313 313 313 310 301 303 315 329 326 316 313 310 308 305 306 305 311 313 310 311 314 317 318 318
312 311 311 310 310 310 310 311 311 311 311 311 311 312 312 312 312 313 313 313 313 313 312 312 313 312 306 294 310 313 314 314 313 313 313 315 310 310 308 308 309 313 313 313 315 315 316
311 311 310 311 311 311 311 311 311 311 312 312 313 313 312 312 312 313 313 313 313 313 313 313 313 311 303 300 310 312 311 310 313 312 311 315 318 313 311 307 312 311 309 312 313 314 314
310 311 311 311 311 310 311 311 311 311 312 312 312 312 311 311 312 313 313 313 313 313 313 314 314 310 299 308 311 309 309 308 309 311 310 312 314 310 310 312 310 307 307 303 311 313 314
310 311 311 311 310 310 310 310 311 311 311 312 312 312 311 311 311 312 312 312 313 313 314 315 310 306 298 313 306 310 309 304 306 307 309 311 309 306 307 304 302 305 300 302 306 312 312
310 310 310 310 310 310 310 310 310 311 311 311 312 311 311 311 311 312 311 311 313 312 312 313 311 302 306 303 307 307 311 309 304 304 304 305 304 300 301 299 295 298 299 302 303 309 311
310 309 309 310 310 310 310 310 310 310 311 311 311 311 311 312 312 311 309 309 303 302 307 303 303 303 304 307 307 304 306 305 305 304 296 301 297 294 297 300 301 302 302 301 306 310 308
309 310 310 310 310 310 310 311 310 310 310 310 311 311 311 311 311 311 309 304 303 304 295 302 301 301 303 303 297 301 306 298 298 295 300 296 294 300 301 301 300 299 299 300 306 309 308
310 310 309 309 309 310 309 310 310 311 311 311 311 311 311 310 310 309 307 305 309 307 296 297 300 299 300 302 297 298 302 298 295 293 296 293 297 301 300 299 298 299 298 300 300 305 307
309 309 309 309 309 310 309 310 310 310 310 310 310 310 310 309 306 307 305 308 309 308 289 292 295 299 301 301 296 304 304 299 295 291 294 295 300 298 298 298 300 296 301 301 301 299 296
309 308 309 309 309 309 309 309 308 309 310 310 310 310 310 308 307 304 306 310 310 304 278 295 298 307 303 299 301 301 307 300 293 293 293 291 294 296 295 298 301 298 302 301 301 299 300
309 308 309 309 309 308 308 308 308 309 309 309 310 310 309 310 309 310 310 310 305 287 278 289 296 293 294 297 298 301 301 305 301 295 295 293 298 297 298 300 301 304 300 300 301 300 293
308 308 308 309 308 308 308 308 308 308 308 309 309 309 307 310 304 310 310 303 287 280 292 286 289 292 292 291 293 296 295 294 292 288 289 293 293 296 299 296 301 300 299 291 290 291 290
307 307 308 308 308 308 307 307 307 307 307 308 307 306 310 311 311 311 306 294 280 286 287 293 291 291 289 292 291 292 292 290 295 293 290 287 287 293 297 296 296 298 298 292 285 288 291
307 307 307 307 308 308 307 306 306 306 307 306 305 312 310 310 312 310 300 286 282 287 290 289 290 288 287 291 291 291 290 289 292 294 288 288 289 299 298 298 299 297 294 301 296 297 293
306 307 307 307 308 308 307 307 307 307 307 306 305 308 307 313 312 305 295 287 289 293 292 291 285 288 285 288 287 289 289 293 293 295 297 291 285 294 299 299 299 299 302 294 297 288 288
307 306 307 307 307 307 307 307 307 307 306 305 306 302 310 311 310 300 289 290 292 295 294 290 288 287 288 288 289 287 288 291 296 295 296 294 290 289 296 295 292 296 295 298 300 296 291
306 306 307 307 307 307 307 307 307 307 305 305 306 297 309 312 298 298 292 293 295 294 295 292 293 291 289 290 288 289 289 292 297 297 291 294 291 287 290 299 300 299 297 298 294 293 297
306 305 306 307 307 307 307 307 307 307 306 303 302 301 310 307 292 292 294 293 295 293 293 293 291 293 294 290 286 288 290 296 296 294 293 295 291 285 287 293 299 296 299 301 302 303 297
306 306 306 306 307 307 307 307 307 306 306 305 303 296 300 301 300 292 291 291 290 297 295 295 293 294 291 289 292 289 288 294 297 296 298 296 290 288 284 289 293 293 298 299 300 296 297
305 305 306 306 306 306 307 307 307 306 306 305 302 298 299 292 294 294 293 291 290 289 294 295 292 292 291 287 288 289 292 293 296 296 296 293 285 289 291 291 292 293 296 298 298 301 297
305 305 305 306 306 306 306 307 307 306 306 304 299 295 298 294 296 294 293 291 290 292 292 290 291 293 293 289 290 288 291 292 291 295 291 294 287 290 289 292 291 289 294 298 300 301 302
305 305 305 306 306 306 306 307 307 307 306 302 303 303 297 294 295 293 292 291 292 293 295 294 294 293 292 293 296 297 297 297 295 293 292 292 290 288 285 291 290 287 295 298 301 304 304
306 305 305 305 305 306 306 307 307 307 307 303 302 302 295 290 293 293 294 293 292 293 291 296 297 294 297 302 301 300 299 297 295 296 297 292 290 290 287 289 279 294 305 304 302 305 307
306 306 306 305 305 305 306 306 307 307 307 305 304 302 297 290 293 293 294 293 295 296 294 295 297 300 302 298 292 291 292 292 294 296 296 297 292 289 287 286 289 296 302 301 301 302 308
307 307 306 306 306 304 305 306 306 307 307 306 305 306 301 292 294 296 294 295 291 291 293 295 300 303 302 295 291 285 283 287 288 292 298 297 296 291 288 285 282 294 302 307 308 297 309
306 306 306 306 306 306 306 305 305 306 307 305 305 311 302 293 298 298 295 293 296 293 291 294 295 296 301 292 287 286 286 292 286 287 290 291 290 288 288 286 287 298 303 308 295 297 310
307 306 306 306 306 306 307 306 305 306 306 305 304 310 303 297 299 301 302 298 298 296 289 293 291 295 295 290 289 287 287 289 289 290 289 290 288 289 291 287 283 298 301 296 301 307 308
306 306 306 306 305 306 306 307 306 306 306 306 300 309 312 300 299 305 305 307 305 303 296 294 291 292 294 290 292 291 288 289 289 285 295 288 290 287 291 289 296 300 300 303 305 306 308

GFSGBSN_sfc_thetae_033.txt.gz
Theta_e
311 311 311 312 312 312 312 312 312 312 312 312 312 313 313 313 313 313 313 313 313 313 313 313 313 313 307 298 298 308 330 326 312 311 307 304 300 298 295 299 307 306 307 310 313 314 314
311 311 311 312 312 311 311 311 311 312 313 313 312 312 312 312 312 313 313 313 313 313 313 313 313 313 303 291 305 307 309 310 313 307 305 305 302 304 300 300 300 306 309 310 311 310 311
311 311 312 311 311 310 311 311 311 312 313 313 313 313 312 312 312 312 313 313 312 313 312 313 314 310 300 296 305 306 306 304 305 306 306 310 311 307 304 300 305 304 301 305 307 310 309
311 311 311 310 311 310 311 311 311 311 312 312 313 312 312 312 312 313 313 313 312 313 313 314 315 307 295 306 307 304 305 304 306 306 305 306 307 302 301 304 305 302 301 296 303 306 309
310 310 310 310 310 310 311 311 311 311 310 311 311 312 312 311 312 312 313 312 313 314 314 314 308 303 294 311 304 306 305 302 303 304 304 307 303 299 300 295 293 297 293 296 299 307 306
310 310 310 309 311 311 311 311 310 310 310 310 311 311 311 312 311 312 311 311 312 313 311 311 309 299 302 301 307 307 308 306 303 301 299 298 296 294 294 292 287 291 294 297 297 303 305
309 310 310 310 310 310 310 310 310 310 310 311 311 311 311 311 311 311 308 303 299 298 302 297 298 301 304 308 310 303 305 304 303 299 290 294 290 289 292 294 296 297 297 296 300 304 302
310 310 309 309 310 309 309 309 309 309 310 310 310 310 311 311 311 310 305 300 300 298 291 299 299 299 302 302 296 299 303 295 295 290 295 292 287 294 297 297 295 295 292 292 299 304 302
309 309 309 309 309 309 309 310 309 310 310 310 310 310 311 311 310 306 303 302 305 303 290 294 298 297 298 300 295 296 299 296 292 289 290 289 292 297 296 295 294 293 292 293 293 298 300
309 309 309 309 309 309 308 309 308 308 309 309 309 310 310 310 304 304 301 306 305 303 284 290 297 300 301 299 293 301 301 297 293 288 289 288 294 295 293 293 295 290 297 297 296 294 289
309 309 308 309 309 309 309 308 308 309 309 308 309 310 310 308 302 301 305 306 305 299 275 293 295 304 300 297 298 299 306 298 291 291 290 286 289 290 291 293 296 292 299 297 296 293 292
308 308 308 309 309 309 308 308 308 308 308 308 309 309 309 307 303 305 306 306 300 285 276 289 293 292 291 294 295 298 300 304 301 292 291 290 295 292 291 294 297 298 296 295 295 292 285
307 307 308 309 309 308 308 308 308 308 308 308 309 308 305 307 300 305 305 299 285 278 291 286 287 291 291 290 292 293 292 292 289 286 284 289 290 293 295 290 293 292 289 283 282 283 283
307 307 308 308 308 308 308 308 307 308 308 308 307 306 307 308 309 306 302 290 276 285 286 290 289 290 287 290 290 291 290 287 293 292 287 285 283 292 297 290 287 288 289 284 278 281 285
306 307 307 307 308 308 308 307 307 307 307 307 305 305 305 307 308 305 294 281 278 286 290 288 289 285 285 289 289 289 288 288 291 292 285 284 285 296 296 295 293 288 285 293 287 289 285
306 306 306 307 308 308 308 308 308 308 307 306 300 301 303 308 308 301 289 285 288 293 293 291 283 287 283 286 286 287 286 292 291 295 294 289 282 291 293 294 295 294 293 285 288 280 280
307 306 306 307 307 308 308 308 308 308 306 305 300 298 305 306 306 296 282 287 290 295 294 290 287 286 286 286 287 286 287 291 294 293 294 291 285 286 291 288 288 290 288 288 288 288 283
306 306 307 307 307 307 307 308 308 307 305 303 300 293 305 306 292 292 286 291 294 293 296 294 292 291 288 288 287 286 286 290 295 295 289 292 287 283 286 293 296 293 290 289 284 284 289
306 306 307 307 307 307 306 307 307 307 306 300 295 298 306 304 286 286 292 292 293 292 292 292 290 292 292 289 285 289 289 295 295 293 290 291 285 279 283 289 294 291 294 293 291 291 288
306 306 306 307 307 307 306 307 307 306 306 302 297 291 297 298 295 290 289 289 289 295 293 293 291 293 290 288 290 288 289 293 295 295 299 294 286 284 280 285 290 288 291 294 293 288 288
305 305 306 306 307 307 306 307 307 306 306 302 298 293 295 286 288 290 292 290 288 288 293 293 290 291 289 285 286 286 290 291 294 297 293 293 284 287 287 290 291 289 289 291 289 291 289
306 306 306 306 306 307 306 307 307 306 305 301 295 292 295 292 292 291 292 290 290 290 290 289 289 291 291 287 288 286 289 289 287 293 291 292 287 288 286 290 291 288 290 291 291 292 293
307 307 307 307 306 306 306 306 307 306 305 299 300 300 296 292 290 288 289 291 291 292 293 293 292 291 290 292 294 294 294 293 292 289 288 289 288 287 283 291 289 284 289 290 292 294 295
307 307 307 307 307 307 306 306 306 306 306 302 300 299 293 288 290 290 291 293 292 293 290 293 295 292 296 299 298 296 295 294 294 293 293 289 288 288 285 287 274 289 301 301 299 297 304
306 307 307 307 307 307 307 307 306 306 306 302 302 299 295 288 291 292 292 292 293 294 291 292 294 296 298 295 290 287 287 291 293 294 292 292 289 285 284 284 288 293 296 295 295 300 306
306 307 306 307 307 307 307 307 307 306 306 303 300 304 298 291 289 294 292 293 290 291 290 293 297 298 296 291 287 282 282 286 287 290 297 293 293 288 286 282 280 288 296 300 301 294 305
306 306 306 307 306 307 307 307 307 306 305 303 300 302 300 292 296 296 292 292 296 294 290 292 293 292 296 288 284 284 283 289 284 284 287 288 288 285 286 284 287 293 297 303 292 294 305
306 306 307 306 306 306 307 307 307 307 306 303 300 302 298 296 297 299 299 295 295 294 290 292 289 290 288 283 284 285 283 287 287 289 289 287 286 285 287 286 282 296 297 293 298 303 306
306 306 306 305 307 306 306 307 307 308 308 306 297 302 308 300 297 303 303 303 301 300 295 293 290 291 290 288 287 288 286 286 286 283 292 286 289 286 287 287 296 299 298 302 303 303 304

GFSGBSN_sfc_thetae_036.txt.gz
Theta_e
311 311 312 312 311 311 311 312 311 312 312 312 312 313 313 312 312 312 312 312 313 313 313 313 313 313 306 297 297 302 319 314 310 323 308 306 300 297 294 296 300 302 307 309 312 312 312
311 312 311 311 311 311 311 311 311 312 312 312 312 312 312 312 312 313 313 313 313 313 312 312 312 312 301 290 302 305 305 305 304 302 308 303 300 300 297 297 297 300 301 305 308 307 308
311 311 310 310 311 311 311 311 311 311 311 312 312 312 312 312 313 313 313 313 312 313 313 313 313 308 300 295 305 303 301 299 302 303 300 305 305 301 299 297 301 300 296 300 302 303 306
311 311 310 310 310 311 311 311 311 311 309 310 311 311 312 311 312 313 313 312 312 313 314 315 314 307 295 306 306 304 304 303 305 304 303 304 303 302 299 300 300 297 296 292 300 303 304
310 310 310 310 310 310 310 310 310 310 310 311 312 312 311 311 310 311 312 311 312 314 315 314 306 302 294 310 304 306 304 300 302 303 301 305 300 296 297 292 290 292 291 294 297 303 303
310 310 310 310 309 308 309 309 309 310 310 310 311 311 311 311 311 311 311 311 311 312 311 311 308 299 301 300 307 308 305 304 301 300 298 296 292 291 290 289 285 289 290 294 295 300 303
310 309 310 309 309 309 308 308 309 309 310 310 310 310 310 311 311 311 308 301 296 293 296 294 295 298 300 304 306 301 305 301 302 298 288 292 286 285 289 292 293 294 293 293 297 301 300
309 310 310 309 309 309 308 308 308 309 309 309 309 309 310 311 311 311 303 298 298 297 290 299 298 298 300 301 295 298 303 294 293 287 292 288 285 290 293 294 293 292 290 290 294 297 298
309 309 309 309 309 308 308 308 308 309 309 309 309 309 310 310 310 304 300 300 303 299 288 293 300 299 297 299 294 295 299 295 291 287 287 287 290 295 292 291 291 291 289 290 291 295 297
308 308 308 308 309 308 308 308 308 308 308 309 309 309 309 309 302 300 299 304 301 299 282 290 294 298 300 298 293 300 301 296 291 286 288 286 290 290 290 289 291 287 294 294 292 290 286
307 307 308 309 309 309 308 308 308 308 308 308 309 309 309 308 299 298 303 302 301 296 276 291 294 303 300 295 297 297 305 300 289 289 288 285 287 287 287 290 294 289 296 294 294 291 288
307 307 307 308 308 309 308 308 308 308 308 308 309 309 308 303 299 302 303 301 298 282 273 287 293 291 291 293 295 298 298 302 300 294 291 289 292 290 288 291 292 293 292 292 292 287 282
306 307 307 308 308 309 308 308 308 308 308 308 309 308 306 305 297 303 301 296 280 274 290 286 287 290 289 289 291 293 291 289 288 285 284 288 288 291 293 288 290 288 282 278 277 279 281
306 306 307 307 308 308 308 308 308 308 308 308 307 307 303 305 302 303 297 286 275 283 285 292 290 289 285 289 289 291 289 286 292 291 287 284 282 290 296 290 285 284 283 279 275 277 282
306 306 306 306 307 307 307 307 307 307 307 306 305 298 300 304 304 300 290 278 276 286 289 288 288 284 284 289 288 288 287 288 291 291 285 284 284 294 294 294 291 287 282 286 281 285 281
306 306 306 306 307 307 307 307 307 307 307 306 296 295 298 305 303 297 285 283 286 292 292 291 283 286 282 285 285 286 286 291 290 294 294 287 281 290 292 293 292 289 292 281 280 277 277
306 306 306 307 307 307 307 307 307 307 306 305 295 294 302 302 302 291 278 284 290 294 294 290 287 285 286 284 286 285 286 291 293 292 293 288 284 285 290 287 285 285 285 285 283 282 280
305 305 306 306 307 307 307 307 307 307 305 299 293 289 301 303 288 285 281 289 294 292 295 293 292 289 287 288 286 286 286 289 295 294 288 289 285 281 284 290 293 290 287 286 279 279 283
306 306 306 307 307 307 307 306 307 307 305 299 292 291 301 299 286 281 287 291 293 291 291 291 290 291 291 287 283 288 289 295 295 293 290 291 282 277 278 284 292 289 292 292 289 285 282
307 307 307 307 307 307 307 306 306 306 305 300 292 286 291 291 289 285 285 288 288 295 293 292 290 291 288 287 288 286 288 293 295 295 298 294 285 281 275 281 288 286 289 291 289 283 284
307 307 308 307 308 308 307 306 307 306 305 297 291 286 289 281 285 287 288 290 288 288 292 292 289 289 288 285 285 284 289 290 293 295 294 289 282 285 285 287 288 288 288 289 288 289 285
307 307 307 307 307 307 307 307 306 306 305 296 288 288 291 288 289 286 288 288 289 290 290 289 287 290 290 287 288 285 287 287 286 290 289 289 283 287 284 288 289 287 290 291 290 290 290
307 307 307 307 307 307 308 308 307 306 303 291 293 296 293 290 286 286 286 289 290 292 293 293 291 289 288 291 294 293 294 293 291 287 287 289 287 285 281 288 288 283 289 290 291 293 292
308 307 307 307 307 307 308 308 307 306 304 296 292 297 292 286 288 288 290 292 291 291 289 292 291 288 293 297 295 293 291 292 292 291 292 285 284 287 283 285 277 289 297 298 296 298 298
308 307 307 307 307 307 308 308 308 307 305 295 294 296 293 287 290 290 291 290 292 293 289 291 293 294 296 291 288 286 288 289 291 294 290 291 288 283 282 283 287 292 292 293 293 296 303
308 307 307 307 307 307 307 307 308 308 306 300 295 295 295 291 288 293 289 291 289 290 291 292 294 295 293 288 285 281 280 285 285 289 295 293 291 286 285 281 280 287 291 297 300 293 303
308 308 307 307 307 306 307 307 307 307 308 303 297 295 296 291 294 293 290 290 294 293 290 290 292 290 290 282 278 279 281 288 282 284 285 287 287 284 283 283 286 291 293 299 290 292 300
307 307 307 307 306 305 306 307 307 307 308 304 297 298 294 291 293 295 296 292 293 290 287 291 288 286 286 283 284 284 282 284 285 288 287 286 285 284 284 284 280 295 296 292 295 299 301
306 306 306 306 306 305 306 306 306 307 307 306 297 298 299 294 294 299 300 301 300 299 293 294 289 290 288 287 286 287 285 286 286 281 291 285 288 285 285 285 292 297 297 300 302 300 302

GFSGBSN_sfc_thetae_039.txt.gz
Theta_e
311 311 311 311 311 310 311 310 311 311 311 310 311 311 312 312 312 312 312 312 313 313 313 312 312 312 304 295 294 301 314 309 305 314 313 305 300 299 294 295 301 302 306 308 313 314 313
311 311 310 310 310 310 310 310 310 310 310 310 310 311 311 312 312 312 312 312 312 312 312 312 312 311 300 290 302 303 303 302 301 299 301 306 300 300 295 295 298 298 299 303 305 305 307
311 310 310 310 309 309 309 310 310 310 311 311 312 312 311 311 312 312 312 312 312 312 312 313 313 308 299 296 305 304 304 300 300 300 298 301 305 300 298 294 298 297 294 297 299 299 300
310 310 310 310 309 309 309 309 309 310 310 311 311 311 310 310 311 312 313 313 313 313 314 314 313 306 295 305 305 303 304 302 303 302 301 302 301 298 297 298 298 294 293 291 298 300 301
310 310 310 310 310 309 308 308 309 309 309 310 310 311 309 310 310 311 312 312 313 315 314 314 305 300 294 310 304 307 304 300 301 302 301 304 297 294 295 292 288 291 290 291 295 301 301
310 310 310 310 309 309 308 308 308 308 309 309 309 310 309 309 310 311 311 312 312 311 312 311 308 296 297 296 302 305 305 303 299 298 296 294 291 289 287 288 284 287 288 292 292 298 300
309 309 309 309 309 309 309 309 308 309 309 309 309 309 310 310 310 310 307 300 295 293 294 292 294 295 297 301 304 301 303 300 299 295 288 290 285 284 289 291 292 291 289 290 294 299 299
309 309 309 309 309 308 308 308 308 309 308 309 309 309 309 311 310 310 302 296 296 296 288 297 296 297 300 301 295 298 302 294 291 286 289 286 284 289 291 291 291 289 287 287 292 296 294
308 308 308 308 308 308 309 308 308 308 308 308 308 308 309 310 309 302 298 300 301 297 287 292 297 297 299 298 294 294 298 294 289 286 285 284 287 292 290 289 288 288 287 288 289 293 294
307 308 308 308 308 308 308 308 308 308 308 308 309 309 309 309 301 298 297 303 301 297 281 289 293 297 298 297 293 301 300 295 289 285 286 284 289 288 288 287 288 283 291 292 291 288 284
307 307 307 307 308 308 308 308 308 307 308 308 308 309 309 308 298 297 301 301 300 294 271 290 293 301 297 292 295 297 302 296 289 288 286 283 285 285 285 287 290 286 291 291 290 288 285
306 306 306 306 306 307 308 308 307 308 308 309 309 309 308 302 297 301 303 300 296 279 270 287 293 291 290 292 293 297 297 301 299 292 289 286 291 288 287 290 289 291 288 288 288 285 279
306 306 306 306 306 306 307 307 307 308 308 308 309 308 306 304 296 300 299 293 279 273 288 285 287 290 289 288 290 292 291 290 288 283 284 289 287 290 291 285 288 286 280 275 276 276 279
306 306 307 307 307 307 307 307 307 307 308 308 307 306 303 304 301 300 294 284 275 281 285 291 290 289 284 288 288 290 289 286 291 290 286 283 280 287 291 287 284 282 281 276 274 276 279
306 306 306 307 307 307 307 307 307 307 307 306 305 296 297 301 303 298 288 278 275 284 289 288 288 284 283 287 287 287 286 287 291 292 285 283 283 293 293 294 290 285 280 284 279 281 278
306 306 306 306 307 307 307 307 307 307 306 306 294 294 297 302 301 294 284 283 285 291 292 290 283 286 281 284 284 284 285 291 290 294 294 288 281 290 292 292 291 287 290 279 277 274 274
308 307 307 308 307 307 307 307 307 307 306 304 294 293 300 301 300 289 278 283 289 294 293 289 286 285 285 284 284 283 285 290 293 291 293 288 283 285 289 285 282 284 283 284 281 280 276
308 308 308 308 308 308 308 307 307 306 305 301 290 287 300 299 286 282 279 288 293 292 294 292 291 288 286 286 284 285 285 289 295 294 287 289 284 280 284 289 291 287 285 285 278 279 280
307 307 308 308 308 307 308 307 307 306 305 300 290 291 300 297 278 279 285 289 292 291 291 291 289 290 290 287 283 286 289 294 295 292 289 289 282 277 278 283 290 286 288 287 287 284 282
307 307 307 307 307 307 307 307 307 306 305 299 292 285 288 288 287 282 283 286 287 294 292 292 289 291 287 287 289 286 287 291 294 294 297 294 283 280 274 280 285 284 287 289 286 281 283
307 308 307 308 308 308 308 307 307 305 305 295 289 283 287 280 284 286 285 288 286 287 293 293 288 288 287 284 285 283 287 289 292 294 291 289 281 283 284 286 287 286 285 286 286 287 283
308 308 308 308 308 308 308 308 308 306 304 294 285 285 288 287 289 288 286 284 286 289 289 288 287 289 288 285 287 285 287 287 285 289 291 290 283 285 283 287 287 285 287 288 288 289 288
308 308 308 308 308 307 307 308 308 307 301 289 290 291 289 286 286 286 286 288 288 290 291 293 292 290 287 289 292 292 292 291 290 286 288 289 286 284 279 285 286 283 286 288 289 291 290
309 309 308 308 307 307 308 308 308 308 302 296 293 292 289 282 285 285 289 289 288 290 289 292 292 288 292 296 294 292 290 290 290 289 290 285 284 285 280 283 276 287 295 293 291 292 293
308 309 309 308 308 308 307 307 308 307 307 298 297 294 289 283 287 287 290 288 289 290 289 292 292 295 294 290 286 283 285 289 290 293 289 290 287 282 279 280 285 289 291 291 291 292 299
308 308 308 308 308 308 307 306 308 308 307 302 298 297 292 287 283 291 287 290 288 288 289 290 294 293 290 285 283 280 279 284 285 287 294 293 290 284 283 279 277 286 291 295 296 288 298
308 308 308 307 307 308 307 306 307 307 307 304 299 298 295 288 288 288 287 287 292 292 289 288 290 288 288 281 278 281 280 287 281 283 285 287 286 282 281 280 285 289 292 296 286 288 298
307 306 305 305 306 306 306 306 306 306 307 305 299 299 296 290 291 291 292 289 291 292 288 288 286 286 284 282 282 281 283 285 285 287 287 285 284 284 284 282 278 291 292 292 294 299 299
305 305 304 305 304 304 305 305 305 305 307 306 298 300 301 294 292 295 295 297 297 296 294 292 286 286 287 284 283 286 284 286 285 279 291 284 288 284 284 284 289 290 294 301 302 300 299

GFSGBSN_sfc_thetae_042.txt.gz
Theta_e
312 311 310 310 310 310 309 309 310 309 310 310 311 312 312 311 312 312 312 312 312 312 312 312 311 312 303 292 292 301 313 308 302 301 311 307 299 298 292 296 303 306 305 310 313 314 314
310 310 311 310 310 310 309 309 310 310 310 310 310 311 311 311 311 311 312 312 312 312 312 312 312 311 299 288 302 304 303 304 300 296 297 306 300 300 296 294 298 297 302 306 306 305 306
310 311 310 310 310 309 309 308 309 309 309 310 310 310 310 310 311 311 312 313 312 312 313 313 313 308 297 293 304 305 304 301 300 301 295 298 307 300 296 292 296 295 293 295 297 299 300
310 310 310 310 310 309 309 309 308 308 309 310 310 310 310 310 310 311 312 313 313 315 315 313 314 303 292 305 305 303 303 301 303 302 299 299 299 295 295 296 296 293 291 290 297 297 299
310 310 310 309 309 309 309 309 309 309 309 309 310 310 310 310 310 311 312 312 313 314 315 314 302 297 292 307 303 306 304 300 301 300 300 303 297 293 295 290 287 289 288 288 292 298 298
309 309 309 309 309 308 309 309 309 309 309 309 309 310 309 310 311 311 311 312 312 312 312 310 308 294 295 295 301 303 304 302 299 297 295 293 290 287 287 287 283 285 286 289 290 296 298
308 308 309 309 309 309 309 309 308 308 309 309 309 309 310 310 310 311 306 298 294 292 294 291 293 294 296 300 303 300 302 299 297 294 285 288 284 282 288 290 291 289 288 288 292 297 296
308 308 308 308 309 308 308 308 308 309 308 309 309 309 309 310 310 310 299 295 296 296 288 296 295 295 299 299 294 297 300 292 290 285 287 285 282 287 290 290 289 288 285 285 290 294 293
307 307 308 308 308 308 308 308 308 308 309 309 308 308 309 309 309 301 297 298 300 295 286 291 295 294 296 297 293 294 297 293 288 285 284 282 285 291 289 288 286 286 285 286 287 292 293
307 307 307 307 306 306 307 307 308 308 307 307 308 308 309 308 300 297 296 301 301 296 281 286 292 294 296 296 291 299 299 294 289 285 287 283 287 287 286 286 287 281 290 290 290 287 282
307 307 307 307 307 307 307 307 307 307 307 308 308 308 308 307 296 296 299 300 298 293 271 289 292 300 298 291 292 295 301 294 289 287 286 284 284 283 283 285 288 285 289 288 288 285 283
307 307 307 307 307 307 308 307 307 307 308 308 308 308 307 301 296 299 301 298 294 279 270 286 291 290 290 291 292 294 295 300 299 292 291 288 289 287 286 288 289 290 287 286 285 283 277
307 307 307 307 307 307 308 307 307 307 308 308 308 308 304 303 294 299 298 291 278 273 286 285 286 289 288 287 289 290 289 288 286 283 284 288 286 289 289 284 286 285 279 274 274 274 276
307 307 307 308 308 308 308 308 307 307 307 307 307 303 303 303 299 299 292 284 275 280 283 290 289 288 284 287 287 288 287 284 291 289 285 282 279 286 290 285 282 281 280 275 273 274 276
309 308 309 309 309 309 308 307 307 307 306 306 304 296 296 299 302 296 288 277 275 283 288 287 287 283 282 286 286 285 284 285 290 291 284 283 283 292 291 290 287 282 278 283 278 279 275
308 308 308 308 308 308 308 308 308 307 306 305 293 294 297 301 299 293 285 283 283 289 291 289 282 285 280 282 282 283 284 289 289 293 293 288 281 289 291 290 289 285 286 278 276 273 273
308 308 308 308 308 307 307 307 308 307 306 305 292 292 298 299 298 289 278 282 287 293 293 289 285 285 284 282 283 282 284 288 292 291 292 289 285 285 289 286 283 284 281 281 279 278 275
308 308 308 308 307 307 307 307 307 307 304 301 289 286 298 297 285 280 278 285 292 291 294 292 290 289 285 285 284 284 284 288 294 292 286 289 284 281 284 289 290 286 283 283 279 278 279
308 308 308 308 308 307 306 306 306 307 305 299 291 291 298 294 277 277 284 287 290 290 290 290 289 289 289 286 282 286 287 293 293 291 288 290 283 278 279 285 288 283 286 284 283 283 280
309 309 309 308 308 308 307 307 307 307 305 297 290 283 287 287 285 282 284 285 287 292 291 291 289 291 288 286 289 286 287 291 292 292 297 293 286 280 275 280 284 282 285 286 284 279 279
309 309 309 309 309 309 308 308 307 307 304 293 287 282 287 278 281 284 287 287 286 285 292 291 288 288 288 285 285 284 288 289 291 294 290 290 283 282 284 286 286 285 284 285 283 284 281
308 308 309 309 309 308 308 308 307 307 303 291 281 284 286 283 285 284 284 286 286 288 288 287 287 289 288 285 285 284 287 287 287 289 288 289 282 285 282 285 286 284 286 286 286 286 285
307 308 309 309 309 308 308 308 307 307 300 292 292 288 287 285 282 280 280 286 287 288 290 291 291 288 287 289 292 292 292 290 290 288 285 284 284 280 278 284 284 279 284 286 287 288 287
308 308 309 309 309 309 308 307 307 307 303 298 295 293 288 281 282 283 286 286 286 288 287 291 291 289 293 294 292 292 289 289 290 289 291 286 284 282 278 282 273 286 294 293 289 289 291
309 309 309 309 308 309 308 307 307 307 307 299 298 294 290 284 284 285 287 287 287 291 290 290 291 293 291 288 284 282 286 288 289 290 290 289 286 282 279 278 283 286 290 290 289 288 294
308 308 308 308 307 306 306 307 307 307 307 303 299 298 293 287 283 289 285 286 283 285 289 289 292 292 289 283 282 279 276 284 284 287 293 292 288 284 282 277 276 286 290 294 294 285 298
307 307 306 305 305 305 305 305 306 306 307 304 300 299 295 287 289 289 287 286 288 288 286 290 289 287 286 281 280 279 281 286 281 281 283 286 286 281 281 279 284 289 290 292 286 285 298
306 305 304 304 304 303 303 304 306 305 306 303 301 300 296 291 292 294 292 288 288 288 286 289 288 286 284 282 282 282 282 285 284 286 285 284 283 282 283 281 278 291 289 287 293 299 299
304 303 302 302 302 303 303 303 304 305 305 305 298 301 301 294 292 297 297 298 296 294 291 292 289 290 289 287 285 285 279 285 285 281 289 281 286 284 284 283 291 293 291 295 296 298 299

GFSGBSN_sfc_thetae_045.txt.gz
Theta_e
311 311 311 311 310 310 309 309 309 309 310 310 311 311 311 311 311 312 312 312 313 313 313 313 312 313 306 297 296 304 313 309 308 305 302 308 302 300 298 302 306 305 306 309 312 313 313
310 310 311 310 310 310 310 310 310 309 309 310 310 311 311 311 311 312 312 313 313 312 312 313 313 312 301 291 304 307 307 308 305 303 301 304 306 303 300 300 301 306 307 307 309 312 313
311 310 310 310 310 309 309 310 310 310 310 310 310 310 310 311 311 312 313 313 313 313 315 313 312 309 299 297 307 309 308 307 305 304 300 301 302 304 301 297 302 302 300 302 306 309 309
310 310 310 309 309 309 309 309 310 309 310 310 310 310 310 310 311 312 313 313 313 315 316 314 313 307 297 307 310 308 308 306 306 306 303 303 301 299 302 303 300 297 298 294 302 302 305
309 309 309 309 309 309 309 309 309 309 309 310 310 310 309 310 311 312 312 313 314 314 315 315 308 303 297 309 304 308 309 303 304 304 303 303 301 297 299 295 293 296 291 294 297 303 302
309 309 309 309 309 309 309 309 309 309 309 309 309 309 308 309 311 311 311 312 313 315 313 311 309 297 300 298 303 304 307 306 301 300 299 298 297 293 294 293 286 290 291 294 294 300 301
308 309 308 308 308 308 308 308 309 309 309 309 309 308 308 309 310 310 308 305 300 299 300 295 296 295 297 302 305 302 304 301 300 298 292 294 290 287 291 294 295 294 293 293 296 301 300
307 308 308 308 308 307 307 308 308 308 308 308 308 308 308 309 309 310 306 300 300 301 294 299 298 298 300 301 296 300 303 295 294 290 293 290 286 291 293 293 292 292 291 291 295 298 298
308 308 308 308 307 307 307 308 308 307 307 308 307 308 308 308 309 306 303 302 306 301 293 295 298 297 299 300 295 296 299 296 292 290 290 288 290 293 292 291 290 291 290 291 291 295 298
308 308 308 308 308 308 308 308 308 308 307 307 307 307 308 307 303 303 301 306 306 302 288 289 293 297 299 299 293 301 301 297 293 289 290 290 294 289 289 288 291 287 293 293 292 291 288
308 308 308 309 309 309 308 308 308 308 308 308 307 307 307 306 302 301 303 306 303 299 276 290 293 303 300 294 295 296 303 297 291 291 291 289 290 289 287 289 291 289 293 292 291 290 289
309 309 309 309 309 309 309 309 309 309 309 308 308 308 307 304 303 305 305 303 301 286 276 286 293 292 292 294 294 296 296 300 300 294 294 293 297 293 290 292 292 293 291 292 292 289 283
309 309 309 309 309 309 308 308 309 309 308 308 307 307 305 304 301 304 304 299 285 280 289 286 287 291 290 289 290 291 290 290 289 285 286 290 291 294 294 288 291 290 288 281 280 280 280
309 309 309 309 309 308 308 307 307 308 308 307 307 303 306 306 307 306 300 291 279 282 285 291 290 290 287 289 289 289 289 287 293 290 286 284 282 291 293 291 287 288 287 283 276 278 282
308 308 308 309 308 308 307 307 307 307 307 306 304 304 304 306 306 303 296 285 283 285 289 288 289 285 285 288 288 288 288 287 291 292 284 283 283 291 294 294 292 287 284 290 284 285 283
308 308 308 308 308 308 307 307 307 308 307 305 300 301 303 305 305 302 293 286 287 290 292 291 284 287 283 286 286 287 286 291 290 293 294 289 282 290 290 294 293 290 292 283 284 278 277
308 309 309 309 308 308 307 307 307 308 306 304 300 300 304 304 304 297 288 287 289 294 294 290 287 286 287 286 287 286 286 290 293 292 294 291 287 285 290 287 287 288 287 287 288 285 281
309 309 310 310 309 309 308 307 306 307 305 303 297 294 304 303 295 289 288 288 292 292 295 292 292 290 288 288 286 286 285 289 295 294 288 292 288 283 285 291 293 291 288 289 284 282 285
309 309 309 310 310 309 309 308 307 307 305 300 293 294 303 300 288 287 289 289 291 291 291 291 289 291 292 288 284 288 288 293 294 293 290 292 286 280 282 288 291 288 289 290 289 289 285
308 309 309 310 310 309 309 308 308 307 306 301 295 290 294 294 292 288 285 286 287 292 292 293 291 292 289 288 290 287 288 292 294 294 297 295 287 284 279 283 287 285 287 289 289 284 285
308 308 308 309 309 310 309 308 308 307 305 297 291 289 290 287 287 287 288 287 285 286 292 292 290 290 288 284 285 285 289 290 293 295 294 292 284 287 287 288 288 287 287 288 286 288 284
308 308 308 309 310 310 310 309 307 307 304 295 290 289 292 288 288 288 288 287 287 288 288 287 287 289 290 286 287 284 287 288 288 292 290 293 285 287 284 287 287 285 287 288 288 288 288
308 309 309 309 309 309 309 309 307 307 304 296 294 293 291 288 287 286 287 287 287 288 290 292 290 289 288 290 293 293 294 293 291 289 288 288 286 284 280 286 286 282 287 288 289 291 290
309 309 309 309 308 308 307 308 307 307 304 299 297 294 288 285 286 287 287 288 287 289 287 291 293 290 295 298 296 296 293 292 291 290 291 287 286 285 281 283 274 287 296 294 292 294 296
309 308 308 308 306 305 305 306 306 306 307 301 299 295 290 285 288 288 288 288 289 290 289 290 294 297 298 293 289 288 289 290 290 290 289 289 286 283 279 279 283 287 290 290 288 289 297
308 307 307 306 305 305 305 305 305 306 307 305 301 300 294 287 288 290 287 288 286 287 289 292 296 299 295 291 288 282 282 285 285 288 294 293 288 284 284 279 277 287 291 293 291 285 298
307 306 305 303 303 303 303 302 304 305 306 305 303 301 296 288 291 291 287 287 290 289 286 290 292 293 294 288 283 281 282 288 283 283 284 286 287 282 282 281 285 290 292 292 283 288 295
304 303 302 302 302 303 303 302 303 304 305 305 301 303 296 291 293 295 295 291 290 289 284 291 290 292 291 287 285 285 283 286 285 288 287 285 284 284 285 282 280 295 291 285 290 293 294
302 301 301 301 301 301 301 302 302 303 302 304 298 304 302 294 293 300 300 300 298 296 291 292 291 291 292 289 289 288 285 287 286 282 292 285 288 285 284 286 294 295 292 296 296 296 298

GFSGBSN_sfc_thetae_048.txt.gz
Theta_e
311 311 311 311 311 310 310 311 311 311 311 311 311 311 312 312 312 312 313 313 314 314 313 314 314 313 311 301 300 308 313 313 312 309 304 305 306 304 301 305 308 308 310 313 315 315 315
311 311 311 311 310 310 310 310 310 310 310 310 311 310 311 311 312 312 313 314 314 314 313 314 314 313 306 297 308 311 312 312 311 308 304 303 304 307 303 303 304 308 309 310 312 312 314
310 310 310 310 310 310 310 310 310 310 310 310 311 310 310 311 311 312 313 314 314 314 315 315 313 312 305 301 310 313 313 311 311 309 305 306 305 304 306 302 306 305 302 306 310 312 310
310 310 310 310 310 310 310 310 310 310 310 310 311 311 310 310 311 312 313 314 313 315 317 315 314 311 302 310 313 311 312 310 311 311 308 308 307 302 302 307 304 300 301 297 305 308 310
309 309 309 309 309 309 309 309 309 310 310 310 310 310 309 310 311 312 312 312 313 315 316 315 312 308 299 310 305 309 310 306 308 308 308 307 304 300 299 297 297 299 294 297 300 307 307
309 309 309 309 309 308 308 309 309 309 309 309 310 310 309 309 310 311 311 313 315 316 314 313 312 304 304 300 305 307 310 308 305 304 303 302 300 297 296 294 288 293 295 297 297 304 305
309 309 309 309 309 309 308 309 309 309 309 309 309 309 309 309 310 310 312 311 306 304 305 300 300 299 301 306 308 304 306 305 304 301 296 300 294 291 294 296 296 296 296 296 300 303 302
309 309 309 309 309 309 309 309 309 309 309 309 309 309 309 309 309 310 311 304 304 305 298 302 302 301 304 305 299 302 305 299 298 294 297 295 291 296 296 295 294 294 294 295 299 301 302
309 309 309 309 309 309 310 310 310 310 310 309 309 308 308 308 309 310 308 306 311 309 298 297 301 300 301 303 298 299 302 300 296 293 294 292 294 297 294 293 291 292 291 293 294 299 302
310 310 310 310 310 310 310 310 310 310 310 310 309 308 308 308 306 311 307 310 312 310 293 292 296 300 301 302 296 303 303 300 296 292 294 293 296 294 293 292 293 289 294 294 294 295 291
310 310 310 309 310 309 309 309 309 309 309 309 309 308 309 307 309 308 309 313 312 307 283 292 295 304 302 297 297 297 304 300 294 294 294 291 293 292 292 292 294 291 295 294 295 294 294
310 310 310 310 310 310 309 309 308 309 308 309 309 308 307 307 311 311 312 312 307 291 278 289 295 295 295 297 296 298 299 301 301 296 296 295 299 296 295 296 296 296 293 293 294 293 287
310 309 310 310 310 309 309 308 309 309 309 309 308 307 308 311 307 312 313 306 291 285 292 289 291 295 294 292 293 294 293 293 291 288 288 292 293 297 298 293 296 293 290 283 282 283 284
310 309 310 310 310 309 309 308 307 308 308 308 307 304 307 313 315 313 309 297 284 287 289 294 294 294 290 292 292 293 292 290 294 293 289 286 283 292 294 294 290 290 289 284 279 281 284
309 310 310 310 310 309 309 308 308 307 307 307 305 314 314 313 314 312 302 290 289 290 292 291 293 289 289 291 292 292 292 290 292 294 287 286 285 294 294 295 296 291 286 292 286 288 286
310 310 310 310 311 310 309 309 308 308 308 306 307 311 309 312 314 308 298 288 291 294 294 294 288 290 287 290 289 290 290 292 292 294 297 291 285 292 293 294 296 294 295 285 286 279 280
309 310 310 310 310 310 310 310 309 308 307 305 308 304 308 311 311 303 293 291 292 296 296 292 290 289 290 288 290 289 288 293 294 294 296 293 290 289 292 287 288 289 288 288 289 286 282
309 309 309 309 310 310 310 309 309 307 306 305 305 297 308 309 298 299 292 291 293 294 297 294 295 293 290 291 289 289 288 291 296 296 291 294 291 286 288 292 295 293 290 291 284 284 287
309 308 309 309 310 310 309 309 309 307 306 301 298 299 309 306 293 291 293 292 293 293 293 292 291 294 294 291 286 290 291 295 296 294 292 295 289 283 286 290 293 290 291 293 293 291 287
309 308 309 310 310 310 310 309 309 307 306 302 297 294 301 301 299 291 289 291 290 295 294 295 293 294 293 291 293 288 290 293 296 295 297 296 290 286 282 286 290 287 290 291 291 287 287
308 308 309 310 310 310 310 309 308 307 306 302 298 295 296 293 297 293 293 291 289 289 294 295 292 292 289 287 289 288 291 292 295 297 297 294 287 290 290 291 291 290 289 291 290 291 287
308 309 310 310 310 310 309 309 308 307 306 302 296 294 297 294 295 293 291 290 289 290 291 290 289 290 290 287 288 286 289 291 289 295 294 295 287 289 287 291 290 288 290 291 291 291 291
308 309 309 309 309 307 307 306 308 307 306 300 301 295 292 292 292 291 293 290 290 292 293 294 293 290 290 293 297 297 297 296 294 291 290 291 289 286 283 288 288 285 289 291 292 293 292
309 309 309 308 307 306 306 306 306 306 306 302 299 298 290 287 290 289 290 291 289 292 290 294 295 292 296 302 301 301 300 298 296 294 294 288 288 287 283 285 277 288 295 295 294 295 297
308 308 308 307 305 304 305 305 305 306 305 303 306 296 291 285 290 291 291 289 291 293 293 295 296 299 302 299 294 293 293 293 294 296 294 291 286 284 283 283 287 290 292 290 288 289 297
307 307 306 304 303 303 303 304 304 304 306 307 306 306 295 289 292 293 290 292 288 288 292 295 300 303 300 295 293 287 286 287 288 290 296 294 289 285 286 281 279 289 293 296 293 284 295
305 304 303 302 302 303 303 303 303 303 304 305 303 308 300 289 292 295 290 289 291 291 288 291 293 296 300 292 288 285 286 291 286 285 286 289 289 283 285 283 287 293 296 294 283 288 294
303 302 302 301 301 301 302 302 302 303 303 302 302 308 300 293 294 296 297 293 293 291 286 292 292 296 295 291 290 289 287 289 287 290 289 287 286 285 287 284 282 296 293 286 294 294 295
301 301 300 300 300 300 301 301 302 302 303 303 298 306 308 297 294 302 302 302 299 298 293 292 292 293 294 291 292 293 288 290 288 285 295 288 290 287 286 287 296 297 294 295 296 295 296

GFSGBSN_sfc_thetae_051.txt.gz
Theta_e
311 311 312 311 311 311 311 311 311 311 311 311 312 312 312 312 312 313 313 314 315 316 315 315 316 315 315 307 304 313 315 319 316 311 307 305 307 306 303 305 308 307 310 313 315 315 316
311 311 311 311 311 311 311 311 311 311 311 311 311 311 311 312 312 312 313 314 315 314 315 316 317 315 313 301 311 313 313 313 312 311 309 307 304 307 306 306 305 308 309 310 313 314 315
311 311 311 310 310 310 310 310 311 311 311 311 311 311 311 311 311 312 314 314 314 314 315 317 316 315 310 303 312 314 314 311 312 310 307 310 308 304 306 304 309 307 303 306 308 311 311
310 310 310 310 310 310 310 310 310 310 310 310 311 311 310 311 311 312 312 313 313 314 317 318 315 316 305 311 314 311 312 310 312 312 310 311 310 306 303 304 303 301 303 298 305 308 310
310 310 310 310 310 310 310 310 310 310 311 310 311 311 310 310 311 311 312 312 314 316 316 316 315 311 303 311 307 309 310 307 308 310 310 310 308 303 303 297 295 297 295 298 301 307 307
310 310 310 310 310 311 311 310 311 311 311 311 311 311 310 310 311 311 311 311 316 316 317 317 313 306 307 301 306 308 311 308 305 306 305 304 304 299 299 296 289 292 294 297 298 304 306
311 311 311 311 312 311 311 312 311 311 311 311 311 311 310 310 310 311 311 315 310 309 309 302 302 301 302 307 309 306 307 305 306 303 298 302 297 295 297 299 298 297 295 294 299 304 303
311 311 312 312 312 311 311 311 311 311 311 311 310 309 310 309 310 310 312 307 306 308 299 306 304 303 305 306 300 304 307 300 300 296 299 297 294 298 299 298 296 295 293 294 298 301 302
312 312 312 311 311 311 311 311 311 311 311 311 310 309 309 310 310 311 310 308 313 312 301 301 303 302 302 304 300 301 304 301 298 295 295 293 295 299 297 295 294 294 292 293 294 298 301
311 312 311 311 311 311 310 310 310 310 310 310 310 310 310 309 307 313 310 312 314 312 296 296 298 301 303 303 299 304 305 301 298 294 295 295 298 295 295 293 295 290 296 295 294 292 289
311 311 311 311 310 309 309 310 310 310 310 310 310 310 309 306 313 310 311 315 314 310 287 296 298 306 303 299 300 300 305 302 295 295 295 293 294 293 293 294 296 293 297 295 294 292 292
311 311 311 311 311 310 310 310 310 310 309 309 310 309 308 309 314 313 315 315 310 295 285 292 297 297 297 300 299 301 300 304 302 296 297 296 300 298 295 297 297 299 295 295 294 292 285
310 310 311 311 311 311 310 309 310 310 309 309 310 308 308 314 311 315 315 309 294 289 296 292 293 297 296 296 296 296 296 295 293 289 289 293 294 296 299 294 298 296 293 284 282 283 283
310 311 311 311 311 311 311 310 310 309 309 309 308 306 311 315 317 315 312 301 289 292 292 297 296 296 294 295 295 295 295 293 296 294 291 287 285 293 297 294 293 293 290 285 277 280 285
310 311 311 311 310 311 311 310 309 309 308 307 306 315 315 317 317 314 304 293 293 293 295 294 295 293 292 294 295 294 294 293 294 296 289 287 287 296 297 298 296 293 290 295 287 288 284
310 310 310 310 310 310 310 310 310 309 308 307 309 311 312 315 318 310 300 293 294 296 297 296 290 293 290 292 292 293 292 295 293 296 298 293 286 294 295 299 299 295 298 287 288 279 278
311 309 309 310 310 310 310 311 310 309 307 306 309 304 311 314 313 304 295 294 295 298 298 294 293 292 292 291 293 292 291 294 296 296 297 295 291 290 294 293 292 291 291 290 291 288 281
310 310 309 310 310 310 310 310 310 309 306 306 307 300 311 309 300 301 295 294 294 296 299 297 297 295 292 293 291 292 290 293 298 298 292 296 292 287 289 295 297 296 294 292 285 284 288
310 309 310 310 310 310 310 310 310 308 306 305 302 302 311 309 295 296 297 295 296 296 297 295 294 296 296 292 289 293 294 297 298 296 293 296 291 284 287 290 294 291 294 294 293 292 287
310 309 310 310 311 310 309 309 309 308 306 306 302 297 303 306 303 295 295 294 293 297 296 297 296 297 295 292 295 292 292 296 298 297 299 297 292 286 284 286 288 287 292 293 291 284 288
310 310 310 310 310 310 308 308 308 308 306 307 304 300 300 295 296 297 298 297 292 292 297 298 295 294 293 289 291 291 293 295 297 299 297 295 289 291 292 291 291 291 291 291 291 292 288
309 309 310 310 310 308 308 307 307 307 305 304 298 297 299 296 298 296 295 294 292 293 294 293 294 295 295 289 290 289 292 293 292 298 296 298 288 291 288 292 292 289 292 292 292 292 291
309 309 309 309 307 306 306 307 307 306 305 300 300 301 297 294 296 295 295 295 294 295 295 296 295 295 294 295 297 297 299 299 297 294 294 291 291 289 284 289 289 285 290 292 293 294 293
309 309 308 308 306 304 304 305 305 305 305 303 302 303 293 292 294 294 294 295 293 293 292 297 298 297 300 303 303 303 302 301 300 298 298 290 289 289 286 287 279 291 297 295 294 295 297
308 307 307 305 303 303 303 304 305 305 306 304 306 302 295 289 293 294 295 294 295 297 295 296 298 302 304 301 295 294 295 292 297 299 297 297 289 286 285 284 288 291 292 292 291 291 298
307 305 304 303 303 303 303 303 303 304 305 305 305 308 301 290 295 296 294 295 291 291 295 297 302 305 304 297 294 289 287 290 290 292 300 296 292 287 287 281 279 289 295 297 296 286 295
304 303 302 302 302 302 302 302 303 303 303 304 303 310 301 293 298 297 292 291 294 293 290 296 296 298 302 294 291 288 289 293 288 288 289 291 291 285 285 284 288 293 296 296 285 289 296
303 302 301 301 301 301 301 302 302 302 303 303 302 306 301 295 298 300 301 295 294 294 289 295 294 296 296 291 291 291 290 292 291 292 291 289 287 287 288 285 282 298 294 287 294 296 296
302 301 300 300 300 300 301 301 301 301 302 303 299 305 310 299 298 304 303 303 300 299 296 295 294 293 296 294 293 294 291 294 292 286 297 289 293 289 289 290 299 300 297 298 299 297 297

GFSGBSN_sfc_thetae_054.txt.gz
Theta_e
312 312 312 312 311 311 311 311 311 311 311 311 312 312 312 312 312 313 313 314 315 315 316 316 317 318 315 310 305 315 327 322 317 315 309 306 303 304 301 303 304 302 305 309 311 313 314
311 311 311 311 311 311 311 311 311 311 312 311 311 311 311 312 312 312 313 314 314 314 315 316 317 318 312 305 311 313 313 313 312 310 309 308 305 305 301 302 303 305 305 306 308 309 312
311 311 311 311 311 311 311 312 312 312 312 312 312 311 311 311 311 312 313 313 314 314 315 316 318 315 311 306 312 313 313 311 312 311 307 309 309 305 304 300 305 304 301 304 305 306 307
312 312 311 311 312 312 312 312 312 312 312 313 313 312 311 311 311 312 313 313 313 314 317 317 319 314 308 311 313 311 311 309 312 311 309 310 310 305 302 304 301 298 300 296 303 305 307
312 312 312 312 312 312 312 312 312 313 312 312 312 312 311 311 311 312 312 312 313 316 318 317 314 314 304 312 307 309 310 306 307 308 309 310 307 302 302 297 294 296 290 293 297 305 304
312 313 313 313 313 313 312 312 312 312 312 312 312 312 310 310 311 311 311 311 316 316 317 318 315 305 309 303 307 307 310 308 305 305 305 305 303 299 299 296 288 291 292 294 294 299 302
312 313 312 312 312 311 311 311 311 311 311 312 312 311 311 311 311 311 311 314 309 309 312 305 303 303 304 307 309 306 308 305 305 303 297 301 296 293 297 299 299 296 295 294 297 300 298
312 312 312 311 311 310 310 310 310 310 311 311 311 311 311 311 311 311 310 309 306 308 300 306 306 305 306 306 300 305 308 300 300 295 298 296 293 298 299 299 297 296 293 292 296 299 298
312 312 312 311 310 310 310 311 311 311 311 311 311 311 311 311 311 309 312 308 313 312 300 303 304 302 303 305 300 301 304 301 297 294 295 292 295 298 296 295 294 294 292 293 292 296 297
311 311 311 310 311 311 311 311 311 311 311 311 310 310 310 310 307 311 310 314 314 313 295 297 299 302 303 303 299 305 306 301 297 293 295 294 297 295 294 293 294 290 296 295 293 291 287
311 311 312 312 311 311 311 312 312 311 311 310 310 310 310 309 309 310 310 315 314 310 286 298 299 307 304 300 301 302 306 301 295 295 295 292 294 294 293 293 296 292 297 294 294 292 291
311 311 312 312 311 311 311 311 311 311 311 310 310 310 310 313 312 313 314 315 312 295 285 294 299 297 298 300 300 301 301 304 302 296 297 295 300 298 296 298 298 298 295 294 294 292 284
310 311 312 311 311 311 310 310 311 311 310 310 310 309 307 313 309 314 314 309 294 289 297 294 295 298 296 296 297 297 296 295 293 289 289 293 293 297 299 294 297 295 291 283 281 283 283
311 311 311 311 310 310 310 310 310 310 310 309 307 307 312 313 316 315 310 301 289 295 294 298 297 296 294 296 296 296 295 292 297 294 290 286 284 292 297 293 290 291 291 284 276 279 283
311 311 311 310 310 310 310 310 310 309 309 308 306 315 314 317 316 313 303 293 293 294 296 294 295 293 293 295 295 295 294 293 295 296 288 287 287 296 296 296 296 292 288 294 287 288 284
311 311 310 310 310 311 310 310 310 310 309 307 307 311 312 315 316 308 299 294 295 298 297 296 290 294 290 292 292 292 292 296 294 297 297 292 286 293 295 297 297 295 297 288 289 279 278
311 311 310 310 310 310 310 310 310 309 308 306 309 306 313 314 312 304 296 295 297 299 297 295 293 292 292 291 293 291 292 295 298 296 298 295 291 289 293 291 290 291 291 291 291 287 280
310 310 310 310 310 310 310 309 308 308 306 307 308 300 313 312 300 302 296 296 296 296 300 298 298 295 293 293 291 291 291 294 299 298 292 295 291 286 288 295 297 295 291 291 284 284 288
310 310 310 310 310 310 309 308 308 307 306 305 303 304 313 310 297 296 298 298 299 296 297 296 295 297 297 293 290 293 294 299 299 297 294 296 289 283 285 290 292 289 292 293 293 292 286
310 310 310 310 310 309 308 308 307 307 306 306 304 298 304 304 305 298 296 296 295 299 297 298 296 297 295 293 295 292 293 296 299 297 301 299 291 286 282 286 291 287 290 293 292 286 287
309 310 310 310 310 308 307 307 307 306 305 307 304 300 302 295 296 297 298 297 295 294 298 298 295 296 294 290 291 291 294 295 297 300 298 296 289 290 291 292 292 290 290 291 290 291 286
309 310 310 309 308 307 306 306 306 306 305 306 298 297 299 296 298 297 298 296 296 295 296 294 293 295 295 291 292 291 294 294 293 297 296 298 289 291 288 292 292 289 291 292 292 291 290
309 309 309 308 307 305 304 305 306 306 306 303 303 304 297 294 297 295 296 295 295 297 296 297 296 295 293 295 299 299 299 299 298 295 295 294 291 288 284 290 290 285 290 291 293 295 294
309 309 307 306 304 304 304 304 305 305 305 305 304 302 295 291 293 293 294 296 294 296 294 296 298 295 299 304 303 302 301 300 299 298 300 293 291 288 285 288 279 291 296 295 293 294 297
309 307 305 304 303 303 303 303 303 304 304 303 305 301 297 290 293 294 296 295 296 297 296 297 298 301 304 300 294 292 295 293 296 297 298 299 291 286 284 284 287 290 292 292 291 290 297
307 305 304 303 302 302 302 302 302 303 304 303 304 307 302 292 293 295 294 296 293 292 294 297 301 305 302 297 293 287 286 290 289 293 300 298 292 287 286 281 279 288 293 297 295 286 295
305 304 303 302 301 302 301 302 302 303 303 302 301 310 302 293 297 298 294 294 296 294 289 294 297 297 303 294 290 288 288 294 288 288 289 292 290 284 286 284 287 291 297 297 284 287 294
304 303 302 301 301 301 301 301 301 301 302 302 301 307 301 295 296 298 299 297 297 295 289 295 294 294 296 291 291 291 290 292 291 293 291 290 288 288 289 285 282 297 296 287 293 296 296
303 302 301 301 300 301 301 301 302 302 302 302 297 304 306 300 297 302 303 303 302 301 297 296 294 293 294 293 293 293 290 293 291 286 297 290 294 289 289 292 300 302 298 299 299 297 298

GFSGBSN_sfc_thetae_057.txt.gz
Theta_e
312 312 312 312 312 312 312 312 312 312 312 312 312 312 312 312 312 312 313 313 314 315 315 315 316 317 312 305 305 312 329 330 321 314 309 305 298 296 294 297 299 297 300 302 306 307 308
312 312 313 313 313 312 312 312 312 312 312 313 313 312 312 312 312 312 313 313 313 314 314 315 316 318 308 302 307 313 320 313 312 307 305 303 299 301 296 295 294 298 299 301 303 303 305
313 313 313 313 312 312 312 312 312 312 312 312 313 313 312 312 312 312 312 313 313 313 314 317 317 315 306 304 307 308 307 302 307 309 305 305 305 300 299 295 298 298 294 297 300 301 300
314 313 313 313 313 312 311 312 312 312 312 312 312 313 312 312 311 312 312 313 313 313 315 318 318 311 303 309 306 305 305 305 308 306 305 305 306 300 296 298 296 293 292 287 295 300 302
313 313 313 313 312 311 311 311 311 311 312 312 311 311 312 311 312 312 312 312 313 314 316 318 310 306 302 312 306 306 304 304 305 305 305 308 302 297 297 291 287 289 284 287 291 297 298
313 313 313 312 312 311 311 312 312 311 311 311 312 312 310 310 312 312 312 312 313 315 315 315 312 303 305 303 306 306 307 307 303 302 302 301 296 292 291 288 281 285 286 289 289 293 294
312 312 312 312 311 311 312 312 311 312 312 312 312 312 311 310 312 311 308 305 302 303 305 304 305 305 303 306 308 304 308 305 303 299 292 296 289 285 290 292 294 293 291 290 293 296 293
312 312 312 312 311 311 312 312 312 312 312 312 312 312 312 311 311 311 305 301 302 301 295 304 304 303 306 306 299 303 307 299 296 291 294 290 286 293 295 295 293 291 289 289 293 296 294
311 312 311 311 311 312 312 312 312 312 312 312 311 311 311 311 311 306 304 306 308 307 294 300 304 302 301 302 299 300 304 299 294 291 290 287 291 296 294 292 290 290 288 289 289 293 294
311 311 311 311 310 311 312 312 312 312 312 312 311 311 311 310 306 307 305 308 308 307 288 296 297 300 301 300 297 305 305 299 294 290 291 290 294 294 292 292 292 287 293 293 291 288 282
311 311 310 311 311 311 311 311 312 312 312 311 311 311 310 309 303 303 305 308 308 304 281 297 297 305 301 297 299 301 304 299 292 292 291 289 291 291 290 292 295 290 295 292 291 288 286
311 311 311 309 311 311 311 311 311 311 311 311 311 311 309 310 305 307 309 307 305 290 282 293 298 296 295 298 299 301 300 301 299 293 293 292 297 295 293 296 296 297 291 290 289 285 280
312 312 312 309 311 311 311 310 311 311 311 311 311 310 307 309 305 311 308 303 288 284 297 292 293 296 294 294 296 297 295 291 288 286 285 290 290 294 298 292 294 290 285 276 276 276 277
312 311 309 309 311 311 311 310 310 310 310 310 309 307 310 310 310 310 304 294 284 294 292 296 294 294 291 295 295 295 293 289 295 292 286 283 282 292 296 292 288 288 285 279 273 274 278
311 311 310 311 311 311 310 310 309 308 308 308 307 309 309 312 313 309 297 286 288 292 294 292 293 290 291 293 292 292 290 290 293 293 285 284 284 295 295 295 292 287 283 289 283 284 279
311 311 311 311 311 311 310 309 308 308 308 307 302 306 307 311 311 303 293 291 294 296 295 293 287 292 287 289 289 289 289 294 294 296 294 290 283 292 293 295 293 290 292 282 283 277 275
309 310 311 310 310 310 309 308 308 308 307 306 302 302 308 309 308 298 288 293 296 298 297 293 291 290 290 289 290 288 289 293 296 294 294 290 286 287 291 288 287 287 287 286 288 283 277
310 310 310 311 310 310 308 307 308 307 305 304 302 295 308 307 293 297 293 295 298 297 299 296 296 293 290 292 289 289 289 293 298 297 290 292 287 282 285 292 294 291 289 288 282 279 285
310 310 310 310 310 309 307 307 307 306 305 300 299 300 309 306 290 290 295 296 297 296 296 294 293 294 294 290 287 292 292 298 298 295 293 291 284 279 282 286 291 287 290 289 288 285 282
310 310 310 310 310 308 306 306 306 305 305 302 300 295 300 301 299 292 291 292 293 300 297 297 295 295 293 291 292 290 291 295 297 296 301 297 287 283 279 283 287 285 288 290 288 282 283
309 310 310 310 309 307 306 306 306 305 305 302 300 296 296 290 292 292 293 294 293 293 297 296 293 293 290 287 289 287 291 293 296 300 295 294 285 289 289 291 291 289 289 289 287 288 284
309 310 309 308 306 305 305 305 306 305 304 303 294 292 294 291 295 293 294 293 292 293 293 292 290 293 292 287 289 288 291 290 289 293 290 293 287 289 287 290 290 288 290 291 290 291 290
309 309 308 306 305 304 304 305 305 305 304 299 300 300 295 292 292 290 289 290 291 294 295 296 293 291 290 292 295 295 295 295 293 291 291 291 287 283 281 288 288 282 289 291 291 292 291
309 309 307 305 304 303 303 303 304 304 304 300 301 300 293 287 290 290 291 293 292 292 289 294 295 292 296 300 299 297 296 296 295 295 295 290 288 286 281 283 273 289 294 294 291 292 293
309 307 305 304 303 303 303 302 303 303 304 298 299 299 295 287 291 291 292 291 293 294 292 292 295 297 299 295 290 288 288 290 294 296 296 294 290 285 281 277 284 288 291 289 288 287 294
308 306 305 303 302 302 302 302 302 302 303 299 298 301 298 291 288 294 290 293 289 288 290 292 295 299 296 292 289 283 280 287 287 292 297 297 292 286 285 279 272 288 293 296 295 283 294
307 305 304 303 302 302 302 302 302 301 301 298 297 300 297 291 293 294 289 289 291 290 289 291 292 291 296 290 286 283 285 292 284 284 287 287 287 283 283 281 284 292 294 298 281 283 292
306 304 303 302 301 301 301 301 301 301 301 299 296 299 296 292 293 296 296 292 292 292 289 291 289 291 289 287 287 288 286 289 286 290 287 284 285 283 283 280 275 296 295 286 291 294 296
305 303 302 301 301 301 301 301 301 301 302 302 294 300 301 294 293 298 298 298 296 295 293 294 291 291 292 288 289 289 285 287 287 280 292 282 289 287 287 286 296 298 295 297 297 295 297

GFSGBSN_sfc_thetae_060.txt.gz
Theta_e
313 314 314 314 313 313 313 313 313 312 312 312 312 313 313 313 313 313 313 313 313 314 314 315 316 316 310 304 304 313 331 330 323 314 308 304 298 292 291 294 295 294 297 299 301 302 304
314 314 314 313 313 312 312 312 312 312 312 312 312 312 312 312 312 312 312 313 313 313 313 315 317 317 307 299 311 311 320 319 315 308 305 303 297 298 294 293 292 294 295 296 298 299 300
314 314 313 313 312 312 311 312 311 311 312 313 312 312 311 311 311 312 313 313 312 313 314 315 317 314 303 299 311 306 313 307 305 308 303 303 302 298 296 293 296 296 291 294 296 297 297
313 313 313 313 312 311 311 312 312 313 313 313 313 312 312 312 311 311 312 313 312 313 314 316 318 309 298 313 310 302 302 303 305 306 304 303 303 298 294 294 294 292 289 284 293 296 298
313 313 313 313 312 311 311 312 312 312 312 314 313 313 313 311 311 312 311 312 313 314 316 316 308 304 301 315 304 304 301 301 304 304 303 306 301 295 295 289 285 286 283 286 289 295 295
313 313 313 313 312 312 311 313 313 312 312 312 313 313 312 312 311 311 310 311 312 313 314 314 311 301 304 303 304 305 304 304 301 300 299 299 293 290 288 286 281 284 284 286 287 293 293
312 313 312 312 312 311 311 312 312 312 312 313 313 313 312 312 311 311 307 302 296 298 303 301 304 304 306 305 307 303 305 303 301 296 289 293 286 283 287 290 292 291 288 286 290 295 292
312 312 311 311 311 310 311 312 312 311 312 313 313 313 312 312 312 310 302 299 300 300 293 303 303 303 305 305 298 302 305 297 295 289 291 288 284 290 293 292 290 289 286 285 290 293 292
311 311 311 310 310 311 312 312 312 311 312 312 312 312 311 311 310 305 300 305 306 303 291 299 303 302 302 301 298 298 302 298 292 288 288 285 289 294 292 290 290 287 286 287 288 292 291
311 312 312 310 310 310 312 312 312 311 312 311 311 311 311 311 303 301 301 307 304 302 288 296 296 299 300 298 295 303 303 298 292 288 289 288 292 292 290 290 291 285 293 292 290 287 280
312 312 311 310 310 311 311 312 311 312 311 310 310 311 311 310 299 298 304 304 304 302 278 296 296 302 299 295 297 299 303 297 291 291 290 287 289 288 288 291 293 289 294 290 290 286 283
312 312 311 310 311 311 311 310 311 310 310 309 310 310 310 305 301 303 306 303 303 288 280 292 296 295 293 295 297 298 297 299 297 291 290 290 294 292 292 295 295 294 289 288 287 283 277
312 311 311 310 311 311 311 310 310 309 309 309 309 310 308 307 300 305 303 300 287 282 296 290 291 294 292 292 294 296 294 290 286 283 283 288 288 294 297 290 291 288 283 275 274 275 276
311 311 311 311 311 311 310 309 308 308 308 308 307 307 306 307 304 306 299 292 283 291 290 295 293 293 289 293 292 293 291 287 293 290 284 281 280 290 295 290 286 285 284 276 274 274 277
309 310 311 311 311 310 310 308 307 307 307 306 306 302 305 308 310 302 295 284 284 289 292 291 291 289 289 292 291 290 288 289 292 291 283 282 283 293 294 294 290 284 282 286 280 282 277
309 310 310 311 310 311 309 308 307 307 306 306 298 300 303 308 305 299 291 289 292 295 295 293 286 291 286 288 288 288 289 294 293 295 291 288 281 290 293 293 292 288 290 280 279 274 273
310 310 310 310 310 310 309 307 307 307 306 305 298 297 305 304 303 296 285 290 295 298 297 293 290 288 289 287 287 287 289 293 296 294 292 288 284 285 289 286 285 285 283 284 283 281 273
310 310 310 310 310 309 307 306 306 306 305 301 295 292 305 302 291 291 288 292 296 296 298 295 294 292 289 289 287 287 288 291 297 295 289 290 285 280 284 291 293 289 287 286 277 277 283
310 310 310 310 309 308 306 306 306 306 305 299 293 295 304 302 285 285 291 293 296 295 295 293 291 293 292 288 285 290 291 296 296 294 290 290 283 279 281 284 289 288 288 288 288 286 281
309 310 310 310 308 306 305 305 305 305 304 297 294 289 293 295 292 287 287 289 292 299 296 295 293 293 290 287 290 289 290 295 296 295 301 296 285 283 278 282 285 284 287 289 287 281 282
309 309 310 308 306 305 305 305 305 304 304 298 293 289 290 284 287 288 288 290 290 290 294 293 291 291 288 283 286 287 289 292 294 297 294 290 285 286 288 289 290 289 288 289 287 287 283
309 309 309 307 305 304 304 305 305 304 304 295 288 288 289 287 289 288 289 287 288 291 290 289 288 291 289 284 286 285 289 288 288 292 289 289 283 287 285 290 289 286 288 291 290 291 289
309 309 308 306 305 303 303 303 304 304 301 292 294 294 290 287 287 285 284 288 289 291 292 293 290 288 287 289 293 293 293 293 292 289 288 286 284 282 281 287 287 282 288 289 290 292 290
309 309 307 305 304 303 303 303 302 303 301 292 294 293 287 282 287 287 290 289 289 290 288 292 291 287 293 297 296 294 293 294 293 292 292 286 286 286 283 282 274 287 293 293 290 291 292
308 308 306 305 303 303 302 302 302 302 302 292 293 290 290 282 287 288 289 288 289 290 289 290 292 292 293 291 287 284 288 288 293 295 292 292 287 285 281 280 284 288 291 289 288 287 294
308 308 306 304 303 302 302 302 302 302 302 292 293 293 291 289 285 292 288 288 284 283 286 290 294 294 291 289 286 280 280 286 286 290 297 294 292 286 284 278 270 283 292 295 295 283 293
308 307 305 304 302 302 302 302 302 301 302 296 292 293 290 285 290 289 285 285 287 284 282 288 289 288 291 287 285 282 283 290 285 285 285 287 286 283 282 280 284 291 294 297 282 283 292
308 307 305 303 302 302 302 302 302 302 301 298 292 294 290 289 290 292 292 288 288 286 283 287 288 287 285 286 287 287 284 287 285 288 286 283 279 282 284 281 277 295 294 288 291 293 292
307 306 304 302 302 301 301 301 302 302 301 301 292 295 296 290 289 294 294 295 293 292 289 289 290 290 291 287 288 286 282 284 285 279 290 281 285 285 286 281 291 295 294 296 294 293 295

GFSGBSN_sfc_thetae_063.txt.gz
Theta_e
314 314 314 313 312 312 312 312 312 312 312 312 312 311 311 311 312 312 311 312 313 313 313 314 315 317 309 302 304 314 330 329 321 314 306 302 296 292 287 290 293 291 295 298 299 299 299
314 314 314 313 312 312 311 312 312 313 312 312 313 313 313 313 312 312 311 311 312 312 313 314 316 317 305 295 310 314 317 317 318 310 305 303 297 296 292 291 290 293 294 295 296 296 298
314 313 313 313 313 312 311 312 312 313 313 313 312 312 313 312 312 311 312 312 312 312 313 314 316 314 301 294 310 310 314 309 308 309 303 302 300 296 294 291 293 293 289 292 294 296 296
313 313 313 313 313 312 311 312 312 312 312 312 312 312 312 312 311 311 312 312 312 313 314 315 317 308 295 309 310 305 303 304 303 307 304 304 300 295 293 292 293 289 288 283 291 295 296
313 313 312 312 312 312 311 311 312 312 312 312 312 312 312 311 311 311 311 311 312 314 315 315 307 302 300 314 304 306 301 300 301 302 301 305 299 294 294 287 285 285 281 284 289 294 293
312 313 312 312 311 311 311 312 312 311 312 312 312 312 311 312 311 311 311 311 311 312 314 315 311 299 302 302 304 303 302 302 300 299 298 296 291 288 286 285 279 282 283 285 286 291 293
312 312 312 311 311 311 311 311 311 311 311 312 312 312 311 311 311 311 306 300 295 295 303 297 302 302 306 307 305 301 304 301 300 295 288 291 285 282 286 288 289 288 286 285 288 292 289
312 312 311 311 310 310 311 311 311 311 311 312 311 312 311 311 312 311 302 299 300 298 293 300 300 303 307 306 298 300 303 295 293 287 289 287 282 289 291 290 289 287 284 284 288 292 290
311 312 311 310 310 311 311 312 311 310 311 311 310 311 310 311 310 303 298 301 305 299 290 296 301 300 300 301 296 297 300 296 291 287 286 284 288 292 291 289 288 286 286 286 286 291 290
312 312 311 309 310 311 311 312 311 310 310 310 310 310 309 310 301 298 299 304 303 300 287 294 295 299 299 296 294 302 302 297 290 287 287 286 290 290 288 287 289 284 291 290 288 285 279
312 312 312 310 311 311 311 311 310 309 309 309 309 310 309 309 298 299 304 303 301 301 276 296 294 301 297 293 296 298 301 295 290 289 288 287 288 287 286 289 292 287 292 288 288 284 281
311 311 311 311 311 311 310 310 309 308 308 308 309 309 309 304 299 303 304 301 301 286 279 291 295 294 292 294 295 297 296 297 295 289 289 288 292 290 290 293 293 293 288 286 284 281 275
309 310 311 311 311 311 310 309 308 308 308 308 308 308 306 306 299 301 302 299 286 280 293 289 289 291 290 291 293 294 292 289 286 282 282 287 287 293 295 288 290 287 281 273 273 274 275
309 310 311 311 310 310 310 309 307 307 307 308 307 306 306 306 301 303 298 292 282 289 287 293 291 290 288 291 291 292 289 286 292 288 284 281 279 289 293 289 285 284 282 275 272 273 275
309 310 311 310 310 310 309 307 306 306 306 306 305 300 302 306 307 299 294 284 282 287 291 290 290 287 287 291 289 289 287 288 291 289 282 281 282 292 293 292 289 283 280 284 278 279 275
310 310 310 309 310 309 308 306 306 306 306 306 296 299 301 306 302 299 290 288 290 296 294 292 285 289 284 286 286 286 286 292 291 293 291 287 280 289 292 292 290 286 288 279 278 274 272
309 310 310 310 310 308 307 306 306 306 305 305 298 296 303 301 303 295 284 288 294 297 296 291 288 287 287 286 286 285 287 291 294 292 292 288 284 285 288 285 283 283 281 282 281 277 272
309 310 310 310 309 307 306 306 306 305 304 302 294 290 303 301 291 287 286 291 296 295 297 294 292 291 288 288 286 286 286 290 296 294 288 289 284 280 283 290 291 287 284 284 276 275 280
309 309 310 310 307 307 305 305 305 305 304 299 293 293 302 299 284 283 288 291 294 294 294 292 290 291 290 286 282 288 290 295 294 293 290 289 282 279 280 283 287 285 287 287 286 283 281
309 309 310 308 306 306 305 305 305 304 303 298 292 288 291 292 290 286 286 288 290 296 294 294 292 291 288 286 287 286 289 294 295 293 300 295 284 283 279 281 282 283 287 289 288 282 281
308 309 310 308 306 305 304 305 304 303 303 296 290 286 288 282 285 285 287 288 288 288 292 292 289 289 287 282 284 284 288 289 293 295 292 291 282 284 286 288 288 287 287 288 286 287 283
308 308 309 307 305 304 303 303 304 303 303 294 288 286 288 285 287 287 287 286 287 289 289 287 285 289 287 283 285 283 285 286 286 290 287 287 282 285 284 288 288 286 288 288 288 289 289
308 309 308 307 305 304 303 303 303 304 299 291 293 292 288 285 285 283 283 287 287 289 290 291 289 286 285 288 291 291 291 291 291 288 285 285 283 280 279 286 285 281 286 288 290 291 289
307 309 308 306 305 304 303 303 302 303 299 291 292 291 287 283 284 285 288 289 287 288 286 290 290 286 290 293 292 291 290 290 291 291 291 284 284 285 281 285 273 286 292 292 289 290 291
307 308 308 307 305 303 303 302 302 302 302 292 292 290 289 285 286 287 288 287 287 288 286 288 289 291 291 289 284 283 284 285 291 293 291 290 286 284 282 277 282 287 290 288 286 286 292
307 308 308 306 305 303 302 302 302 301 302 292 290 292 289 286 283 290 287 287 283 281 283 287 291 293 289 286 286 282 279 285 285 289 296 293 291 285 284 279 271 281 291 294 293 283 293
307 307 308 306 304 303 302 302 302 302 302 295 291 292 289 287 288 288 284 284 286 282 280 284 289 287 293 287 284 279 281 289 284 284 285 285 287 283 282 280 281 290 293 295 282 283 291
307 307 308 306 304 303 302 302 302 302 301 298 292 292 291 288 289 290 290 286 285 284 283 284 283 285 283 280 285 286 284 287 282 286 284 281 281 282 282 280 275 293 293 288 291 293 292
306 307 307 305 304 302 302 302 301 302 301 301 290 294 294 291 289 292 293 293 292 290 286 284 283 285 288 281 283 284 278 281 282 278 288 279 284 280 283 280 288 293 292 297 299 296 295

GFSGBSN_sfc_thetae_069.txt.gz
Theta_e
314 314 314 314 313 312 312 312 312 313 312 313 313 313 313 313 312 312 312 311 311 311 312 313 314 314 312 304 305 315 328 325 318 312 307 305 301 299 296 297 298 297 298 300 302 302 301
314 314 313 313 312 312 312 312 313 313 313 312 312 312 312 313 312 312 312 311 310 310 311 313 314 315 307 297 310 315 321 318 315 311 307 307 302 302 298 298 297 298 298 299 300 301 301
313 313 312 312 312 312 312 312 312 312 312 313 312 312 312 312 312 312 311 311 312 311 312 313 314 314 304 299 311 313 317 313 316 312 305 308 307 301 300 296 299 298 295 297 298 299 299
312 312 312 313 312 311 311 311 311 312 311 311 310 310 310 311 311 312 312 311 311 313 313 314 315 312 301 306 312 313 312 310 312 314 310 308 306 302 300 300 297 294 294 290 296 297 298
312 312 312 312 312 312 311 311 311 311 310 311 311 310 310 311 311 311 311 312 313 313 314 316 312 307 302 316 308 308 308 303 304 305 307 306 304 299 299 295 293 293 288 289 292 298 297
313 313 312 312 311 311 311 311 311 310 310 310 310 309 310 310 311 310 311 310 313 317 315 315 312 303 306 304 309 308 307 304 302 302 300 300 299 296 295 294 287 287 288 290 290 294 297
312 312 312 311 312 312 311 310 311 310 310 310 310 309 310 310 310 310 309 307 303 301 308 300 301 301 303 309 309 304 305 303 302 299 294 295 294 291 292 293 293 291 290 289 292 295 295
312 311 312 311 311 311 311 311 311 310 309 309 309 309 309 309 310 311 306 305 303 304 297 302 302 303 306 307 300 303 306 299 297 293 294 293 290 294 294 293 291 291 290 289 293 295 294
311 311 311 311 311 310 311 311 310 309 308 308 308 309 309 309 310 306 304 305 308 304 297 299 301 301 302 305 299 300 302 299 296 292 292 290 291 294 292 292 291 291 290 290 290 293 294
311 311 311 310 309 311 310 310 308 308 307 308 308 308 309 308 306 305 305 308 307 305 293 294 297 301 302 302 296 304 304 300 295 292 292 292 294 292 292 291 292 288 293 292 290 289 285
310 311 311 310 310 311 309 308 307 307 307 308 308 309 309 308 305 305 307 308 307 306 282 296 296 304 300 297 298 299 303 299 295 293 293 291 291 291 290 291 294 290 294 292 291 289 287
310 310 310 311 311 310 309 308 307 307 308 308 309 309 308 307 306 308 307 307 308 293 282 292 296 295 296 297 297 299 298 300 298 294 293 293 295 294 293 295 295 294 292 291 289 288 281
310 310 310 311 311 310 309 307 307 307 307 308 308 309 307 306 304 306 307 306 293 286 293 290 291 293 292 293 294 295 294 293 291 287 288 291 292 296 296 292 293 293 289 282 280 280 280
309 310 310 310 311 309 308 307 307 307 307 307 307 307 308 308 310 308 306 299 287 290 289 294 292 292 290 293 293 293 292 291 294 292 289 287 285 292 296 293 290 290 288 282 274 277 281
309 309 310 311 310 308 308 307 306 306 306 306 305 309 309 310 308 306 302 291 290 289 292 291 292 289 290 292 292 291 291 291 294 295 288 287 286 294 295 295 294 289 286 290 284 285 281
309 309 310 310 310 309 308 307 307 306 305 305 306 306 308 307 307 305 297 291 292 296 295 294 287 290 287 289 289 290 290 293 293 296 297 291 285 292 294 295 294 292 293 284 286 277 276
308 309 310 310 310 308 307 306 306 306 304 304 305 304 308 306 308 301 293 292 295 299 296 293 291 289 290 289 290 289 289 292 295 295 296 293 290 288 292 290 288 289 288 288 288 286 279
308 308 309 310 309 308 307 306 306 305 303 303 303 298 307 306 298 292 292 292 295 295 298 296 294 293 291 291 289 289 289 292 297 297 292 295 291 285 288 294 294 292 290 290 284 281 285
307 308 309 310 309 307 306 306 306 305 303 301 298 299 307 306 293 291 292 292 293 293 295 294 292 293 293 291 288 290 291 296 296 296 294 295 289 283 284 288 291 288 290 291 290 289 283
307 307 308 310 308 307 306 305 305 304 303 301 297 293 296 297 294 290 288 288 290 296 294 294 293 294 291 290 292 289 290 294 295 296 298 298 291 287 282 285 288 286 288 290 290 284 285
306 306 308 309 308 306 305 305 305 304 303 299 294 291 292 288 289 290 289 289 288 288 293 293 291 290 288 286 287 288 291 291 293 295 295 294 286 289 289 290 290 289 288 289 288 289 284
306 306 307 309 308 306 305 304 304 304 302 297 293 291 292 291 290 289 289 288 288 289 289 288 288 289 289 286 288 286 288 289 288 292 293 295 286 289 286 289 289 287 289 290 290 290 289
306 305 307 308 308 306 305 304 303 303 300 296 296 296 294 288 288 288 287 288 289 289 289 292 290 288 287 289 292 293 293 293 292 290 289 290 287 286 282 287 287 283 287 289 290 292 291
306 305 306 308 308 306 304 303 303 303 299 296 294 294 292 285 287 287 287 288 287 288 287 290 292 289 291 295 295 294 293 292 292 291 292 287 286 287 282 284 276 287 294 294 292 293 295
306 305 306 307 309 306 304 303 303 303 301 297 295 294 292 286 288 286 288 289 290 290 288 289 291 293 295 292 288 287 288 289 289 289 289 290 287 283 280 280 285 288 292 292 291 291 296
305 305 305 306 308 307 305 303 302 302 301 297 295 296 293 288 286 289 287 288 285 286 287 288 293 296 294 291 288 282 281 284 286 289 292 291 289 285 284 279 278 288 292 297 296 287 297
306 305 305 306 307 308 305 303 302 301 302 299 296 296 293 287 290 291 287 285 290 287 284 287 289 289 293 289 286 284 283 289 283 284 285 286 285 282 284 282 287 292 295 298 284 288 297
306 306 306 306 306 307 306 304 302 301 302 299 296 296 294 288 289 291 291 289 288 288 283 287 287 289 289 286 285 285 284 287 284 287 287 286 285 284 285 282 280 297 296 289 295 298 298
305 304 305 306 306 307 306 304 303 301 301 301 295 297 297 291 289 295 294 295 293 292 289 289 288 287 290 288 289 288 286 287 284 282 292 286 289 286 287 289 297 299 297 299 299 297 298

GFSGBSN_sfc_thetae_072.txt.gz
Theta_e
315 314 314 314 313 313 313 313 313 313 313 313 314 314 313 313 313 314 313 313 312 312 312 312 314 315 316 309 306 319 327 324 318 313 310 307 303 302 299 301 302 301 303 305 307 308 309
314 314 313 313 313 312 312 312 312 312 312 312 312 311 312 312 313 313 313 312 311 312 311 312 314 315 311 301 315 318 321 318 314 312 309 309 305 305 302 301 300 303 302 303 305 305 306
314 314 314 313 312 313 312 312 312 312 311 311 311 311 311 311 312 312 312 312 311 311 312 313 315 316 307 303 316 318 319 316 314 312 307 309 309 305 303 300 304 302 299 301 302 303 303
314 314 314 313 312 312 312 312 312 311 311 312 311 311 311 311 312 312 312 312 312 312 313 314 315 315 304 310 316 316 316 313 314 315 312 310 310 306 303 304 301 298 299 295 301 301 303
314 313 313 313 313 313 312 311 311 311 311 311 311 310 310 311 311 312 311 312 314 314 314 315 316 313 304 317 311 311 313 307 308 309 310 308 308 303 303 299 297 298 293 294 296 301 300
313 313 313 313 313 312 311 312 312 310 310 310 310 310 310 310 311 311 311 312 317 317 317 318 316 308 309 305 310 311 312 309 305 305 304 305 303 300 300 297 291 293 293 294 294 299 300
313 312 312 313 312 311 312 312 311 310 309 309 310 310 310 310 311 311 313 315 310 308 311 305 304 304 305 310 312 309 309 306 306 303 297 301 297 295 297 298 297 295 294 293 296 299 297
312 312 312 312 312 311 311 310 310 309 309 309 309 309 310 310 310 311 313 309 307 309 302 307 306 306 308 309 302 306 310 302 301 297 298 297 294 298 298 297 295 295 294 294 297 298 298
311 312 312 311 311 311 312 311 309 309 309 308 309 309 309 310 310 312 312 309 314 311 303 302 305 304 305 307 302 302 306 304 299 297 297 294 296 298 296 295 294 295 293 294 293 297 298
311 312 312 311 311 311 311 309 308 308 308 308 308 309 309 309 309 315 311 314 315 312 299 298 301 304 306 306 300 307 307 304 300 296 296 296 298 296 295 294 296 292 297 295 294 293 289
311 311 312 311 311 311 310 309 308 308 308 308 309 310 309 307 316 312 312 316 315 311 288 298 300 308 304 301 301 302 307 304 298 298 297 295 295 295 294 295 297 294 297 295 295 293 292
311 310 311 311 311 310 309 309 308 308 308 308 309 310 309 312 317 313 316 315 313 298 287 295 300 298 299 301 300 302 302 304 303 299 299 297 302 298 297 297 298 298 296 296 296 293 286
310 310 311 311 311 310 309 308 308 308 308 308 308 309 310 313 311 317 316 312 298 291 297 294 295 297 297 297 298 299 299 298 295 292 293 296 296 299 299 296 298 297 294 287 285 286 284
309 310 311 311 311 310 309 308 307 307 307 307 307 307 311 317 318 316 313 303 291 295 294 297 296 297 295 297 298 297 297 295 299 297 293 291 289 296 300 297 295 295 294 287 280 282 285
309 309 310 311 311 310 309 307 307 307 306 306 305 318 318 319 316 315 306 295 294 294 295 294 296 293 294 295 295 295 295 295 297 299 292 291 291 298 298 299 298 294 290 295 288 289 285
308 309 309 310 311 309 308 307 307 307 305 305 313 315 315 315 316 312 301 294 296 298 298 297 291 294 290 293 292 293 294 296 295 299 301 295 289 296 297 298 299 296 297 288 289 280 280
308 308 309 310 310 308 308 307 307 306 304 305 314 308 314 315 315 307 298 297 298 301 300 296 294 293 293 292 294 293 293 296 297 297 300 297 294 292 295 293 292 292 291 291 291 290 283
307 307 308 309 310 308 308 307 306 305 303 306 309 302 314 315 302 304 298 297 296 298 300 298 298 295 294 294 293 293 293 296 299 299 294 297 293 289 290 296 298 296 293 292 288 285 289
307 307 308 309 310 307 307 306 306 305 303 305 301 305 315 312 298 297 297 295 296 295 296 296 296 297 297 294 291 294 295 299 299 298 295 297 292 286 288 292 295 292 294 294 293 293 287
307 307 307 308 310 308 307 306 306 305 303 304 300 297 302 307 302 294 292 292 292 298 297 297 296 297 295 293 297 293 294 297 298 298 298 299 294 288 284 288 290 289 291 293 292 287 287
307 306 306 307 309 308 307 305 305 304 303 304 299 297 297 295 297 295 295 293 291 290 295 297 294 293 292 290 291 291 294 295 297 298 297 297 289 291 291 291 291 290 290 291 290 291 287
307 306 306 307 309 308 306 305 305 304 302 303 297 295 298 295 295 294 293 292 291 292 292 290 290 292 293 290 292 290 292 292 291 295 294 296 289 291 288 290 291 288 291 292 292 292 292
306 306 305 306 308 308 306 305 304 304 302 299 300 302 297 295 292 292 293 291 291 293 292 293 293 292 291 293 296 296 296 296 295 293 293 291 290 286 284 290 290 286 290 292 293 294 294
307 306 305 306 307 308 306 304 303 303 301 301 299 297 295 292 292 292 291 292 291 291 290 293 293 291 294 298 298 297 296 295 295 294 295 289 287 287 285 287 279 291 296 296 294 296 298
306 306 306 306 307 308 307 305 303 303 301 302 302 297 295 291 292 291 291 291 292 293 291 291 293 295 298 296 292 291 292 293 291 291 293 295 290 285 283 283 288 291 295 294 293 294 299
306 305 306 305 306 307 308 305 303 302 301 302 302 301 296 290 293 292 290 291 289 289 290 291 295 298 297 294 291 285 287 287 287 288 295 294 291 286 286 281 280 291 296 299 299 289 300
306 305 305 304 304 307 308 306 304 303 302 302 301 302 295 289 294 294 291 289 291 290 289 292 292 293 297 293 288 285 286 291 286 286 287 288 286 283 285 283 289 296 298 300 286 290 300
307 306 303 303 303 305 307 307 305 303 302 302 301 302 296 291 292 294 294 292 292 292 289 293 292 293 293 288 288 289 288 289 288 290 289 288 287 286 287 284 282 299 298 291 297 302 301
307 305 304 303 302 305 306 308 306 304 302 302 297 301 300 293 293 298 298 299 297 296 294 295 293 293 295 291 293 292 287 290 288 283 294 287 292 290 291 291 300 301 300 300 300 298 302

GFSGBSN_sfc_thetae_075.txt.gz
Theta_e
315 315 315 315 314 313 313 313 313 313 313 312 312 313 313 313 313 313 314 313 313 313 313 312 313 315 317 313 311 322 326 323 321 316 312 309 306 305 302 305 306 305 306 309 310 310 310
315 315 315 314 314 313 313 313 313 312 312 312 312 312 312 312 312 313 313 313 312 312 313 313 314 315 316 304 317 322 319 318 316 313 311 311 308 308 305 305 303 306 305 305 307 308 308
315 315 314 314 315 314 313 312 312 313 312 312 312 312 311 312 312 313 313 313 312 313 313 313 315 317 310 306 316 319 317 315 315 313 310 311 311 307 307 304 308 305 301 304 305 306 305
315 314 314 314 314 313 311 312 312 312 312 312 312 312 312 312 312 312 313 313 312 313 314 315 316 318 308 312 317 314 316 314 314 314 312 313 312 308 306 308 304 301 301 297 303 305 305
314 314 314 314 314 313 312 312 311 311 310 310 311 310 311 311 312 312 312 312 315 316 316 316 316 316 308 314 310 315 315 310 311 311 312 311 309 306 306 301 298 301 295 298 300 304 303
314 314 314 313 313 313 312 312 311 310 310 310 311 311 310 311 311 312 312 313 316 316 317 318 318 309 312 306 311 312 314 311 307 308 306 306 305 301 302 299 293 296 297 299 297 302 302
313 313 313 313 313 312 313 312 311 310 309 310 310 310 311 311 311 311 313 318 314 313 315 310 308 308 308 311 314 310 313 309 308 305 300 304 299 297 300 302 301 299 297 296 300 303 300
312 312 313 313 312 313 312 311 310 309 309 309 310 310 310 311 311 311 314 312 310 312 305 310 308 308 310 311 304 308 312 304 304 299 303 300 296 301 302 300 298 297 296 296 299 302 301
312 312 313 312 312 312 312 311 310 310 310 309 309 310 310 311 311 312 315 312 317 315 306 306 307 306 307 309 305 305 308 306 302 300 300 298 300 301 300 298 296 297 296 296 296 300 301
312 312 312 312 312 312 311 310 309 309 309 309 309 310 311 311 307 318 313 316 317 317 301 301 302 306 307 307 303 310 309 306 303 299 300 300 303 298 297 296 298 294 300 298 296 295 291
311 311 311 312 312 312 311 310 309 309 309 309 309 310 311 308 319 314 315 317 316 316 291 302 303 312 308 304 304 305 310 306 300 300 301 297 299 297 296 297 300 296 300 298 297 295 295
310 310 311 312 312 312 311 310 309 309 309 309 309 310 311 315 319 315 317 317 316 301 290 298 302 301 301 303 303 305 305 308 306 301 302 300 304 302 300 301 300 301 298 298 297 295 288
310 310 311 311 311 312 310 309 309 309 308 308 308 309 310 317 314 318 318 314 301 294 302 297 298 301 300 300 301 303 301 301 298 295 295 299 299 302 303 297 300 299 295 288 287 287 287
310 310 311 311 311 311 310 309 308 308 307 307 307 306 313 318 320 318 315 305 294 299 299 301 299 300 297 300 301 300 299 297 301 299 296 293 291 299 302 299 296 296 296 289 282 283 286
308 309 310 310 311 311 309 308 308 307 306 306 305 318 318 322 320 318 308 297 298 300 299 297 299 296 297 299 297 298 297 297 300 301 295 294 293 301 301 302 301 296 292 297 291 292 286
308 308 309 310 310 310 309 309 308 307 306 305 313 316 317 321 321 315 305 297 300 302 302 300 294 297 294 296 296 297 297 300 297 301 302 298 291 298 300 301 301 298 299 289 291 282 281
308 308 308 309 310 310 309 309 308 307 305 304 315 310 317 321 319 309 300 301 302 304 303 299 297 296 296 295 296 295 295 299 301 299 302 299 295 294 298 295 294 294 292 294 293 289 284
308 308 308 308 309 310 309 308 307 306 303 306 311 304 317 319 304 307 300 301 297 299 302 300 300 297 295 296 295 295 294 298 302 301 296 299 294 291 293 298 300 299 295 294 289 287 289
308 307 308 308 309 310 308 308 307 306 304 305 303 304 317 311 301 300 302 300 300 298 299 298 298 300 300 296 293 296 297 302 302 300 297 299 294 288 290 294 296 294 294 295 295 294 289
308 308 308 308 308 309 309 307 306 305 304 304 303 299 306 307 305 298 298 298 297 300 298 299 298 299 297 295 297 295 296 300 301 300 301 300 295 290 285 289 293 290 291 293 290 289 289
308 307 307 307 308 309 309 307 306 305 304 305 307 303 301 298 300 300 300 299 297 296 299 300 297 296 295 292 294 294 296 297 299 302 299 298 290 291 292 293 293 292 292 292 291 293 288
308 307 306 307 306 308 309 307 306 305 303 306 300 299 303 299 301 299 298 298 296 297 298 296 295 295 295 292 293 291 294 296 295 297 296 297 289 292 289 292 292 290 291 292 293 292 292
308 307 307 306 306 307 309 307 305 305 304 305 305 305 300 299 300 297 298 297 296 297 297 296 295 294 293 294 297 297 298 298 297 294 294 293 291 290 286 291 291 287 292 293 294 295 294
308 307 307 307 306 307 309 307 305 304 303 305 304 300 297 295 297 297 298 297 296 297 295 297 297 294 297 301 300 299 298 298 297 296 298 293 292 290 286 289 280 291 298 297 294 296 297
308 308 307 307 305 306 307 308 305 304 304 303 305 300 299 293 295 295 296 296 297 299 297 295 296 298 301 296 293 293 294 295 295 297 298 297 293 287 284 284 289 292 296 296 294 294 300
308 308 305 304 305 304 306 308 306 304 303 302 305 303 298 293 296 296 294 296 295 294 294 295 298 301 299 295 293 287 287 290 290 291 299 297 296 288 288 282 280 293 298 301 300 289 300
308 307 306 304 304 303 304 306 308 305 303 301 302 305 298 293 297 296 295 294 296 294 292 296 295 296 299 293 291 288 288 293 288 288 289 290 288 286 287 284 290 298 300 301 288 291 301
308 307 306 305 304 303 304 305 308 306 303 301 300 304 297 295 295 297 299 296 296 296 292 297 295 296 295 291 291 292 289 291 291 293 291 290 289 288 289 285 283 300 299 292 299 303 302
308 306 306 305 304 303 304 304 305 307 304 302 297 303 303 295 294 298 300 302 301 300 297 299 296 295 296 294 294 292 291 291 291 287 296 290 293 290 292 292 301 303 302 304 303 302 303

GFSGBSN_sfc_thetae_078.txt.gz
Theta_e
316 315 315 315 315 315 315 314 313 312 313 312 312 312 312 313 312 313 313 314 313 314 313 314 314 315 314 313 312 317 329 323 318 318 314 311 307 305 301 303 305 303 305 307 309 309 309
315 315 315 315 315 314 313 313 313 313 313 313 312 312 312 312 312 313 313 313 313 313 313 313 315 315 312 305 320 318 316 316 316 313 312 311 309 309 304 304 303 305 305 305 307 307 308
315 315 315 315 315 314 313 313 313 312 312 312 312 312 312 312 312 313 313 313 314 313 314 314 315 314 310 307 316 320 318 315 316 313 309 312 311 307 307 303 307 306 301 303 304 305 304
314 315 314 315 315 314 313 312 312 311 311 311 311 312 311 311 312 312 313 314 313 314 315 315 316 314 307 317 317 315 316 314 315 314 312 313 312 307 305 307 304 301 301 296 302 304 305
314 314 315 315 314 314 313 313 311 311 310 310 311 311 311 311 312 313 313 313 314 318 317 316 313 312 308 315 308 313 314 311 312 312 312 312 309 304 304 300 297 299 293 296 299 305 304
313 313 314 314 314 313 313 313 312 311 310 310 310 311 312 311 312 312 313 312 317 315 316 315 315 310 312 309 309 312 314 313 308 308 306 306 304 300 300 298 290 294 295 298 298 302 303
313 313 313 313 313 313 313 312 312 310 310 310 310 310 311 312 312 312 312 317 313 312 316 309 311 309 309 312 314 311 313 310 308 305 299 303 298 296 299 301 301 300 298 296 300 303 301
313 313 313 313 313 313 313 312 312 311 310 310 310 310 311 312 312 312 311 313 311 312 304 312 313 310 311 312 305 308 312 304 303 298 302 300 296 301 302 301 299 298 296 295 298 301 300
312 312 313 312 312 313 313 312 311 311 310 310 310 310 311 312 312 311 315 313 317 316 304 308 310 306 307 309 305 305 309 306 301 299 300 297 300 304 301 299 297 297 295 295 295 299 301
312 312 312 312 312 312 313 312 311 311 311 310 310 310 311 311 307 317 314 317 317 318 298 304 303 305 308 308 303 310 311 306 302 298 300 299 303 301 299 297 298 293 299 298 297 295 290
311 311 311 311 312 312 312 311 310 310 310 309 309 310 311 310 313 315 315 317 316 314 291 303 304 313 309 304 305 305 311 306 299 299 300 297 299 298 297 297 300 296 300 298 297 294 294
310 310 311 311 312 311 311 310 310 310 309 309 309 309 310 315 315 318 317 317 315 300 291 300 304 302 301 304 304 306 305 308 306 300 300 299 304 302 300 302 301 302 298 297 296 294 287
310 310 311 311 311 311 311 310 310 310 309 308 308 307 307 315 313 319 317 312 299 294 304 300 299 302 301 300 301 303 301 300 297 294 294 299 300 303 303 298 301 299 294 287 285 286 286
310 310 310 310 310 310 311 309 309 309 308 307 306 306 311 314 318 319 314 304 292 300 301 304 301 301 297 300 300 301 300 297 301 299 295 292 290 299 303 299 296 297 295 288 281 283 287
309 309 309 310 310 310 311 309 309 308 307 306 304 316 314 318 323 318 307 295 296 301 303 300 300 296 296 300 300 299 298 297 299 300 293 292 292 301 302 302 301 296 292 297 289 291 286
308 308 309 309 309 310 310 309 309 308 307 304 306 315 315 323 321 314 303 296 301 305 303 301 295 297 293 296 296 297 297 300 299 302 302 296 290 298 299 301 301 298 300 290 290 281 280
309 308 308 309 309 309 310 310 309 308 305 304 309 311 318 321 318 306 297 301 304 306 303 298 296 296 296 294 295 294 295 298 300 300 302 299 295 293 298 295 294 294 292 292 292 290 283
309 309 308 308 309 309 309 310 309 307 304 305 309 304 318 318 302 305 302 303 301 301 304 301 300 298 296 296 295 295 294 297 302 301 296 300 296 290 292 299 300 297 294 293 286 285 288
309 309 308 308 308 308 309 309 308 307 305 301 302 305 318 311 296 301 303 302 302 301 300 299 298 300 301 296 293 296 297 301 302 300 298 299 293 287 288 293 297 291 293 294 293 291 285
310 309 308 308 307 308 309 309 308 306 305 303 304 298 307 308 306 301 299 298 298 304 302 300 299 300 298 296 298 294 296 300 301 300 303 300 294 290 285 288 292 290 292 292 289 284 285
310 309 308 308 308 308 309 309 308 306 305 305 305 302 304 297 299 300 300 299 297 297 302 302 299 298 297 293 293 292 295 296 299 302 300 297 290 292 291 292 292 291 291 291 290 291 288
310 309 308 307 307 307 308 309 307 306 304 305 302 299 301 298 301 300 299 298 297 298 298 296 295 296 296 293 293 291 293 294 293 297 296 298 289 291 288 291 292 290 292 292 292 292 291
310 309 308 307 307 306 307 309 307 305 304 303 307 306 300 297 299 298 298 297 297 299 299 300 298 296 294 295 297 297 297 296 295 293 293 293 290 289 285 290 290 286 290 292 293 295 294
310 309 308 308 307 307 306 307 307 305 304 301 302 302 297 293 297 297 298 297 297 298 295 298 299 295 298 301 299 297 296 296 296 296 297 292 291 290 285 288 278 290 297 297 293 294 297
310 310 309 308 307 306 304 304 307 305 304 302 301 300 296 293 297 296 296 295 297 299 298 298 297 300 301 297 291 291 294 294 295 298 297 297 294 289 284 284 288 291 296 296 292 293 300
310 310 309 308 305 304 303 304 305 307 303 302 301 305 298 293 294 299 295 295 294 294 294 296 300 302 299 294 292 287 286 290 291 293 299 297 298 290 288 282 279 292 298 300 298 289 301
310 310 309 308 305 305 304 303 304 307 304 302 300 303 298 292 299 299 294 291 294 295 291 296 297 297 300 292 290 289 288 294 288 288 290 292 289 285 285 284 288 298 300 302 287 290 301
309 309 309 308 306 305 305 303 304 305 306 301 300 302 297 292 296 299 298 294 295 295 291 297 295 296 295 291 291 291 290 292 291 293 291 290 288 288 289 285 283 300 299 292 297 302 301
309 309 309 308 307 305 305 304 304 304 306 303 296 305 303 294 295 302 301 300 297 298 296 298 297 296 296 293 294 293 291 291 291 287 297 290 293 290 291 292 302 302 300 303 301 300 300

GFSGBSN_sfc_thetae_081.txt.gz
Theta_e
316 316 316 315 315 315 314 314 314 312 312 312 312 312 313 312 313 313 312 313 313 314 314 314 314 315 311 305 308 320 332 326 315 313 312 310 303 297 292 295 297 295 298 302 304 303 302
315 316 315 314 314 313 314 314 313 313 313 312 311 312 312 312 312 312 313 312 312 314 314 314 315 315 308 298 313 318 317 314 313 312 311 306 302 303 297 297 295 299 299 299 300 299 300
315 315 315 315 313 313 314 314 313 312 312 312 312 311 312 312 312 312 312 312 313 314 315 315 315 313 305 302 314 314 313 310 312 312 306 307 307 302 300 296 300 300 295 298 299 299 298
314 314 314 315 315 314 314 313 312 312 312 311 311 311 311 312 312 312 313 314 314 314 315 316 316 310 302 313 312 310 312 312 312 311 309 308 307 301 298 300 299 294 293 288 295 300 301
314 314 314 315 314 313 314 313 313 311 311 311 310 311 311 311 312 313 313 313 314 317 318 316 309 305 301 315 308 311 310 308 310 310 308 311 303 298 298 292 289 291 286 289 294 300 299
314 314 314 313 314 314 314 314 313 312 311 311 310 310 311 311 312 313 313 313 314 315 314 314 311 303 310 309 310 309 309 311 308 306 304 301 297 293 291 288 283 287 288 292 292 297 299
313 313 313 313 313 313 313 313 313 312 310 310 310 310 310 311 312 312 310 309 306 305 309 304 306 306 309 313 312 307 311 308 307 302 293 298 291 288 292 295 295 295 293 292 295 299 295
312 312 312 312 312 313 313 313 313 312 312 311 310 310 311 312 312 312 307 305 308 306 299 310 311 312 314 312 304 307 311 302 301 294 297 293 289 297 300 299 297 294 291 290 294 297 296
312 312 312 311 311 312 313 313 312 312 312 311 310 310 310 312 312 307 306 311 316 309 298 303 308 308 309 306 302 304 307 303 298 294 294 291 296 301 299 297 295 292 291 291 291 296 296
313 312 311 311 311 312 312 312 312 312 311 310 310 310 310 310 309 310 310 316 311 312 292 299 304 305 305 305 301 309 309 304 298 294 295 294 299 299 296 295 295 289 296 295 294 290 284
312 312 311 311 311 311 311 312 311 311 311 310 310 309 309 309 306 306 311 310 309 308 284 303 302 308 305 300 303 304 309 304 296 296 295 293 295 295 294 295 298 292 297 295 294 289 286
310 310 311 310 311 310 310 311 311 310 310 310 309 309 308 310 309 311 315 312 308 294 286 299 302 300 299 301 302 304 303 304 303 297 296 295 300 298 296 299 299 299 295 293 290 286 282
310 310 310 310 310 310 310 310 310 310 310 309 309 308 305 309 306 313 314 306 292 288 304 300 298 300 298 297 299 300 298 296 291 288 289 295 296 300 302 296 298 296 290 282 279 279 280
310 310 309 310 310 310 309 310 310 309 309 308 307 306 307 308 310 312 310 298 287 297 299 305 302 300 295 297 297 298 296 293 297 297 292 288 287 297 301 297 294 293 289 284 278 276 282
310 310 309 309 309 309 309 310 309 308 308 306 305 310 309 311 313 313 302 289 291 298 302 300 299 295 294 297 296 296 295 294 296 297 289 287 288 299 299 299 297 291 288 292 288 289 283
310 309 309 309 309 309 309 310 310 309 307 305 300 305 312 319 316 309 298 293 297 303 304 299 291 295 290 294 293 293 293 299 298 300 299 293 287 297 298 299 297 294 295 285 286 280 277
311 310 309 309 308 309 309 310 309 308 306 305 302 305 315 318 315 302 291 295 301 307 302 297 294 292 292 292 293 292 293 297 300 298 299 296 290 292 295 292 290 290 286 290 289 284 280
311 310 310 309 308 308 308 310 309 307 305 303 299 297 315 316 300 299 296 301 304 301 303 300 298 296 294 294 293 292 292 296 301 300 294 296 292 285 290 296 297 292 291 288 284 281 286
311 311 310 309 308 308 308 309 309 307 305 299 295 299 311 312 292 293 299 299 301 299 299 299 297 297 296 293 289 294 295 300 300 298 296 294 287 281 284 287 292 289 291 292 291 289 282
311 311 310 309 308 308 308 309 308 307 306 302 297 296 304 304 303 298 295 296 296 302 300 301 298 298 295 293 295 293 294 298 300 298 306 300 289 285 281 285 288 287 289 290 287 282 282
311 311 311 309 308 308 308 309 308 306 305 302 299 298 300 293 295 294 296 297 295 295 301 300 295 295 293 288 290 290 293 293 296 299 295 293 285 288 290 291 291 288 288 289 287 287 284
311 311 311 310 309 308 307 308 307 306 305 302 297 296 297 295 297 296 296 296 296 296 296 294 293 295 294 289 290 288 290 289 289 292 290 290 284 288 286 290 290 288 290 290 290 290 290
311 311 310 310 309 308 307 307 307 305 305 300 302 302 296 295 294 292 294 295 295 296 297 298 296 294 292 293 293 292 291 291 291 288 286 285 283 281 279 287 287 282 288 290 291 293 292
311 310 310 310 309 307 307 305 307 305 304 300 299 298 294 289 293 293 295 296 294 294 293 297 298 294 295 297 296 293 292 292 291 290 290 285 284 283 280 283 275 287 295 296 293 294 296
311 311 310 310 309 308 307 304 304 307 304 301 300 297 295 289 293 293 295 295 294 295 294 295 296 298 297 294 287 286 289 288 292 295 292 291 286 280 279 276 285 289 295 294 290 290 297
311 311 311 310 310 307 306 304 303 304 306 302 300 302 297 289 290 296 293 295 289 288 292 294 298 299 297 290 288 283 282 289 289 291 297 296 293 284 278 276 272 288 296 300 298 285 297
310 310 311 311 310 308 306 305 304 304 305 302 300 301 296 289 293 295 293 291 295 291 289 292 294 295 297 288 285 283 285 292 285 287 287 288 288 280 281 280 284 295 298 299 285 286 295
309 309 310 310 310 309 307 306 305 304 305 302 300 302 296 290 292 295 297 293 293 292 287 292 292 295 292 287 287 287 285 288 286 290 290 286 285 282 285 283 281 297 296 289 294 295 296
309 309 309 309 309 309 308 306 306 304 304 305 296 303 302 293 292 297 297 298 297 297 292 293 292 293 295 288 289 289 285 287 286 279 294 284 290 284 286 283 294 295 296 297 297 295 295

GFSGBSN_sfc_thetae_084.txt.gz
Theta_e
316 316 316 315 314 314 314 313 313 312 312 312 312 312 311 312 312 312 312 312 312 312 313 314 314 314 309 301 305 314 332 328 315 311 309 308 303 296 289 291 293 290 295 298 301 301 301
315 315 315 315 314 314 313 314 313 312 312 311 311 311 311 311 312 312 312 312 312 313 313 313 314 315 306 293 306 319 318 315 310 306 309 306 302 300 295 294 292 295 296 296 297 296 296
315 315 314 315 315 314 314 314 313 312 312 311 311 311 311 311 311 312 313 313 313 314 314 314 315 312 303 297 311 316 313 308 310 311 307 304 303 300 297 295 296 296 292 294 295 296 295
315 315 314 314 315 314 314 314 313 312 312 312 312 312 311 311 311 312 312 313 313 314 316 316 315 308 298 311 309 307 309 308 310 310 307 306 304 299 295 295 295 292 289 285 293 297 298
315 314 314 314 314 313 313 314 313 313 312 312 312 311 311 311 311 312 313 313 314 315 318 317 306 303 298 317 311 311 309 308 309 309 307 309 301 296 296 289 286 287 284 287 291 296 296
314 314 314 313 313 313 313 314 314 313 312 312 312 311 311 311 311 312 313 313 313 313 315 314 310 300 305 308 308 308 307 309 305 304 302 300 294 291 289 286 281 285 285 288 289 294 294
313 313 313 312 312 313 313 313 313 313 312 312 311 311 311 311 311 312 308 305 304 303 306 301 302 302 307 314 309 304 307 305 305 300 292 295 289 286 290 291 293 292 290 289 292 296 292
312 312 312 311 311 312 312 313 313 312 312 312 311 311 311 310 311 312 304 301 307 302 296 307 308 306 310 313 307 305 308 300 298 292 294 291 287 294 296 296 294 293 290 288 292 295 293
311 312 311 310 311 311 312 312 312 312 312 312 311 311 310 311 310 306 303 307 314 308 296 301 307 307 308 310 306 303 305 301 296 293 292 288 293 298 296 294 293 292 289 288 289 293 293
311 311 310 311 310 311 311 311 312 312 312 311 311 311 310 308 307 306 305 312 308 307 290 297 301 305 307 307 299 307 307 302 296 293 293 291 296 296 294 293 293 287 294 294 292 288 283
311 311 311 310 310 310 310 310 311 312 311 311 311 310 310 308 300 302 308 311 309 305 282 304 301 307 303 299 301 303 307 301 295 295 293 291 293 292 292 293 296 292 296 293 292 287 284
310 310 310 310 310 310 309 309 311 311 310 310 311 310 309 307 304 307 311 310 306 293 285 299 301 298 296 298 300 302 302 302 301 294 294 294 298 295 294 297 297 298 293 290 288 284 280
311 310 310 310 310 310 309 309 310 311 310 310 310 309 306 306 301 307 307 304 291 285 302 298 298 298 296 295 297 298 296 293 290 286 286 292 294 297 299 293 295 293 286 279 280 278 280
311 311 310 310 309 309 309 309 310 310 309 309 308 307 306 306 303 306 306 297 285 295 297 302 299 298 294 296 296 296 293 289 293 292 288 287 285 295 299 295 290 291 288 283 278 276 281
312 311 311 310 309 309 309 308 309 309 308 307 306 302 306 307 306 308 300 289 290 297 300 299 296 292 292 295 295 293 291 291 294 294 287 286 287 298 299 299 296 290 287 293 287 288 283
312 311 311 310 309 309 309 308 310 309 308 307 301 301 306 314 311 306 296 292 295 301 301 299 290 293 288 291 291 291 291 296 295 298 294 290 284 295 297 299 298 294 295 285 285 279 278
312 311 311 310 309 309 308 308 309 308 306 306 298 297 310 314 311 300 290 293 298 304 304 297 293 291 292 290 290 290 292 296 299 296 295 291 288 289 294 292 290 289 287 287 285 283 279
312 311 311 311 309 308 308 308 309 307 305 301 295 292 307 311 297 296 293 298 301 300 302 299 298 294 291 292 290 291 291 294 299 297 291 292 288 284 288 295 297 292 289 287 280 281 284
312 312 311 311 310 308 308 308 309 307 306 297 295 295 306 307 292 291 296 297 300 299 298 298 297 296 295 291 287 293 295 300 299 296 293 292 285 280 283 287 290 288 290 290 288 285 279
312 312 311 311 310 308 308 308 308 307 306 299 293 291 299 300 299 293 292 294 294 301 299 299 296 296 293 291 293 290 291 297 297 296 303 296 287 284 280 283 286 285 288 288 285 276 281
312 312 311 311 310 309 308 308 308 306 306 302 298 293 296 290 292 293 294 294 294 294 298 298 294 294 291 287 289 289 291 292 295 297 292 290 284 286 288 290 289 288 287 287 284 285 282
312 312 312 311 311 309 307 307 308 306 305 302 296 294 295 293 295 293 293 292 293 294 293 293 292 294 294 289 289 287 288 288 288 291 288 286 281 284 283 289 289 286 287 288 288 288 288
311 311 311 311 310 310 307 307 307 306 305 298 300 301 296 293 293 291 291 293 294 295 295 296 295 293 291 293 293 292 291 291 290 287 286 284 281 280 277 285 286 281 286 289 290 293 292
311 311 311 311 311 310 308 307 305 306 304 299 298 297 293 289 292 292 294 294 294 295 290 295 297 293 295 297 294 293 290 290 289 289 288 284 282 281 278 280 273 284 295 295 292 293 294
311 311 311 311 311 310 308 307 304 304 305 300 300 297 294 288 292 291 293 293 295 294 292 293 296 297 297 292 287 285 287 288 290 289 287 287 283 278 275 272 282 288 293 292 290 290 295
311 311 311 311 311 311 309 307 304 304 304 301 300 301 296 289 289 294 291 292 290 288 290 294 298 298 294 289 287 283 282 288 288 291 296 291 289 283 275 274 271 288 295 299 297 285 295
310 311 311 311 311 311 311 307 306 305 304 302 299 301 296 290 292 292 290 291 294 291 288 291 292 292 294 287 285 283 284 291 284 286 286 286 287 283 281 281 283 293 294 298 283 283 294
308 309 310 310 310 311 311 309 306 306 305 302 299 301 297 291 292 293 294 292 293 292 287 291 289 292 290 286 287 286 284 287 285 289 288 284 283 283 283 282 276 295 293 286 291 295 295
305 308 309 309 309 310 311 310 307 307 305 304 296 302 302 293 292 294 296 297 297 297 293 292 289 289 294 288 288 287 283 285 284 278 291 283 288 286 286 282 291 292 293 295 294 293 294

GFSGBSN_sfc_thetae_087.txt.gz
Theta_e
316 315 315 315 315 314 313 314 313 312 312 311 311 311 312 311 312 311 312 312 311 311 312 312 313 314 306 296 300 311 333 330 316 308 307 306 300 296 291 290 292 289 292 295 297 296 297
315 315 315 315 314 314 313 314 314 313 312 312 312 311 311 311 311 311 311 311 312 311 313 313 313 314 303 288 299 314 316 315 308 305 307 305 302 299 293 292 291 294 294 294 295 296 294
315 315 315 315 315 314 314 314 314 313 313 312 312 311 311 311 311 311 311 311 313 313 313 313 314 312 302 292 307 316 311 305 305 308 306 307 304 298 295 293 294 294 290 293 293 294 294
315 314 314 314 314 313 313 314 314 313 314 314 313 311 311 312 311 311 312 313 313 314 314 314 315 306 296 306 308 306 309 307 308 308 307 307 302 297 293 294 293 290 287 284 291 294 296
314 314 314 313 313 313 313 313 313 313 314 314 313 312 311 311 312 312 312 313 314 315 316 317 304 300 296 314 310 310 308 305 308 308 306 309 299 294 294 288 285 286 282 284 289 294 294
313 313 313 312 313 312 312 313 313 313 313 314 314 312 312 311 311 311 312 313 313 313 315 313 310 298 303 305 310 310 307 308 305 303 300 298 293 289 287 285 280 283 284 286 287 292 292
311 312 312 312 311 311 312 312 313 313 313 313 313 313 312 312 311 311 307 304 301 300 304 301 300 300 304 312 311 303 305 305 303 298 291 293 288 285 288 289 291 290 287 287 291 294 291
311 311 311 310 310 310 311 311 312 312 313 313 313 312 312 312 311 310 303 299 304 302 297 305 306 304 307 310 305 309 305 298 296 291 292 289 286 292 293 293 291 289 287 287 291 293 290
311 311 310 310 310 311 311 311 311 312 312 312 312 312 312 311 310 305 302 304 309 305 296 299 305 304 305 307 303 305 303 299 295 291 291 287 291 296 294 292 291 290 287 288 288 292 291
311 311 310 310 310 310 310 310 311 312 312 312 311 311 312 310 305 305 303 310 309 304 289 295 299 304 306 306 299 310 306 301 294 291 291 289 295 293 292 291 291 286 292 292 291 287 283
311 311 311 310 310 310 309 310 310 311 311 311 311 312 311 309 299 301 308 309 306 305 283 301 299 307 305 301 300 301 305 300 294 293 292 290 291 291 290 292 293 290 294 292 291 286 282
312 311 311 310 310 310 309 309 309 310 311 311 311 311 309 305 303 305 310 307 305 293 283 299 299 298 296 298 298 300 300 301 299 293 292 292 295 294 293 295 294 295 291 289 285 282 278
312 312 311 311 310 310 309 308 309 310 310 310 310 311 307 305 298 304 306 304 292 287 299 296 296 298 296 295 295 296 295 292 290 285 285 291 291 295 296 291 293 291 285 278 278 277 279
313 313 312 311 310 309 309 308 308 309 309 310 309 307 306 305 303 304 306 297 286 293 295 301 297 296 293 295 295 296 293 289 293 290 286 284 284 294 298 294 289 287 286 281 276 276 281
313 313 312 312 310 310 308 308 308 308 308 308 306 302 300 306 306 304 300 289 288 296 299 297 297 291 291 294 293 293 291 291 293 292 286 285 286 296 297 298 295 289 286 289 283 284 277
313 312 312 312 311 310 308 308 308 308 308 307 300 297 300 308 305 305 295 289 295 300 300 299 290 293 288 290 290 290 290 295 295 296 293 289 283 293 296 297 297 293 294 284 283 278 277
312 312 312 311 311 309 309 308 309 308 307 306 295 294 302 309 309 300 290 293 297 302 301 297 293 291 291 290 290 290 291 295 297 296 295 290 287 287 292 291 289 289 288 288 287 285 280
313 312 312 312 311 309 308 308 308 307 305 301 294 291 302 306 296 295 292 297 299 299 301 299 298 294 291 292 289 290 291 294 297 296 290 291 287 283 287 293 294 291 289 287 278 278 285
312 312 312 312 311 310 308 307 308 307 306 297 291 291 302 304 290 289 294 295 298 298 298 297 295 296 295 291 287 292 294 298 296 294 292 291 284 279 282 286 289 287 289 288 286 285 280
312 312 312 312 311 310 308 307 308 307 306 296 292 288 295 296 295 290 290 292 293 301 299 298 296 296 293 290 293 289 291 296 297 295 300 295 287 284 281 284 286 286 288 288 284 275 279
312 312 312 312 312 311 309 307 308 306 306 299 297 293 294 286 292 291 294 292 291 292 298 297 294 294 292 286 289 289 292 292 295 297 292 289 284 286 287 288 289 288 287 287 283 284 279
312 312 312 312 312 311 309 306 307 306 305 298 295 294 296 293 294 290 291 291 291 294 293 291 291 293 293 289 290 288 290 288 288 292 287 285 280 282 282 285 286 285 287 286 286 286 285
311 311 312 312 312 311 310 306 306 306 304 295 299 300 295 293 292 291 291 292 293 294 295 295 294 292 291 293 295 294 291 291 291 289 286 283 280 279 278 284 285 280 284 286 288 291 290
311 311 312 312 311 311 310 307 306 305 304 299 298 297 292 288 291 290 292 294 292 293 293 296 295 292 296 298 296 292 290 290 290 289 289 283 282 281 278 280 273 283 294 294 291 292 292
311 311 311 312 312 311 311 309 306 306 305 300 299 297 294 288 291 290 291 291 294 293 292 292 294 298 299 294 286 284 287 288 289 288 287 287 282 277 275 273 281 286 292 290 288 288 294
309 311 311 311 311 311 311 310 307 304 305 302 300 301 297 290 287 293 289 290 287 289 289 293 297 298 297 289 286 282 281 287 287 290 292 288 289 280 274 275 272 283 293 295 295 282 294
307 308 309 311 311 311 312 311 308 305 305 302 300 302 296 290 292 293 289 289 293 292 288 291 291 292 295 287 284 282 283 290 282 285 287 287 286 280 280 280 282 291 294 297 283 281 291
307 306 306 309 310 311 311 312 309 307 306 302 300 302 297 291 292 295 294 290 292 292 287 291 289 291 290 286 286 286 285 287 285 288 288 285 284 282 284 281 276 293 292 286 289 291 292
305 305 305 306 308 310 311 311 311 308 306 305 297 302 301 294 293 296 296 296 295 295 293 292 289 289 292 289 288 286 284 285 284 279 291 283 287 282 286 281 289 291 291 293 292 292 292

GFSGBSN_sfc_thetae_093.txt.gz
Theta_e
316 316 316 316 315 314 314 314 315 315 314 313 314 313 312 311 311 312 311 311 311 311 311 311 311 312 309 298 298 318 330 329 320 307 307 309 304 299 297 297 297 296 298 299 301 301 301
315 315 315 315 314 314 314 314 314 315 315 313 314 313 312 312 311 311 311 310 310 310 311 312 312 312 307 291 302 321 323 314 309 309 310 310 306 305 301 299 299 300 298 300 301 301 301
313 314 315 314 314 314 314 313 313 314 315 315 315 314 313 313 312 311 312 311 310 311 312 313 312 312 303 295 310 320 316 309 310 310 309 311 309 303 303 299 301 299 297 299 300 302 301
313 312 313 313 313 313 312 312 313 313 314 315 315 314 313 313 313 312 312 313 312 312 313 313 314 311 297 304 310 310 314 309 309 310 310 310 308 304 301 301 298 296 295 293 298 299 300
312 312 312 312 312 312 311 311 312 312 314 315 315 314 314 313 313 313 312 312 312 312 314 314 310 304 299 314 309 313 313 307 308 309 310 310 306 300 300 296 294 293 290 290 295 299 298
312 312 312 311 312 311 311 311 312 312 312 314 314 314 314 314 313 313 311 313 314 315 314 313 311 302 304 304 311 311 311 309 307 307 303 302 301 298 296 295 288 289 290 292 292 297 298
312 312 312 311 310 311 311 311 311 311 311 312 314 313 313 314 314 312 309 310 306 304 309 305 304 299 303 310 314 309 309 307 306 303 297 298 296 293 295 296 295 293 292 291 295 299 295
313 312 312 311 310 309 310 311 311 311 311 312 312 313 313 313 313 312 307 304 307 308 300 306 307 305 307 308 303 306 309 303 301 296 297 296 293 298 297 296 294 293 292 292 296 298 297
313 313 312 312 311 311 310 310 310 310 310 311 311 312 313 312 310 308 305 306 311 310 300 301 305 304 306 307 302 303 306 302 299 296 295 294 295 297 295 294 293 294 292 293 293 296 297
314 314 313 313 312 311 310 310 310 310 310 310 310 311 312 311 306 306 305 311 312 310 294 297 300 304 306 306 300 309 306 303 298 295 295 295 299 295 295 294 295 291 297 295 294 293 289
315 314 314 313 312 312 311 310 309 309 309 309 310 311 311 310 307 302 307 310 310 309 285 299 301 310 307 302 303 304 308 303 297 296 296 294 295 294 293 295 296 294 297 295 295 293 291
315 314 314 313 313 312 311 310 309 309 308 308 309 310 309 306 305 307 309 308 310 295 285 297 301 299 299 302 301 302 304 306 303 298 297 297 299 297 297 298 298 298 296 295 292 292 286
315 315 314 313 312 312 311 310 309 308 308 308 309 309 307 308 303 306 306 308 294 288 299 295 297 299 298 297 299 299 297 298 295 291 292 296 296 299 299 295 299 296 293 286 285 285 285
315 314 314 313 313 312 311 310 309 308 307 308 307 307 306 308 308 307 307 300 286 292 295 301 300 298 294 296 296 297 295 293 297 295 292 289 287 295 298 296 295 294 294 288 281 283 286
315 314 314 314 313 312 311 310 309 308 307 306 305 305 305 307 309 307 304 291 290 295 298 296 298 293 295 298 297 296 294 293 296 296 291 289 289 297 298 299 298 294 291 296 290 291 286
314 314 314 314 313 312 312 311 309 308 307 306 302 301 305 308 309 307 299 291 295 299 300 299 292 295 290 293 293 294 293 298 296 298 299 294 288 295 297 298 298 295 298 290 291 282 281
313 314 314 313 313 312 312 311 309 307 306 305 302 301 307 308 309 305 296 294 297 302 302 298 294 293 293 292 292 291 292 296 297 297 297 295 293 292 295 293 293 293 292 293 292 290 283
313 313 313 313 313 312 311 311 309 307 305 303 299 298 308 308 302 297 295 295 297 299 302 299 299 297 294 293 291 291 291 295 300 298 293 297 293 288 290 297 296 295 293 293 289 286 288
313 313 313 313 312 312 311 310 309 306 305 301 297 297 307 307 294 293 296 296 297 297 299 298 297 299 298 293 289 293 294 299 300 297 294 295 290 285 287 291 293 292 294 294 292 292 287
313 313 313 313 312 312 311 310 308 306 305 303 299 294 299 300 298 294 292 293 293 298 298 299 297 298 295 292 294 291 292 296 298 298 300 299 292 288 285 288 291 288 291 293 292 287 288
312 312 312 312 312 312 312 310 308 306 305 304 300 294 295 290 292 293 293 293 291 291 297 298 294 295 294 290 291 291 293 294 297 299 297 294 288 290 290 291 290 289 289 290 289 290 287
311 312 312 312 312 312 311 310 308 305 305 304 298 295 296 293 293 292 292 291 290 292 293 292 291 294 293 290 291 289 291 291 291 294 292 294 287 289 286 289 288 285 287 288 289 290 290
309 309 311 312 312 312 311 311 308 305 305 302 302 301 297 292 292 290 291 291 291 292 293 296 294 292 290 292 295 296 297 296 293 290 289 289 287 286 281 286 286 283 287 288 288 289 289
307 307 309 310 311 312 312 311 309 305 305 303 301 300 294 290 292 291 292 292 290 291 289 294 295 292 295 300 297 297 296 295 295 293 293 289 287 287 282 284 276 288 296 295 291 293 296
307 307 307 308 309 311 311 311 310 306 305 303 302 299 295 289 292 291 292 292 292 293 292 291 294 297 298 294 289 288 289 289 290 293 292 293 288 284 281 281 285 288 292 292 291 291 297
306 306 307 307 307 308 311 311 311 308 306 303 301 303 298 291 290 294 291 292 288 288 290 293 297 299 298 292 288 283 283 285 286 288 290 290 290 286 282 279 278 288 294 298 297 287 296
306 307 307 307 306 306 307 310 312 310 306 304 301 304 298 292 294 295 290 290 292 290 289 291 292 292 296 288 285 285 284 289 284 286 285 284 284 282 282 281 285 293 296 297 285 288 296
305 305 306 305 305 305 305 307 309 311 307 303 302 304 299 293 294 296 296 293 292 291 287 291 289 290 289 286 287 288 286 288 286 289 288 288 282 282 283 280 280 297 295 289 294 298 297
305 305 304 304 304 305 305 306 307 309 308 305 298 303 303 295 294 299 299 300 298 297 292 291 290 290 290 288 288 289 287 288 287 283 293 287 291 288 289 289 294 297 297 299 298 297 297

GFSGBSN_sfc_thetae_096.txt.gz
Theta_e
315 315 316 316 315 314 314 314 315 315 315 315 315 315 314 313 312 312 311 311 312 312 312 312 312 312 313 304 303 326 328 326 326 315 308 309 305 305 302 304 304 303 304 305 306 306 305
314 314 314 314 314 314 314 314 313 315 315 315 316 315 314 314 313 312 311 311 311 311 311 312 312 312 310 297 308 325 320 322 316 310 312 312 308 307 304 303 302 304 304 304 305 306 306
313 313 313 313 314 313 313 312 313 314 314 315 315 316 315 314 313 313 312 312 311 311 312 313 312 313 306 302 312 324 320 314 313 314 312 313 311 307 307 303 306 304 301 304 305 306 304
313 313 313 313 313 312 311 311 312 313 314 314 315 315 315 315 314 313 313 313 312 312 312 313 313 313 304 308 312 317 320 312 314 315 314 314 312 308 307 307 303 301 301 298 303 303 304
313 313 312 312 313 313 311 311 311 311 313 314 314 314 314 314 314 313 313 312 312 312 313 314 314 309 305 314 308 312 319 311 311 311 313 313 311 306 305 301 299 300 295 297 298 303 302
314 313 313 312 313 312 312 312 312 311 311 313 313 313 313 314 314 314 312 314 314 315 317 315 313 307 312 306 310 312 316 314 309 310 308 308 306 302 302 299 293 295 295 296 297 301 302
314 314 314 313 312 312 311 311 312 311 311 311 312 312 313 313 314 313 312 316 313 311 314 308 308 307 307 312 317 311 314 312 311 309 301 305 300 297 301 301 300 298 296 296 299 303 300
314 314 314 314 313 312 312 312 311 311 311 311 310 311 312 313 312 311 313 309 311 311 304 311 310 310 311 312 307 310 314 307 305 301 304 301 297 302 303 301 298 298 296 297 300 302 301
315 315 315 314 313 313 312 312 311 311 310 310 310 310 311 312 311 311 312 311 316 315 304 305 307 307 308 311 306 308 309 308 304 301 301 298 300 301 300 299 297 297 296 297 297 301 302
315 315 315 315 314 313 312 312 312 311 311 310 309 309 310 310 307 313 309 316 317 316 300 301 303 307 308 308 303 311 311 307 303 299 301 300 303 300 298 297 299 295 301 299 298 297 293
316 315 315 314 313 313 312 312 311 311 310 309 309 309 309 308 310 309 313 316 318 314 290 303 304 313 308 304 306 305 311 306 300 299 300 297 299 298 297 298 301 297 301 299 299 297 297
316 316 315 314 314 313 312 312 311 311 310 309 309 309 309 311 312 314 315 314 314 299 289 300 305 304 302 305 302 305 306 308 306 301 301 300 305 301 301 302 301 302 299 300 300 298 291
316 316 315 314 314 313 312 312 312 311 310 309 308 309 309 314 311 313 313 310 298 291 301 298 299 302 301 300 302 302 301 300 297 294 295 299 300 303 304 299 303 301 298 291 290 291 290
315 315 315 314 314 313 312 312 311 310 309 308 307 307 308 314 316 314 313 304 291 294 297 303 302 301 299 300 300 300 298 297 301 299 296 293 291 300 303 301 298 300 299 292 286 288 291
315 314 314 315 314 313 313 311 311 309 307 306 305 318 316 315 317 316 308 295 294 297 300 298 301 298 298 301 300 300 299 298 299 299 292 293 293 300 301 303 302 298 294 301 294 296 291
314 314 314 314 313 313 313 312 311 310 307 306 310 314 312 316 319 314 304 293 297 302 302 301 295 298 294 296 296 298 298 301 299 300 302 297 291 299 300 301 302 299 301 293 294 286 285
313 314 314 313 313 313 313 312 311 309 306 305 312 310 313 317 317 310 300 299 299 303 304 300 298 297 297 296 297 295 295 300 302 301 302 298 294 296 300 296 295 296 295 297 297 294 288
313 313 313 313 313 312 312 312 310 308 304 308 311 305 314 318 308 309 304 300 299 301 304 302 302 300 299 298 297 295 295 299 302 301 295 298 294 292 295 302 301 299 296 297 293 290 293
313 313 313 313 312 312 312 311 310 307 305 308 306 307 316 315 302 303 303 300 301 300 301 301 299 301 301 298 293 296 298 301 302 300 295 296 292 288 291 297 299 295 297 298 297 295 291
312 312 313 313 312 312 312 311 310 307 305 308 306 302 307 308 306 301 298 299 297 301 300 301 300 301 298 294 297 295 295 299 300 299 301 298 293 292 287 292 295 292 294 296 295 290 291
311 311 312 312 312 312 312 311 310 307 305 308 305 300 301 299 299 299 299 297 294 293 299 300 297 297 295 291 293 293 295 297 300 301 299 294 288 293 294 295 294 293 293 293 291 293 289
309 309 309 311 312 312 312 311 310 306 304 309 302 301 303 300 297 297 295 295 292 293 293 293 293 295 296 291 292 290 293 294 292 298 297 296 288 292 290 293 293 290 292 291 292 292 292
308 308 308 309 311 312 312 311 311 306 305 308 308 308 303 296 295 296 296 294 293 295 296 297 295 293 293 295 297 298 300 299 296 293 292 292 291 289 286 291 289 286 290 291 292 294 293
307 307 308 307 308 310 311 311 311 306 305 308 306 306 300 295 295 293 294 294 292 293 291 296 297 294 298 301 302 301 300 297 296 296 295 289 290 289 286 288 279 291 298 297 295 295 296
306 307 307 307 308 308 309 311 311 308 304 308 306 305 299 294 296 295 294 293 294 295 294 296 297 300 300 295 291 290 293 294 295 297 295 291 288 286 285 284 288 291 294 295 294 295 299
306 306 307 307 307 307 306 308 311 310 306 306 306 308 304 296 295 298 296 296 293 292 293 294 299 302 299 294 289 284 284 289 289 288 294 293 291 288 287 281 280 292 297 301 300 290 301
305 305 306 307 307 306 305 306 308 310 307 306 304 308 303 295 300 299 294 293 296 294 290 293 294 295 297 291 285 286 287 292 287 287 285 286 286 284 284 284 289 296 299 300 287 292 301
304 304 305 306 306 305 305 305 306 307 309 304 303 306 301 296 299 300 299 295 294 293 288 293 292 292 290 287 287 290 289 290 288 290 289 287 285 285 286 283 281 299 298 292 299 303 302
304 304 304 304 304 305 305 305 305 307 308 306 300 304 305 297 297 304 304 304 301 299 294 293 293 292 292 289 289 290 289 291 289 286 295 288 292 289 289 291 298 302 301 304 304 301 301

GFSGBSN_sfc_thetae_102.txt.gz
Theta_e
314 314 314 314 314 314 315 314 314 314 315 315 314 315 316 316 316 315 314 314 313 313 313 314 314 315 312 309 307 324 329 326 315 313 310 310 307 306 303 305 306 304 306 308 309 309 309
315 315 315 315 314 314 314 313 313 314 314 314 315 314 314 315 315 316 315 314 313 312 313 313 314 315 309 301 318 320 318 315 313 314 313 311 308 309 306 306 305 307 307 307 308 308 308
316 316 316 315 315 314 314 313 312 313 313 313 314 314 314 314 315 315 316 314 314 313 313 314 315 314 309 307 313 321 318 317 319 318 311 311 313 310 308 304 309 307 303 305 306 306 305
317 316 316 316 316 315 314 313 313 312 313 313 313 313 313 313 314 314 314 315 314 314 314 314 316 314 309 319 318 314 320 318 319 315 314 317 316 311 309 310 308 304 303 298 305 306 307
317 316 316 316 316 316 315 314 313 313 313 313 313 312 312 312 312 314 314 314 314 314 314 315 314 312 308 316 311 312 320 315 313 315 316 316 313 308 308 303 301 303 296 298 301 307 306
317 317 317 317 316 316 315 314 314 314 313 313 313 312 312 312 312 313 312 314 317 314 314 318 316 310 314 311 313 310 317 317 311 311 309 308 307 303 303 301 292 296 298 299 299 304 305
318 318 317 317 317 316 315 315 314 314 314 314 314 313 312 311 311 311 311 314 313 312 314 309 311 309 312 316 315 309 312 315 312 308 301 306 301 298 301 303 302 301 300 299 303 306 303
318 318 317 317 317 316 315 315 315 314 314 314 314 313 312 311 311 311 310 310 313 314 305 314 313 313 315 314 308 308 312 308 307 301 304 302 299 304 305 305 303 302 299 298 302 305 303
318 318 317 317 317 316 315 315 315 314 314 314 313 313 312 311 310 309 310 313 319 317 306 308 312 311 311 312 306 307 310 308 304 301 302 300 303 307 304 302 301 301 299 299 298 302 304
317 317 317 317 315 315 316 315 315 315 314 314 313 312 311 310 308 317 314 319 321 318 300 304 306 308 311 310 304 312 311 308 304 300 303 302 306 304 302 300 301 296 303 302 300 298 293
317 317 316 315 315 315 315 315 315 314 314 313 313 312 311 309 309 313 317 321 320 317 291 306 306 315 312 306 307 306 313 307 301 301 302 298 301 301 300 301 303 299 303 301 301 298 297
316 316 316 315 315 315 314 314 314 314 313 313 313 312 309 313 311 315 320 320 316 300 292 303 307 305 304 306 306 308 308 310 307 302 303 301 305 302 301 303 303 304 301 300 300 297 291
316 316 315 315 315 314 314 313 313 313 313 312 312 311 307 314 314 321 320 313 298 294 307 301 303 304 304 302 304 304 303 301 298 294 294 300 300 304 304 299 303 301 298 289 288 290 289
315 315 315 315 314 314 313 313 313 312 312 312 310 307 312 316 321 320 316 303 294 302 302 307 305 305 301 304 304 303 302 300 303 301 297 295 293 301 304 300 298 299 298 291 285 288 291
314 314 314 315 314 314 313 312 312 311 311 310 307 317 318 320 321 319 309 298 299 301 304 302 303 300 301 303 302 302 301 301 304 304 297 296 296 305 306 307 305 299 296 301 294 295 292
313 314 314 314 314 314 313 312 312 312 311 309 306 315 317 322 321 315 306 300 302 305 304 303 298 301 297 301 301 300 300 304 303 305 307 301 294 302 304 306 305 302 302 292 294 286 286
312 313 313 313 313 313 313 313 312 312 309 306 309 313 318 322 320 311 302 303 303 307 306 302 301 300 300 299 300 299 299 303 305 304 305 303 299 297 302 299 298 299 297 298 297 294 287
311 311 312 313 313 312 312 312 312 310 307 308 314 307 320 322 308 310 304 306 300 304 307 305 304 302 301 301 299 298 298 301 305 305 300 303 299 293 295 302 304 303 300 299 292 291 295
311 311 311 312 312 311 312 312 312 311 308 305 308 309 320 319 301 305 307 305 305 303 304 303 302 303 304 300 296 299 299 304 304 303 301 302 296 290 292 298 301 298 300 300 299 297 292
311 311 311 311 311 311 311 312 311 310 309 307 308 303 310 311 310 305 303 301 302 306 302 303 302 303 301 299 301 297 298 302 304 303 305 303 297 292 287 292 296 294 297 299 296 291 292
310 309 310 310 310 310 311 311 311 310 309 307 309 305 307 301 304 304 303 301 299 298 303 303 300 300 299 295 297 297 299 300 302 303 303 301 290 293 294 295 295 295 294 295 294 296 291
310 309 309 309 309 309 310 310 311 311 308 307 303 303 306 302 304 302 298 299 298 299 298 298 298 299 299 295 296 293 296 297 296 301 298 301 290 293 291 294 294 292 294 295 296 296 296
308 308 308 308 309 309 309 309 310 311 308 308 309 311 304 301 302 299 301 300 299 299 300 301 299 297 296 298 301 301 302 301 300 297 296 295 291 291 286 293 292 289 295 296 297 298 297
307 307 307 308 308 308 308 309 309 310 310 309 309 306 301 296 300 300 299 299 298 299 297 300 300 298 301 306 304 303 301 300 300 299 299 293 291 290 286 289 281 293 300 300 297 298 299
306 306 306 307 307 308 308 308 308 309 311 310 310 306 302 296 299 300 299 299 299 299 298 299 300 303 305 301 295 293 295 296 298 299 298 299 295 286 283 285 290 293 297 296 296 295 301
305 306 306 306 306 307 308 308 307 308 309 309 311 312 305 297 298 301 299 299 296 296 297 299 303 305 302 296 292 287 287 291 292 294 300 298 297 287 286 283 281 294 300 302 300 290 303
305 305 305 305 306 306 307 308 306 306 308 306 308 314 307 298 301 302 298 297 300 297 295 298 298 298 301 293 290 287 288 294 289 289 290 290 288 284 284 284 289 298 301 303 288 292 302
304 304 305 305 305 306 307 307 306 306 306 307 305 311 307 300 301 304 303 299 299 297 292 297 296 296 296 290 290 290 290 294 293 294 292 291 288 286 286 284 283 301 300 293 299 303 303
304 304 305 305 305 305 305 305 305 305 306 308 302 311 308 301 300 307 308 309 306 305 299 298 298 296 298 294 293 293 291 293 292 287 298 290 294 291 292 292 301 302 302 306 305 302 302

GFSGBSN_sfc_thetae_105.txt.gz
Theta_e
317 317 317 316 315 315 315 315 314 314 314 313 313 314 314 314 315 316 316 314 314 314 314 313 313 314 310 303 303 322 333 331 315 308 303 301 302 300 295 297 299 297 300 304 305 304 302
317 317 316 316 316 316 315 315 314 314 314 314 314 313 313 313 314 315 315 316 313 314 313 313 313 315 306 296 316 322 315 311 309 306 304 303 303 303 299 298 296 300 302 302 303 302 302
318 317 317 317 317 316 316 315 314 314 314 314 314 314 313 313 313 314 314 314 313 313 314 314 314 313 305 302 315 315 313 308 309 310 310 310 308 302 303 297 301 301 297 300 301 301 300
318 318 318 317 317 317 316 315 314 314 314 314 314 314 313 313 313 313 313 314 314 314 315 315 315 310 302 317 314 312 313 313 314 311 313 311 308 305 301 302 302 298 295 289 297 301 303
319 319 318 318 317 317 316 316 315 314 314 315 315 314 314 313 312 312 313 312 315 315 315 315 310 306 304 316 310 310 312 312 314 313 310 315 308 302 303 295 292 294 289 292 296 302 302
319 320 319 319 318 317 316 316 315 315 315 315 315 314 314 313 312 312 311 313 316 314 314 315 314 304 310 309 312 311 308 315 310 307 307 305 300 295 294 290 285 290 291 294 295 299 300
319 319 319 319 319 317 316 316 316 316 315 315 315 315 314 313 313 311 308 307 309 307 311 306 307 306 310 316 313 307 308 311 311 304 296 300 293 290 294 296 297 297 295 293 296 301 298
318 318 318 318 318 317 316 316 316 316 316 315 315 315 314 313 312 311 306 302 309 308 302 312 312 311 314 316 307 307 307 304 304 297 299 296 292 299 302 301 299 297 294 293 297 301 297
317 317 317 317 317 316 316 316 315 315 315 315 314 314 314 313 311 307 303 306 312 312 300 305 311 310 309 311 305 305 304 303 301 298 297 293 297 303 302 299 298 296 294 294 295 299 298
316 317 317 316 315 315 315 315 315 315 315 314 313 313 313 312 305 308 307 313 311 312 294 301 305 309 310 309 303 311 310 304 301 297 298 297 302 301 300 298 298 292 299 298 298 294 287
316 316 316 315 315 314 314 314 315 314 314 313 313 313 312 311 302 304 313 315 314 309 285 304 304 312 309 304 305 305 311 306 298 299 298 296 298 297 296 297 299 296 301 297 297 292 289
316 316 315 315 315 314 314 313 313 313 312 313 313 313 312 309 305 307 313 313 310 294 287 301 305 303 301 303 304 305 306 308 306 300 299 298 303 299 298 301 301 302 298 296 294 289 284
315 315 315 314 314 314 313 313 313 313 312 313 313 312 309 308 307 315 316 308 292 289 306 301 300 302 301 300 301 302 301 298 294 290 292 298 299 301 303 296 299 296 290 283 282 283 283
315 314 314 314 314 313 313 312 312 312 312 312 311 309 308 309 312 313 310 299 288 301 301 307 304 302 298 301 300 301 299 295 299 297 293 291 290 299 304 299 295 295 293 285 279 280 284
313 313 313 314 313 313 313 312 312 311 311 310 308 309 312 315 314 313 303 291 297 301 302 301 302 298 298 302 302 300 298 297 301 302 294 293 294 304 305 305 302 296 293 297 289 289 284
312 311 311 312 312 313 312 312 312 311 311 309 303 304 312 320 318 311 300 296 302 304 304 303 295 300 296 300 300 298 298 303 301 305 303 298 291 300 302 303 303 298 300 291 290 281 279
312 312 311 311 311 312 312 312 312 311 309 307 303 305 314 318 316 306 295 300 304 305 305 301 299 298 299 298 298 297 299 302 303 301 302 297 294 295 299 296 294 295 294 294 292 290 281
312 312 311 311 311 310 311 311 311 311 308 306 303 302 315 318 302 304 300 304 304 303 306 304 304 301 298 299 296 296 297 299 304 303 296 297 294 289 293 299 301 297 294 296 289 287 288
312 311 311 310 310 309 309 310 310 310 309 304 298 305 317 315 296 299 306 304 306 303 302 302 301 302 301 296 291 297 298 303 303 302 299 297 290 283 287 292 298 295 297 295 296 294 289
311 311 310 310 310 308 309 309 310 310 309 305 300 300 307 308 306 301 301 300 300 305 301 302 301 301 297 294 297 294 297 301 302 303 307 302 292 288 282 288 292 291 294 295 294 288 290
310 310 310 310 308 308 308 309 309 309 309 305 302 302 304 297 300 301 300 299 298 298 302 301 298 299 295 289 292 292 297 297 301 305 300 295 287 290 291 293 293 291 291 292 290 291 287
308 308 308 308 308 309 309 309 309 308 308 303 301 299 301 298 302 300 298 297 297 298 298 297 295 298 296 290 291 289 292 292 292 297 296 299 288 289 288 292 292 290 292 292 293 292 292
308 308 307 308 308 308 308 308 309 309 308 305 306 307 301 299 298 297 297 299 298 298 300 300 297 295 294 295 297 296 296 296 295 292 291 293 291 288 284 290 289 283 289 291 293 295 294
306 307 307 307 307 308 308 309 308 308 309 308 306 304 297 294 297 297 299 299 298 297 294 297 297 293 298 301 299 297 295 296 295 294 296 290 290 288 283 285 276 288 296 296 295 297 298
305 306 306 306 306 307 307 308 308 308 309 308 308 305 300 293 297 297 298 298 298 297 295 296 299 300 300 295 289 287 289 290 293 295 294 293 290 286 282 278 286 289 295 295 292 293 299
305 305 305 306 306 306 306 307 308 307 307 307 307 310 303 295 295 299 297 298 293 292 294 297 300 301 297 291 288 281 281 288 290 293 300 297 295 287 285 280 277 290 298 302 298 287 301
304 304 304 305 306 306 306 307 307 307 307 306 305 310 304 296 299 300 295 295 298 295 291 296 295 293 296 289 285 283 284 292 284 287 288 288 287 285 284 282 286 296 299 303 287 287 300
304 303 304 305 305 306 306 306 306 306 306 305 304 308 304 298 298 301 303 298 297 295 289 294 291 293 292 285 286 287 285 288 288 293 291 288 284 282 284 282 278 300 298 292 296 300 300
304 304 304 304 305 305 305 305 305 305 306 307 301 309 308 300 298 303 303 305 303 303 297 295 294 295 295 289 288 290 287 287 286 280 293 285 290 288 287 285 296 300 298 300 300 299 298

GFSGBSN_sfc_thetae_108.txt.gz
Theta_e
318 318 318 317 317 316 316 316 315 314 315 314 314 314 314 313 313 314 314 315 315 313 314 313 312 312 308 300 299 311 335 329 323 306 301 298 295 297 293 294 295 292 297 299 302 302 301
320 319 318 318 317 317 317 316 316 315 315 315 314 314 314 314 313 314 314 314 315 313 314 313 313 313 304 290 306 322 320 317 308 303 301 298 300 302 298 297 294 297 298 299 300 300 299
320 320 319 319 318 317 317 316 316 316 315 315 315 315 314 314 314 314 314 313 313 314 312 314 313 313 304 298 311 317 310 304 305 306 303 303 303 301 299 298 299 298 294 297 298 299 298
320 320 320 319 318 318 317 317 316 316 316 316 316 315 315 315 315 314 313 313 312 315 314 314 314 309 299 313 311 308 308 307 308 307 308 310 308 301 300 301 300 295 293 288 295 299 301
320 320 319 318 318 318 317 317 316 316 315 316 316 315 315 315 315 314 313 312 313 317 315 314 307 303 301 318 312 312 310 309 309 307 307 312 307 301 301 294 289 291 287 290 295 299 298
319 319 319 318 318 317 317 316 316 316 316 315 315 315 315 315 314 314 312 311 313 315 313 314 312 301 306 308 311 309 311 312 309 308 304 303 297 294 292 289 284 288 288 291 291 296 296
318 317 317 318 318 317 317 316 316 316 316 316 315 314 313 314 314 313 308 302 306 305 307 302 304 304 308 315 315 308 306 305 308 301 294 297 291 289 291 293 294 293 291 291 295 298 295
317 317 317 317 316 316 315 315 315 316 316 315 315 314 313 313 313 313 307 298 305 304 300 310 309 307 309 314 307 304 306 299 302 294 296 293 289 295 297 297 295 294 291 291 294 298 296
316 316 316 316 316 315 315 315 315 315 315 314 314 313 312 312 312 306 302 302 308 309 298 304 311 309 309 311 306 303 302 300 300 296 294 290 294 300 298 296 295 294 291 292 292 297 296
316 316 316 315 314 314 315 315 315 314 313 312 311 312 312 311 305 302 302 310 308 307 292 299 302 308 310 309 303 310 303 299 298 296 296 293 299 298 296 295 297 292 297 296 295 291 286
316 316 315 314 314 314 314 314 314 313 312 312 311 312 311 312 303 299 309 309 307 304 283 304 303 312 308 303 303 304 309 303 296 297 296 293 295 295 294 295 298 293 298 296 295 289 286
315 315 315 314 314 314 313 313 313 312 311 311 311 311 311 306 304 304 309 309 307 293 285 299 303 301 301 304 303 304 304 305 305 298 297 296 301 298 297 299 299 299 295 292 290 287 281
314 314 314 313 313 313 313 312 311 311 311 311 311 312 309 308 300 308 307 305 290 286 304 298 298 299 299 298 300 300 298 295 292 288 289 295 296 299 300 295 297 295 288 281 280 280 280
314 312 311 311 311 312 312 312 311 310 310 310 310 309 306 307 306 306 306 296 284 298 300 307 303 299 295 298 298 298 296 293 297 294 289 288 288 298 302 297 293 291 288 282 277 278 281
313 312 311 311 311 311 311 311 310 310 309 309 308 302 304 307 308 308 301 289 291 300 302 300 301 295 295 299 299 297 295 295 297 297 289 291 292 302 305 305 301 295 289 292 286 286 281
313 312 312 312 311 310 309 310 310 311 309 309 302 299 303 314 312 307 297 294 299 306 303 302 295 300 296 298 299 298 296 302 300 302 301 296 290 299 301 302 300 297 299 289 287 279 277
313 312 312 311 311 309 308 308 310 310 309 308 298 301 312 316 313 302 293 298 304 308 305 301 298 296 297 298 298 297 299 299 303 300 300 295 292 293 297 294 292 293 291 292 291 289 281
313 312 312 311 310 308 308 308 309 309 308 304 297 297 313 314 298 299 296 304 305 305 306 303 302 300 297 296 295 294 296 298 303 301 295 295 292 288 292 298 299 294 291 292 286 283 287
312 311 311 311 310 309 307 307 309 309 308 303 293 297 312 311 294 295 303 302 305 305 301 300 300 300 299 295 290 296 297 302 301 301 296 295 287 281 284 292 296 293 294 296 295 293 289
309 309 310 309 309 308 307 308 308 308 308 305 294 294 302 304 303 298 299 299 299 306 302 301 299 299 295 293 294 292 295 300 302 302 306 299 289 285 280 285 290 289 291 291 292 288 289
308 308 307 308 308 308 309 309 308 308 307 305 296 297 300 295 298 297 298 299 297 298 299 299 296 296 294 288 290 290 293 294 300 304 297 292 285 287 289 291 291 290 290 290 288 288 285
306 306 307 307 307 307 308 308 307 307 307 300 297 295 298 298 301 298 296 295 297 297 297 295 293 296 293 289 290 288 290 290 290 296 292 292 285 288 286 291 290 288 290 291 291 290 290
306 306 306 307 307 306 307 308 308 307 306 298 303 302 296 295 297 296 294 297 296 297 297 297 294 292 292 293 294 292 293 294 293 291 289 288 287 284 280 288 287 282 286 288 290 292 291
305 305 306 305 306 306 306 307 308 307 307 305 304 301 294 292 295 294 297 298 296 295 293 296 295 292 296 297 295 293 290 292 292 291 292 287 285 283 279 282 274 286 293 294 293 297 296
304 305 305 305 305 306 306 307 307 307 307 303 305 303 296 289 295 295 296 296 295 296 294 295 297 298 296 294 287 284 286 287 290 292 290 291 286 283 279 275 283 288 294 293 291 291 298
304 304 304 304 305 306 306 306 307 307 307 299 304 304 299 293 292 298 296 295 290 290 292 294 297 298 295 289 285 280 279 287 288 290 295 292 293 287 285 277 276 286 297 301 296 284 298
304 304 304 304 305 306 306 306 307 307 307 300 303 305 299 292 295 296 293 293 295 292 289 291 293 292 293 284 279 280 281 290 282 285 287 288 287 285 285 283 286 293 298 301 284 285 298
304 304 304 304 305 305 306 306 306 306 306 301 299 304 302 294 294 299 300 296 295 293 287 291 289 289 288 281 283 285 282 284 285 290 289 288 284 282 285 281 279 298 296 290 293 298 299
304 304 304 304 304 305 305 306 306 306 306 305 295 304 306 298 295 299 300 301 301 300 294 291 290 292 293 288 288 288 285 284 283 277 293 282 288 287 284 282 291 297 295 297 296 295 296

GFSGBSN_sfc_thetae_111.txt.gz
Theta_e
320 320 320 319 318 318 317 317 317 315 315 315 315 315 316 315 315 314 314 314 314 314 313 313 312 311 308 297 295 303 335 330 318 313 302 298 294 294 293 294 294 291 296 298 300 299 297
321 320 320 320 318 318 318 317 317 317 316 316 316 316 316 316 316 315 314 314 313 313 312 313 312 312 302 288 299 315 319 318 316 302 300 298 296 298 296 296 293 296 296 298 298 297 297
321 321 320 319 318 318 318 318 317 317 317 316 316 316 316 316 315 315 315 314 313 312 313 313 313 310 303 298 308 314 315 311 308 305 300 300 300 301 299 295 297 296 293 295 296 298 297
321 320 319 318 317 317 318 318 317 317 316 316 316 315 316 316 315 314 314 314 313 313 313 313 314 309 299 310 310 308 305 303 305 304 304 302 302 298 297 298 297 293 292 287 295 297 299
320 319 318 318 317 317 316 317 316 316 316 315 315 314 314 314 314 314 314 313 312 314 315 314 308 302 297 315 311 311 308 305 304 304 304 309 304 300 298 294 290 290 286 289 293 298 297
318 317 317 317 317 316 315 315 315 316 316 316 314 313 314 313 313 313 313 311 311 315 313 313 311 300 302 305 311 311 308 309 306 303 303 301 296 293 290 290 284 287 287 290 291 295 295
317 316 316 316 316 316 315 315 315 315 315 315 315 313 313 313 313 312 310 301 304 301 306 301 303 302 305 313 313 306 309 307 306 301 294 295 291 288 292 293 294 292 290 290 293 296 294
316 316 316 316 315 315 315 315 315 315 315 313 313 313 312 312 312 312 310 298 302 303 298 307 307 306 308 311 306 306 307 300 298 293 294 291 288 294 295 295 293 292 289 289 293 295 293
316 315 315 315 314 314 314 314 314 314 313 312 312 312 312 312 311 306 303 301 307 305 296 303 308 307 307 308 304 305 301 298 297 293 291 289 292 297 295 293 293 291 289 289 291 295 294
315 315 315 315 314 314 314 314 314 313 312 312 311 311 311 312 304 301 300 307 307 305 291 297 304 307 309 309 303 309 302 299 296 294 293 291 295 295 293 293 293 288 295 295 293 289 284
315 315 315 314 313 313 313 313 313 312 311 311 311 311 311 311 304 300 306 306 304 301 282 301 302 312 308 303 303 304 304 299 294 295 294 292 293 293 292 293 296 292 296 294 293 288 285
314 314 313 311 311 311 312 312 312 311 310 310 310 310 311 307 304 305 307 306 305 292 284 298 302 301 300 301 301 303 303 304 302 296 294 294 298 296 295 297 297 298 293 290 287 285 280
314 313 312 311 310 311 311 311 310 310 310 310 310 310 308 308 298 304 303 302 291 285 301 296 296 299 298 298 299 299 297 294 292 289 289 294 294 297 299 293 295 292 286 280 279 279 279
314 314 313 312 312 312 310 308 308 309 309 309 309 308 306 307 306 307 303 296 285 295 299 306 300 298 294 297 296 297 295 291 294 293 288 288 288 296 299 296 292 289 287 281 277 277 280
314 314 313 313 312 311 310 308 308 307 308 308 307 300 300 304 308 304 298 288 289 298 303 302 300 294 293 297 296 295 293 292 295 294 288 287 289 301 302 303 301 293 286 289 284 284 281
313 314 314 313 312 310 309 308 307 308 308 308 303 298 299 308 308 304 296 292 297 304 306 302 295 298 292 295 296 292 292 299 298 299 298 294 288 298 300 300 300 297 298 288 285 279 277
312 313 312 312 311 310 310 307 308 308 308 307 296 296 308 310 309 300 292 296 302 308 306 301 298 296 297 296 297 295 295 298 300 299 299 294 291 291 295 292 291 292 289 290 289 285 279
309 309 309 309 309 310 309 307 308 308 306 305 297 291 311 312 297 297 296 302 303 304 307 303 302 300 297 296 294 295 296 298 302 302 294 294 290 286 289 294 297 292 290 290 285 284 283
308 308 309 308 308 307 307 308 308 308 307 302 294 294 308 311 294 296 300 302 305 302 302 301 299 299 299 295 291 295 296 301 302 301 296 295 287 281 281 289 292 291 291 293 290 290 288
306 307 307 307 308 307 307 308 308 307 306 303 295 293 302 305 302 297 298 299 299 305 302 301 298 298 295 293 293 293 294 299 302 301 304 298 287 283 278 283 288 286 289 290 288 283 287
305 306 306 307 307 307 307 308 308 307 306 303 295 297 299 294 298 297 297 298 298 297 301 299 295 296 294 289 290 289 292 294 300 302 296 291 284 286 288 290 290 288 288 288 286 289 284
304 304 305 306 306 306 307 307 307 307 306 302 296 297 300 297 300 297 295 294 296 296 296 294 293 294 293 289 289 287 289 289 290 294 290 290 283 285 284 289 288 287 288 288 288 289 288
304 304 305 305 305 305 306 306 306 307 305 300 302 303 297 296 296 296 295 294 296 295 296 297 295 293 292 292 293 292 291 292 291 291 288 287 285 281 279 286 285 280 284 286 288 289 288
305 305 305 305 305 305 306 306 306 307 306 302 303 302 295 290 295 294 296 297 296 295 293 296 295 292 296 297 293 291 288 290 291 290 291 286 283 281 279 280 274 284 292 292 291 294 294
305 304 304 304 305 305 306 307 306 307 306 301 302 302 298 288 293 295 296 296 294 295 294 294 296 297 296 291 285 283 284 286 288 289 289 289 283 282 278 278 282 287 293 292 289 289 296
305 305 304 304 304 305 306 306 307 307 306 297 301 305 300 294 291 295 296 295 289 290 292 293 297 297 294 288 285 280 279 285 287 288 291 291 290 282 284 276 274 285 295 299 295 283 295
304 304 304 304 305 305 306 306 306 306 306 300 299 305 300 293 294 295 293 293 294 291 288 290 292 292 292 284 280 280 281 288 281 283 285 285 286 283 284 282 284 291 296 299 281 282 294
304 304 304 304 304 305 306 306 306 306 306 302 297 302 302 296 294 298 298 296 296 291 286 290 289 290 287 280 281 281 281 282 284 290 290 287 285 283 286 282 280 296 295 287 290 293 296
304 304 303 304 304 305 305 306 306 306 307 304 294 304 304 298 296 298 299 301 300 298 292 290 290 290 290 284 285 287 286 282 281 277 293 283 286 281 283 282 289 295 295 296 295 294 295

GFSGBSN_sfc_thetae_114.txt.gz
Theta_e
321 321 321 320 320 318 318 318 317 317 317 316 316 316 316 315 315 315 314 315 315 314 313 312 312 312 307 296 295 300 331 323 316 310 299 296 294 294 293 296 295 293 296 298 300 299 297
321 321 321 320 318 317 317 318 318 318 317 317 316 315 315 315 315 315 315 314 314 314 313 312 312 311 300 289 299 313 324 315 313 303 299 297 295 298 296 295 294 295 297 298 297 297 294
321 321 319 318 317 316 317 317 317 317 316 316 316 316 314 314 314 315 315 314 314 313 313 313 313 309 302 296 307 314 314 309 311 302 299 298 299 299 298 294 296 295 293 295 295 296 296
321 319 317 317 317 317 317 316 316 316 316 316 315 315 314 314 314 314 314 314 314 314 313 313 315 307 297 309 309 307 308 303 306 302 302 301 300 297 296 297 296 293 291 288 294 296 298
320 317 317 317 317 317 316 315 315 315 315 316 314 314 314 313 313 313 313 313 313 316 314 314 308 303 295 312 309 311 306 302 302 302 302 305 300 296 297 293 289 290 286 288 293 297 297
318 316 316 316 316 316 315 315 315 315 315 315 314 314 313 313 313 313 313 313 311 315 312 311 310 300 301 302 310 308 306 304 301 300 298 298 296 292 290 289 283 287 288 289 290 295 294
316 316 316 316 316 315 314 314 315 315 315 314 313 312 312 312 312 312 310 302 304 302 305 299 300 301 303 309 311 306 307 305 304 298 292 295 290 287 290 292 293 292 290 289 292 295 292
316 315 316 315 315 314 314 314 314 314 314 313 313 312 312 312 312 312 309 300 300 300 296 305 305 304 307 309 303 305 308 300 298 292 293 289 287 293 295 294 293 291 289 288 292 295 292
315 315 315 315 314 314 313 313 313 313 313 312 311 312 312 312 311 306 304 301 305 304 293 300 306 304 306 307 302 303 304 298 295 291 290 287 291 296 294 292 291 289 288 289 290 293 292
315 315 315 314 312 311 311 312 312 312 312 310 311 310 312 311 303 302 300 306 306 304 289 295 302 306 307 306 301 308 302 299 295 291 290 289 293 294 292 291 292 286 293 294 292 289 284
315 315 314 313 311 311 311 311 311 311 311 310 310 310 311 311 304 300 303 304 303 299 281 299 302 310 309 303 303 302 300 296 293 294 293 290 292 290 289 292 294 291 295 292 292 287 284
315 315 314 313 312 312 311 311 309 309 309 308 309 309 310 307 305 304 305 304 303 289 282 296 301 300 300 302 303 302 299 300 299 294 293 293 296 295 294 295 295 296 291 288 286 284 280
315 315 314 314 313 312 312 310 309 309 308 308 308 308 307 307 299 303 304 300 289 284 298 295 295 299 298 297 298 299 296 294 291 287 286 291 292 295 297 291 293 290 285 279 278 278 279
313 313 313 313 313 313 311 310 308 307 307 307 307 306 306 306 306 304 301 294 285 292 295 305 299 299 294 296 296 296 293 290 293 293 290 287 285 293 297 294 290 288 287 280 276 277 279
311 312 312 313 312 312 311 309 308 306 306 308 307 303 298 300 306 304 298 289 288 294 303 300 299 293 292 295 295 294 292 291 294 294 289 288 290 300 301 299 297 289 284 288 282 283 280
310 309 309 309 310 310 310 309 308 306 307 307 302 299 297 305 307 301 297 292 294 303 304 302 294 296 290 294 293 291 291 296 297 297 297 294 289 298 300 300 298 294 294 286 284 278 277
307 307 308 308 308 308 308 308 307 308 307 306 301 292 303 307 306 299 292 293 299 306 306 301 297 296 295 295 295 293 292 297 299 297 297 293 290 291 294 291 290 292 289 288 287 283 278
306 306 307 307 307 307 307 307 308 308 306 304 298 288 307 307 297 295 292 299 301 304 306 303 302 299 298 295 294 294 294 296 301 299 293 293 289 286 289 293 296 291 289 289 283 282 281
305 305 306 306 307 307 307 307 307 307 306 300 293 294 305 310 292 292 298 300 303 302 302 300 298 300 299 295 292 295 295 299 301 300 295 295 287 281 281 288 292 289 290 290 288 286 283
304 305 305 305 306 307 307 306 306 306 306 301 295 289 301 304 302 297 296 297 298 305 303 302 298 298 295 293 295 294 294 300 302 301 304 300 289 284 280 282 287 286 288 288 286 281 282
304 305 305 305 306 306 306 306 306 306 306 301 296 294 299 293 297 298 297 296 296 296 301 301 296 296 293 289 290 290 293 296 298 301 296 292 285 285 286 289 289 287 287 287 285 285 282
306 305 305 305 305 306 306 306 306 306 306 300 295 296 299 296 298 298 296 294 296 296 295 294 293 294 293 289 290 288 290 291 291 294 291 290 284 284 283 288 287 286 287 287 287 287 286
306 306 305 306 306 306 306 307 307 306 305 299 299 304 298 295 295 295 294 294 293 297 297 298 296 293 291 291 292 292 292 291 293 292 288 287 285 282 280 285 284 280 284 286 286 288 287
306 306 305 305 305 306 306 307 307 307 305 301 300 300 296 290 294 293 295 295 293 294 292 296 296 292 295 296 293 292 291 291 292 290 291 285 283 281 278 280 274 282 290 291 288 291 292
305 305 305 305 305 305 306 307 307 307 306 299 300 299 296 289 292 294 295 292 295 295 294 294 295 295 295 291 285 282 284 286 287 289 289 288 282 281 274 276 281 285 291 290 288 288 295
304 305 305 304 305 305 306 306 306 306 307 297 299 304 300 293 290 295 294 295 290 291 293 294 296 296 294 288 285 279 279 284 285 287 291 289 286 279 282 279 273 284 293 298 294 283 295
304 305 304 304 305 305 306 306 306 306 306 301 299 303 299 292 293 296 293 291 294 290 289 292 292 291 291 285 280 280 281 287 282 282 284 285 282 280 284 281 284 289 294 298 280 282 294
304 304 304 304 304 305 306 306 306 307 307 303 298 302 300 295 295 299 299 296 295 291 288 289 289 290 286 280 282 281 281 281 282 289 288 285 283 284 285 282 278 295 294 288 289 291 295
304 304 304 304 304 305 305 306 306 306 306 303 294 303 302 297 294 297 300 301 300 300 293 290 288 289 288 283 282 283 280 281 281 277 291 286 285 282 284 283 289 294 292 295 294 294 295

GFSGBSN_sfc_thetae_117.txt.gz
Theta_e
322 322 322 320 319 317 317 316 316 317 317 317 316 316 316 316 316 316 316 315 315 315 314 313 313 312 306 298 298 306 318 326 315 314 303 303 303 307 305 305 301 297 299 300 303 303 304
322 322 319 318 318 318 316 316 316 316 316 316 316 316 315 315 315 315 315 315 314 314 314 314 313 312 303 293 305 316 324 318 313 307 303 303 304 305 305 302 302 300 301 301 301 302 303
321 320 318 317 317 317 317 316 316 316 315 316 316 315 315 315 314 314 315 315 314 313 314 314 314 309 302 300 309 312 319 314 314 305 301 304 305 305 303 298 303 300 296 298 299 300 300
321 319 317 317 317 317 316 315 315 316 316 316 316 315 315 314 314 314 314 314 313 314 315 314 315 307 299 311 314 311 315 312 313 306 305 305 306 304 303 304 300 296 297 292 300 300 301
320 317 316 316 317 316 316 314 314 315 315 316 315 314 314 314 313 313 313 313 313 316 314 315 310 304 298 313 309 312 312 307 306 305 307 306 304 301 303 299 296 297 292 293 296 300 301
318 317 316 316 316 316 315 314 314 314 314 314 315 314 313 313 313 313 312 312 312 314 312 312 309 300 304 302 310 311 311 307 302 303 302 301 300 296 298 297 289 292 293 295 294 298 298
317 316 316 316 315 315 314 314 314 314 314 313 313 313 312 313 313 312 310 306 303 302 305 301 301 301 303 308 313 308 307 305 304 301 295 299 293 291 295 298 298 297 295 294 297 299 298
316 315 315 316 315 313 312 311 313 312 312 312 312 312 311 312 312 312 309 300 303 304 299 305 305 304 307 309 305 305 309 303 299 293 298 295 291 297 300 299 298 297 295 294 297 299 299
315 315 315 315 314 313 312 312 312 312 312 311 311 311 311 311 312 309 304 303 309 308 299 301 305 304 304 307 303 303 306 304 298 295 296 293 296 301 298 297 296 296 295 294 294 297 299
315 315 315 315 314 313 312 312 312 311 311 310 310 310 311 311 306 305 302 308 310 308 294 297 301 305 307 308 303 310 309 305 300 297 297 297 298 298 297 296 298 293 298 297 296 294 291
314 315 315 314 314 314 313 313 312 311 310 310 309 309 310 310 304 300 306 309 308 306 284 300 302 312 309 304 304 302 308 304 298 297 298 295 295 296 295 296 298 295 299 298 297 294 293
312 313 313 313 313 313 313 312 311 311 309 308 308 308 309 305 306 307 310 309 307 292 284 296 303 301 301 303 303 300 301 304 305 299 300 298 301 300 298 300 300 300 297 295 294 294 289
311 311 312 312 312 312 312 311 311 310 309 308 306 309 306 306 300 308 308 302 291 287 299 297 298 301 300 299 301 299 296 296 295 292 293 296 298 301 301 297 299 298 296 289 287 287 286
309 309 309 309 309 310 309 309 309 309 309 307 307 307 306 305 308 308 304 296 286 294 295 303 300 300 296 300 300 300 295 293 297 297 294 291 289 298 301 299 296 297 296 289 282 284 288
307 308 307 308 308 308 308 308 308 307 307 307 306 304 302 305 308 307 299 289 292 295 300 300 300 295 295 298 299 299 297 294 296 299 292 291 291 300 301 302 301 295 293 298 291 290 289
305 306 306 306 307 307 307 307 307 307 307 306 302 299 300 307 307 301 294 293 296 301 304 303 295 298 292 295 295 295 295 298 296 300 303 296 290 299 301 303 301 299 299 292 293 285 283
305 304 305 306 305 306 307 307 307 307 307 306 300 294 304 308 307 299 292 296 299 304 305 300 298 297 296 295 296 295 295 298 301 299 303 301 297 295 299 296 297 296 295 296 296 294 288
305 304 305 305 305 306 307 307 307 306 305 304 297 289 307 308 296 298 295 299 300 301 306 302 301 298 298 299 296 296 295 299 303 302 297 299 298 293 294 298 300 298 297 298 294 291 292
305 305 305 305 305 305 306 306 306 306 305 301 293 293 305 306 293 295 300 299 301 301 302 299 298 298 300 296 295 298 298 302 303 302 299 300 294 288 289 295 298 296 297 298 298 297 293
306 307 307 306 306 305 306 306 306 306 305 302 295 289 300 303 303 298 297 297 298 304 302 302 298 301 296 295 298 295 297 301 303 304 305 304 294 292 289 291 295 292 294 297 296 292 292
305 306 307 307 306 306 306 306 307 306 305 302 296 293 298 291 295 291 298 297 296 296 302 301 297 297 294 290 293 292 297 298 300 301 298 301 293 293 292 293 293 293 293 293 292 293 290
305 306 306 307 306 306 306 306 307 306 305 300 294 293 297 295 297 293 295 293 295 295 297 295 293 297 296 293 295 291 294 297 297 299 297 297 291 293 289 291 291 289 292 292 292 292 292
305 306 306 306 306 306 307 307 307 307 305 298 300 302 297 295 294 290 292 291 294 298 297 298 297 294 293 293 296 296 298 299 300 298 295 295 293 291 286 289 288 285 289 291 292 294 293
304 305 306 305 305 306 307 307 307 307 306 302 300 298 293 290 293 291 295 295 294 295 296 297 298 295 296 299 299 299 298 298 298 296 299 293 292 290 285 287 279 288 294 294 293 293 295
303 305 305 305 305 306 306 307 307 307 307 303 302 297 295 290 293 293 294 293 296 297 295 294 296 297 299 296 291 290 290 290 292 294 295 296 293 285 284 283 287 290 294 295 294 294 300
303 304 306 305 305 305 306 307 307 307 307 304 301 303 299 292 292 294 294 295 292 292 293 295 299 300 299 293 290 283 284 287 286 288 295 294 294 289 285 282 281 289 297 301 300 290 301
302 304 305 305 305 305 306 306 307 307 307 305 301 302 299 294 296 297 293 294 296 293 291 293 295 295 296 291 288 286 285 291 286 284 286 289 290 286 286 284 288 295 298 301 287 291 301
302 303 304 305 304 305 306 306 306 307 307 305 301 304 299 295 297 300 299 295 297 294 291 293 292 295 292 289 289 289 289 289 290 291 288 287 285 285 287 284 282 300 299 293 298 301 302
302 303 304 305 305 305 306 306 307 307 307 306 300 304 304 297 297 300 300 302 301 302 297 296 294 294 294 291 292 292 289 290 289 286 295 289 293 290 292 291 297 301 300 303 302 302 302

GFSGBSN_sfc_thetae_123.txt.gz
Theta_e
323 322 321 319 318 317 317 317 317 316 317 317 317 317 317 316 316 316 316 316 316 316 316 316 316 315 312 307 306 316 323 326 320 315 310 308 307 307 304 307 309 310 311 312 315 316 314
322 322 320 319 317 317 317 316 316 316 316 316 316 316 316 316 315 316 316 316 315 315 315 315 316 316 310 302 317 317 314 317 320 314 309 309 308 309 307 307 307 313 313 313 315 312 311
322 321 319 318 317 317 317 316 315 315 316 316 316 316 316 316 315 315 315 315 314 314 314 314 316 314 309 308 318 315 316 319 318 314 308 310 312 309 308 305 312 313 307 309 310 311 311
319 319 318 318 317 317 316 316 315 315 315 315 315 315 315 314 314 314 314 314 314 314 314 316 318 313 304 319 321 318 315 315 321 316 312 312 313 310 308 310 309 306 307 300 306 311 314
318 318 318 317 317 317 316 315 314 314 314 314 314 314 313 312 313 313 313 313 313 314 315 317 314 310 305 320 313 316 316 311 318 314 313 313 311 307 307 302 301 305 297 302 304 314 313
317 317 317 317 317 316 316 315 315 314 314 314 313 313 312 311 311 312 312 312 314 313 314 315 313 303 308 309 314 314 316 314 314 311 307 305 305 301 302 300 293 299 300 303 302 310 311
313 314 314 315 316 316 315 315 315 314 314 314 313 313 312 312 311 311 310 309 306 304 307 304 305 305 310 315 315 311 314 314 314 308 299 302 298 296 299 303 303 304 301 301 304 307 306
310 311 312 312 313 314 314 314 314 314 314 314 314 312 311 311 310 310 310 302 306 308 301 308 309 309 312 314 307 309 314 308 305 298 301 299 295 301 303 303 302 302 299 298 301 305 303
309 310 311 311 311 312 311 311 312 313 313 312 312 311 309 310 309 308 307 307 313 312 300 305 309 308 309 313 307 307 310 308 302 299 299 296 299 302 301 300 299 300 299 298 298 302 304
309 309 309 310 309 310 309 309 310 310 310 310 311 311 310 309 305 308 308 314 314 312 292 300 305 308 311 311 305 313 311 307 303 299 300 299 303 300 299 298 300 297 303 301 300 299 295
307 307 307 308 308 308 308 308 308 309 309 309 309 310 310 309 304 302 307 310 314 306 284 302 305 315 311 306 307 308 310 306 301 300 301 298 300 299 298 299 302 299 304 302 302 300 300
307 307 307 307 307 307 307 308 308 308 308 308 309 309 309 306 306 306 311 309 306 290 284 298 306 304 304 305 307 308 304 306 307 302 302 302 306 303 301 303 303 305 303 302 302 300 293
306 306 306 306 307 307 307 306 307 308 308 308 308 308 307 306 301 310 308 303 288 284 299 296 302 304 303 301 304 304 300 298 298 294 295 299 301 304 304 301 304 303 301 293 291 291 291
306 307 307 307 307 307 307 306 306 307 307 308 307 306 306 309 313 311 304 293 282 292 295 302 303 304 299 301 302 301 298 296 301 299 296 293 293 301 304 303 300 301 300 294 287 288 293
306 307 307 308 308 308 307 306 306 306 306 306 305 308 308 310 312 310 297 285 286 294 300 298 302 298 298 301 302 300 298 297 300 302 296 295 296 303 304 305 305 300 297 303 297 299 295
306 307 306 308 308 308 308 307 307 307 306 306 303 305 307 312 309 303 291 287 293 298 299 303 293 301 297 297 299 299 298 299 298 302 306 301 295 301 303 305 305 303 305 297 298 290 289
307 306 307 308 308 308 308 308 307 307 306 305 303 299 310 315 306 295 287 290 294 298 299 301 299 296 300 299 301 298 298 299 301 301 304 303 300 298 302 300 299 300 300 301 301 299 293
306 306 307 308 308 307 307 307 307 307 305 304 300 292 310 309 293 292 292 295 296 298 300 301 302 296 298 301 300 298 297 300 303 302 299 304 301 295 298 304 306 304 302 302 296 295 298
306 306 307 307 308 307 307 307 307 307 306 304 296 299 309 305 289 288 293 297 300 298 297 299 300 300 301 296 295 301 302 305 304 302 301 305 300 293 296 300 304 302 303 304 303 303 298
305 306 307 307 307 307 307 307 307 307 306 305 298 292 301 297 296 289 291 295 298 303 298 302 300 301 297 294 298 300 299 305 305 303 311 308 301 299 293 297 301 299 301 302 301 297 298
305 305 306 307 307 307 307 307 307 307 306 305 300 293 296 292 293 294 294 294 293 297 303 301 299 299 296 292 297 298 303 304 303 307 305 305 297 298 299 301 301 298 300 301 301 302 297
305 305 305 307 307 307 307 307 307 307 306 305 298 293 294 293 297 294 293 291 290 298 296 294 295 296 293 289 297 297 303 303 302 305 304 307 298 300 296 302 302 299 301 302 302 302 302
305 305 305 306 307 307 307 307 308 307 306 302 304 303 294 293 295 290 288 289 294 299 299 300 299 295 290 290 301 305 309 308 308 304 303 303 301 298 292 299 298 294 299 301 302 303 301
305 305 304 306 307 307 307 307 308 308 307 308 305 300 292 289 292 291 292 293 293 298 296 298 300 299 299 306 304 305 305 307 307 306 307 303 301 301 294 297 288 298 301 302 301 300 301
304 304 304 305 307 307 307 308 308 308 308 307 309 302 295 289 293 293 293 293 292 294 295 298 299 303 307 303 296 291 293 297 298 302 305 307 301 298 293 292 294 295 298 297 297 297 302
303 303 304 305 307 307 307 308 308 308 308 308 309 308 300 293 293 295 293 295 290 290 292 298 304 307 307 300 294 287 286 290 289 293 303 302 304 299 296 289 285 297 302 305 305 295 304
304 304 304 304 306 307 307 308 308 309 308 307 307 312 304 297 300 299 293 292 298 295 293 299 301 303 306 298 293 289 289 295 289 290 295 297 297 294 293 293 296 303 303 305 293 298 307
304 304 304 305 306 307 307 308 308 309 308 307 307 312 304 298 300 302 300 297 299 299 294 301 301 301 301 297 295 295 293 294 293 295 295 294 293 293 294 291 288 305 303 298 305 308 309
304 305 305 305 306 307 308 308 308 308 308 307 302 309 309 303 302 308 308 308 306 304 300 304 302 302 303 300 300 300 295 298 296 290 299 292 297 296 299 299 306 309 308 310 309 307 306

GFSGBSN_sfc_thetae_129.txt.gz
Theta_e
320 320 320 320 319 319 319 318 318 317 317 317 316 316 316 316 315 315 316 316 316 315 316 316 315 316 312 303 302 314 329 333 322 314 305 301 297 295 292 297 299 298 300 303 306 307 305
319 319 318 319 318 318 318 318 318 317 316 316 316 316 315 315 315 314 315 315 315 315 315 315 315 315 307 297 313 316 316 318 317 311 306 302 298 300 295 296 298 299 300 301 304 305 309
315 315 315 316 316 316 316 317 317 316 316 316 316 316 315 315 315 314 314 313 313 314 314 315 315 311 304 299 313 315 312 311 313 311 304 306 304 300 299 295 300 300 296 300 302 304 305
311 312 311 313 314 315 314 313 313 314 315 315 315 315 315 315 314 314 314 313 312 312 313 314 315 309 298 311 312 310 310 310 315 312 308 306 306 301 299 299 298 295 295 291 299 303 308
311 311 310 312 312 312 311 311 311 311 311 312 314 314 314 314 315 314 313 313 312 312 312 313 308 305 296 313 307 310 311 310 313 311 311 312 304 299 299 294 291 293 289 291 295 306 306
310 310 310 310 310 310 310 310 310 309 310 310 311 311 311 312 312 312 312 312 311 312 308 309 308 300 303 301 308 312 312 312 310 307 307 306 299 294 294 291 285 288 289 292 293 302 304
309 309 309 309 308 309 309 309 309 308 308 309 309 310 310 311 311 311 308 303 295 298 302 298 298 299 302 307 311 308 313 310 310 304 299 300 293 288 291 293 294 294 292 291 298 304 302
308 308 308 308 308 308 309 309 309 308 308 308 308 309 309 310 310 310 306 297 297 299 294 301 303 303 306 307 302 307 315 305 304 296 300 294 289 295 297 296 295 294 292 291 300 304 302
307 307 307 307 308 309 310 310 309 309 309 308 308 309 309 309 309 304 300 300 308 309 295 298 300 301 302 306 301 303 310 307 300 296 295 293 293 299 296 294 293 293 292 293 295 302 305
307 308 308 309 309 309 309 310 310 310 309 309 308 308 309 309 301 301 296 304 305 309 287 291 296 298 301 303 298 309 309 307 300 295 296 296 299 296 295 293 295 290 297 299 299 297 292
308 308 309 309 309 309 309 309 309 309 309 309 308 309 308 308 300 296 298 302 304 302 273 291 297 306 301 298 301 303 310 307 297 296 297 295 295 294 293 295 297 293 298 296 298 294 294
307 307 308 309 309 309 309 309 309 309 308 308 308 309 308 303 301 302 304 304 302 283 273 287 296 293 295 297 299 305 304 307 304 299 300 299 301 298 296 298 298 299 295 296 296 294 287
307 306 307 308 308 308 309 308 308 309 308 309 309 309 307 306 297 303 303 298 284 275 289 287 289 292 292 294 296 300 299 295 292 290 292 297 296 299 299 294 297 295 290 285 284 285 284
307 307 307 308 308 308 308 308 308 308 308 308 308 307 305 306 307 306 301 290 277 284 285 292 291 292 289 296 295 297 298 292 296 295 292 289 286 295 299 294 292 292 290 284 279 282 286
306 307 307 308 308 308 308 308 308 307 308 307 306 303 306 308 310 306 294 282 280 285 290 288 290 287 289 295 295 295 296 294 296 297 290 289 290 299 299 299 297 292 288 292 288 291 284
306 306 307 308 307 308 308 308 308 308 308 307 302 301 304 310 310 303 290 284 286 292 293 292 285 288 284 286 286 293 296 299 296 299 299 295 289 297 299 300 298 294 296 287 291 283 281
306 306 307 307 307 307 308 308 308 308 307 306 300 295 307 309 307 297 286 286 290 296 296 292 289 286 287 286 288 291 295 298 299 298 299 295 293 293 297 294 291 292 291 292 294 292 286
306 307 307 307 307 307 308 308 308 307 306 303 299 291 308 308 292 290 287 291 295 294 297 296 294 291 288 287 289 294 295 298 301 299 293 296 295 290 293 298 299 295 292 293 288 287 292
306 306 307 307 307 307 308 308 308 307 306 301 294 296 309 305 287 287 292 292 294 294 297 296 294 294 294 286 290 298 299 304 301 297 295 298 292 286 289 294 298 294 296 295 294 296 292
305 306 307 307 307 307 308 308 308 307 306 303 297 292 296 299 298 291 288 291 290 298 300 301 298 298 292 292 295 293 297 304 301 299 311 305 295 291 286 290 293 292 296 295 295 287 292
304 306 307 307 307 307 308 308 308 307 306 305 300 293 295 288 290 291 293 291 288 290 298 302 298 296 295 292 292 293 298 300 300 307 299 300 292 297 298 300 299 294 295 295 293 295 292
304 305 306 307 307 307 308 308 308 307 306 302 294 294 296 292 293 292 291 288 288 290 293 296 294 295 296 293 293 291 296 300 295 298 297 300 293 296 294 299 298 297 297 299 300 301 298
305 305 306 306 307 307 308 308 308 308 306 299 301 302 298 293 292 290 289 288 289 296 299 299 298 296 293 294 297 297 299 298 298 297 296 298 295 292 289 295 296 290 295 299 301 301 300
304 305 306 306 306 307 308 309 309 308 308 303 301 301 295 288 291 291 293 293 292 294 295 297 298 296 299 304 303 302 301 300 300 302 303 295 295 293 288 292 284 295 303 304 302 302 302
304 305 306 306 306 307 308 308 309 309 309 303 304 301 297 290 293 294 294 293 295 296 295 298 302 303 306 299 291 295 296 297 299 301 300 299 295 290 286 286 292 296 300 301 299 298 301
304 304 305 306 306 307 307 308 309 309 308 305 303 308 301 293 292 297 294 295 292 293 294 299 305 307 304 295 291 287 286 291 292 296 302 300 299 291 288 285 283 294 303 307 305 290 301
304 304 305 305 306 306 307 308 309 309 309 306 302 306 301 294 298 297 294 294 298 296 294 297 300 301 304 293 288 288 288 297 290 288 292 292 293 289 289 288 293 301 304 306 291 292 303
304 304 304 305 306 306 306 307 308 309 309 306 302 307 302 296 297 302 302 299 299 298 293 298 298 299 298 290 290 291 290 294 293 295 294 291 290 290 292 287 285 307 305 297 299 302 303
303 304 304 305 306 306 306 307 308 308 308 308 299 305 306 300 298 304 305 308 306 305 300 300 298 298 300 295 295 296 292 294 292 287 300 291 297 291 294 294 301 303 301 304 305 302 303

GFSGBSN_sfc_thetae_132.txt.gz
Theta_e
315 316 315 315 315 316 316 317 316 317 317 317 316 316 317 316 316 316 315 314 314 314 315 315 315 315 311 301 300 313 323 319 322 316 310 300 294 292 288 291 293 293 295 298 301 301 300
312 313 312 312 313 315 315 314 314 314 315 315 315 315 315 315 315 315 315 314 314 313 313 313 314 315 305 294 309 311 312 312 317 313 308 300 297 296 291 291 294 295 297 298 299 299 300
312 312 312 311 312 312 312 311 310 311 312 312 313 313 314 314 314 315 315 314 313 313 312 312 313 311 303 298 309 311 309 307 309 314 304 304 302 297 296 290 295 297 292 295 298 299 300
310 310 310 309 310 309 309 309 309 309 310 310 311 311 311 311 311 313 314 314 314 313 313 313 313 307 297 308 310 307 308 307 309 309 309 307 305 297 294 296 294 292 290 289 295 298 300
310 310 309 310 309 308 308 308 308 308 308 308 309 310 311 309 310 310 311 312 312 312 313 313 305 302 294 310 305 307 308 304 307 309 310 311 301 295 295 290 285 287 286 287 291 297 302
309 309 309 308 308 309 310 309 309 308 308 308 309 309 309 309 309 310 310 310 310 310 307 307 305 297 300 297 306 308 310 307 304 308 305 302 294 290 289 286 282 283 285 287 288 293 300
308 308 309 309 309 309 309 309 309 309 309 308 309 309 308 309 309 309 306 300 292 292 300 296 295 296 298 304 307 306 311 306 304 305 295 298 291 287 289 290 291 290 289 288 291 295 301
308 308 308 309 308 308 309 310 310 309 309 309 308 308 308 309 309 309 303 294 295 298 291 300 300 300 301 303 297 302 309 300 299 295 297 295 291 294 295 293 291 290 288 287 291 301 300
307 307 308 308 308 309 309 310 310 310 310 310 309 309 308 309 309 303 297 297 304 304 292 295 298 298 299 302 297 298 305 304 299 296 295 293 295 299 294 292 290 290 288 288 289 300 301
307 307 307 308 309 309 308 309 310 309 310 309 309 309 309 309 301 296 294 299 301 303 285 288 294 299 300 300 295 306 306 304 301 295 296 295 297 296 293 291 292 287 293 293 293 295 289
307 307 306 308 309 309 309 309 309 309 309 309 309 309 309 308 301 297 298 301 300 299 273 289 295 305 301 295 296 297 308 303 298 297 295 291 296 293 291 292 294 290 295 293 293 292 290
306 306 307 308 309 308 308 308 309 309 309 309 309 309 308 305 302 301 302 302 298 284 273 285 294 292 291 295 295 299 302 306 306 298 297 295 302 297 294 297 296 296 292 291 291 291 283
306 306 307 308 308 308 308 308 309 309 309 309 309 309 307 306 298 304 299 294 283 273 288 286 288 291 290 291 292 293 297 296 294 289 288 293 295 299 298 293 295 293 286 279 279 281 283
306 306 307 307 308 308 308 308 308 308 308 309 307 307 304 305 305 306 299 286 276 283 284 290 291 292 287 292 292 291 296 292 297 293 289 286 285 294 298 292 290 290 287 280 278 279 284
306 307 307 307 307 308 308 308 308 308 308 306 306 299 300 307 310 305 294 281 279 285 289 289 290 286 287 290 289 291 294 294 296 295 289 289 289 300 299 297 294 288 284 289 284 287 285
306 306 306 307 307 308 308 308 308 308 308 306 300 296 299 309 309 302 289 284 286 291 292 292 285 289 284 287 287 290 293 298 296 297 297 293 288 295 298 298 296 290 292 285 286 279 280
305 305 306 307 307 307 308 308 308 308 307 306 294 291 303 307 307 296 286 288 289 294 296 292 289 286 287 286 287 289 293 298 298 297 298 293 289 291 295 292 289 287 286 288 289 287 281
304 306 306 307 307 307 308 308 308 307 306 303 297 288 304 305 293 290 286 291 294 294 298 295 295 291 288 289 287 290 293 298 300 299 293 294 291 286 289 294 297 292 288 290 284 285 289
304 305 306 307 307 307 308 308 308 308 306 301 294 293 304 303 286 287 292 292 294 294 294 294 293 293 294 287 288 292 297 303 301 298 295 292 286 283 285 290 294 289 291 290 293 294 290
304 305 306 307 307 307 307 308 308 308 307 300 297 290 292 295 296 290 288 290 290 297 298 300 297 296 291 289 291 294 298 302 303 300 310 301 291 288 283 288 292 289 291 293 292 287 291
304 304 306 307 307 307 308 308 308 308 306 298 294 289 294 287 290 291 292 290 288 290 296 300 297 294 294 291 292 293 297 299 302 306 300 296 291 294 296 297 297 294 293 295 294 295 291
304 304 305 306 307 307 308 308 308 308 306 296 293 292 295 293 293 291 291 289 289 291 293 295 294 295 295 291 292 291 294 294 293 295 296 298 291 294 292 297 296 295 298 300 300 299 298
304 305 306 306 307 307 308 308 308 308 304 294 299 300 296 292 290 290 289 291 291 295 298 298 297 295 293 295 298 296 298 296 297 295 295 295 293 288 288 294 295 289 294 297 298 301 300
304 305 306 306 307 307 308 308 308 308 307 301 299 298 294 288 291 290 294 294 294 295 293 297 300 296 299 304 302 300 299 300 301 299 299 295 293 288 287 291 282 293 301 303 300 301 302
303 304 305 306 306 307 307 307 308 308 308 302 297 298 295 289 292 293 294 294 296 297 296 297 301 302 303 299 296 295 294 295 298 299 298 298 293 287 286 286 292 296 299 299 296 295 301
303 304 304 305 306 307 307 307 308 308 308 302 297 300 296 292 291 296 294 295 293 293 295 298 303 308 302 297 293 286 286 292 291 295 300 299 297 291 287 284 283 293 302 304 300 290 302
302 302 303 303 304 306 306 306 308 308 308 304 296 298 298 293 296 297 294 293 298 296 293 296 298 301 303 292 289 288 289 296 287 289 292 291 291 288 287 286 290 301 305 305 288 288 301
302 302 302 303 303 304 306 306 308 308 308 305 298 302 300 296 297 300 300 297 299 298 293 296 296 297 296 290 290 291 290 294 292 295 292 291 289 285 290 286 282 303 302 296 297 301 304
302 302 302 303 304 304 305 306 307 308 308 307 293 299 301 298 297 301 302 303 305 303 297 297 296 296 299 293 294 295 293 294 292 287 299 291 295 293 292 293 299 302 301 302 302 300 300

GFSGBSN_sfc_thetae_135.txt.gz
Theta_e
312 312 312 312 311 311 310 310 310 310 310 311 311 312 312 313 314 315 315 315 315 315 314 313 313 314 310 300 298 309 319 315 319 315 309 299 294 291 288 290 291 291 293 297 300 300 298
311 311 310 310 310 309 309 309 308 309 309 309 309 310 310 311 311 312 313 313 314 315 314 313 313 313 304 293 308 310 309 309 313 311 308 300 295 294 290 289 292 292 295 296 297 297 297
311 311 310 310 309 308 308 309 309 309 308 308 308 308 308 309 309 310 311 311 312 313 314 314 314 309 299 295 308 309 308 305 307 310 307 306 300 296 294 289 292 294 289 291 296 295 295
310 310 309 310 308 308 309 309 310 310 309 309 309 309 308 308 308 308 309 310 311 310 311 313 314 307 294 305 306 305 307 305 307 307 305 307 302 296 292 293 292 290 288 284 291 295 296
309 309 309 309 309 309 309 309 309 310 310 309 310 310 309 308 308 308 309 310 309 309 310 311 305 301 293 306 302 306 306 302 304 306 306 310 301 294 293 288 284 285 281 284 289 294 296
309 308 309 309 308 309 309 309 309 309 309 309 309 309 309 308 308 308 309 309 307 307 306 306 304 295 297 295 302 306 307 305 301 303 301 302 294 289 286 285 281 281 283 285 287 292 295
308 308 308 308 308 308 308 309 309 309 309 309 308 309 309 309 308 309 306 299 290 289 295 293 294 293 296 302 305 303 308 303 301 301 294 298 290 285 287 288 289 288 286 286 288 293 295
308 308 307 307 308 308 308 309 309 309 309 308 309 309 309 309 309 309 304 295 293 298 291 298 298 297 299 301 295 299 306 298 296 292 297 292 289 291 291 291 290 288 285 285 289 293 294
307 307 307 307 308 308 308 309 310 309 310 309 309 310 309 309 309 301 296 296 302 302 288 292 296 296 297 300 295 296 301 300 293 293 294 290 293 295 292 289 288 288 285 286 288 297 298
307 307 307 307 309 308 307 309 309 309 310 309 309 309 310 310 303 298 295 298 298 302 284 286 292 297 299 300 294 302 302 301 297 292 296 292 297 295 292 289 290 285 291 291 292 292 287
307 307 306 308 308 308 308 308 309 309 309 309 308 309 309 308 302 298 299 298 302 295 271 288 294 305 299 294 295 297 304 298 294 295 295 291 293 294 291 290 292 288 293 291 291 290 289
306 306 306 308 308 308 308 308 309 309 309 309 308 309 308 305 302 303 302 302 296 283 273 285 294 293 292 294 293 297 298 303 302 297 297 295 300 298 296 296 294 295 291 289 288 286 281
305 305 306 307 308 308 308 308 309 309 309 308 308 308 306 305 299 305 300 293 280 274 287 284 288 292 291 289 291 292 293 294 293 289 289 293 295 297 299 292 293 292 285 277 276 278 279
305 305 307 307 308 308 308 308 308 308 308 308 307 307 302 304 306 307 300 288 275 282 284 290 290 290 287 291 289 291 290 291 298 293 289 286 285 294 296 292 288 288 284 278 275 277 280
304 306 307 307 308 308 308 308 308 308 308 307 306 297 297 303 310 305 293 279 280 284 288 288 289 286 288 290 290 289 289 292 295 295 288 287 287 296 297 295 293 286 283 287 283 285 281
304 305 305 306 307 308 308 308 308 308 307 307 300 293 296 307 308 301 289 283 286 291 292 291 286 288 283 287 288 288 291 296 296 298 296 291 285 295 297 297 295 291 292 284 282 278 277
304 305 305 307 307 307 308 308 308 308 307 306 293 290 299 307 305 296 285 288 290 295 295 292 289 286 288 286 288 288 292 296 299 298 297 293 291 291 296 291 286 286 284 286 286 283 278
304 305 305 306 307 307 308 308 308 308 306 303 298 286 299 303 292 292 286 291 294 293 297 295 293 291 289 290 287 290 292 296 301 300 291 293 290 283 288 293 295 289 288 289 282 283 285
303 304 305 307 307 307 307 308 308 308 306 301 294 292 300 300 286 286 291 292 294 293 293 290 289 292 293 288 286 291 296 302 301 298 293 293 285 281 284 289 290 288 288 290 289 288 285
304 304 306 306 307 307 307 307 308 308 306 298 291 286 292 294 296 290 288 290 290 296 296 298 296 294 290 290 292 292 296 302 303 297 307 300 289 286 280 285 289 286 289 293 290 283 287
304 304 306 307 307 307 307 308 308 307 306 296 292 289 295 287 290 291 292 290 290 291 296 299 295 295 294 291 293 291 297 298 300 308 297 293 288 292 293 296 295 292 290 290 290 290 287
303 304 305 306 307 307 307 308 308 307 306 293 289 291 295 292 293 291 291 290 290 293 294 293 293 296 295 291 292 291 293 293 292 295 295 294 288 292 291 295 296 294 296 296 295 295 296
303 304 305 305 306 307 307 307 308 307 305 293 296 300 295 293 290 289 289 291 292 295 297 297 297 296 293 294 298 298 297 295 295 292 294 293 290 287 284 292 292 287 292 295 298 299 299
303 303 304 304 305 307 307 307 307 307 307 300 295 297 293 288 290 290 292 294 293 295 293 297 299 296 299 303 300 298 300 299 298 297 296 292 289 286 284 288 279 291 299 301 298 299 302
302 302 303 303 304 305 307 306 306 308 308 301 299 296 295 289 291 292 292 294 295 296 295 296 299 303 305 300 296 293 291 290 295 298 297 296 289 285 283 285 289 293 296 297 294 294 303
302 302 302 303 303 304 305 305 305 307 308 303 295 295 294 291 290 294 291 294 292 293 294 296 301 307 302 298 293 287 287 289 289 292 297 296 293 287 284 283 278 291 299 302 299 289 304
302 302 302 303 303 304 304 305 306 307 308 304 298 299 295 293 295 294 290 291 297 296 293 295 297 298 301 293 290 289 289 295 288 288 288 289 287 282 285 286 289 297 303 304 286 289 301
301 301 302 303 303 304 304 304 305 307 308 304 298 299 298 295 295 298 298 293 295 295 291 296 294 295 294 289 291 291 291 293 293 295 292 290 285 283 287 285 282 301 301 293 295 298 302
301 301 302 303 303 304 304 304 305 307 308 307 293 297 300 296 295 300 302 302 300 301 296 295 296 296 299 293 294 295 293 294 292 287 300 290 293 287 289 290 297 299 296 298 298 298 299

GFSGBSN_sfc_thetae_138.txt.gz
Theta_e
311 311 311 311 310 309 309 309 309 310 309 309 309 309 309 309 309 310 310 311 311 312 314 314 314 313 307 298 297 307 318 313 316 314 309 299 294 289 287 290 292 291 293 296 299 300 297
311 311 310 310 309 309 309 309 309 311 311 309 309 308 308 308 308 308 308 310 310 310 311 312 314 314 303 291 305 308 307 307 309 311 308 301 294 293 289 288 291 292 294 294 296 297 297
310 310 309 310 310 309 309 309 309 310 311 311 311 310 309 309 309 308 308 309 310 309 309 310 312 310 301 297 305 306 306 303 306 309 306 307 298 294 292 289 291 291 287 291 295 294 294
309 309 309 309 309 309 309 309 310 310 310 311 311 311 309 309 309 309 308 309 308 308 309 309 311 306 295 305 307 304 304 302 306 306 304 305 304 294 290 291 290 288 286 282 288 293 295
309 310 308 308 308 307 308 308 309 310 309 310 310 310 309 309 309 309 309 309 309 310 310 309 303 300 291 305 300 303 303 299 301 303 304 306 301 293 292 287 283 283 280 282 286 292 293
309 308 308 308 308 308 307 308 309 309 309 309 309 310 310 310 310 310 309 309 308 306 305 304 302 294 295 293 301 303 304 303 300 300 299 299 295 289 285 285 280 280 281 283 285 289 291
308 308 308 308 308 307 308 308 308 309 309 309 309 310 310 310 310 310 307 301 290 288 298 291 293 292 296 299 302 303 306 301 300 297 290 297 288 284 287 287 287 286 285 284 287 291 290
308 308 307 307 307 308 308 309 309 308 309 309 309 310 310 310 310 310 305 295 294 298 289 296 296 296 298 299 293 297 305 297 293 289 295 293 290 291 291 290 289 286 284 284 287 290 290
307 307 306 307 307 307 308 309 309 310 310 310 310 310 309 310 310 304 297 296 299 300 289 290 295 294 295 298 293 294 299 299 292 289 292 290 293 294 290 288 287 285 284 284 286 292 295
306 307 306 307 308 308 308 309 309 310 310 310 309 309 309 309 303 297 295 300 300 299 281 284 290 295 298 298 293 301 301 298 295 288 294 294 297 292 288 287 289 284 289 289 293 289 284
306 306 306 307 308 308 308 309 309 310 309 309 309 310 309 308 301 298 300 298 300 295 270 287 293 304 300 293 294 295 302 297 292 290 295 291 292 290 287 287 290 286 292 289 290 288 288
305 305 305 307 308 308 308 308 309 309 309 309 309 309 309 304 302 304 304 301 297 280 273 284 294 292 292 293 293 295 296 299 298 293 295 295 297 294 292 293 292 293 289 288 286 285 279
305 305 306 307 308 308 308 308 309 309 309 308 308 309 305 305 298 305 301 295 281 274 287 284 287 290 289 288 289 291 291 289 289 286 287 294 293 297 297 290 292 289 286 276 276 276 277
304 305 305 307 307 308 308 308 308 309 308 307 307 306 302 304 306 307 301 287 274 282 283 290 289 290 285 287 289 290 289 287 293 291 289 286 284 294 297 292 286 286 283 277 274 275 279
304 304 305 306 307 308 308 308 308 308 307 306 306 296 296 300 307 305 293 279 280 283 288 288 289 286 287 290 290 289 288 287 292 295 287 286 286 295 297 294 292 286 283 285 281 281 279
304 304 305 307 307 308 308 308 308 308 307 306 300 293 295 304 306 301 289 284 285 290 291 290 284 288 283 286 286 288 289 293 293 296 294 290 285 294 294 294 292 289 290 281 280 276 276
303 304 305 307 307 307 308 308 308 308 306 305 296 289 298 305 304 296 285 287 289 293 293 288 287 287 288 287 288 287 290 294 298 296 296 293 290 290 293 288 285 285 284 283 284 281 278
304 304 306 307 307 307 307 308 308 307 306 302 294 285 298 300 292 293 287 291 294 293 296 289 291 291 289 290 288 288 291 295 301 300 293 294 290 286 288 291 293 287 286 285 280 282 282
304 304 306 307 307 307 307 307 307 307 306 299 293 291 299 299 286 287 292 292 294 294 295 291 287 291 293 289 287 291 293 301 301 299 293 293 286 282 285 288 289 286 288 287 286 287 284
304 304 306 306 307 307 307 307 307 307 306 295 289 284 291 293 296 290 289 291 290 297 296 297 296 293 292 290 292 291 295 300 301 300 306 299 288 283 281 285 286 284 288 289 287 281 283
303 304 305 306 306 307 307 307 307 306 306 294 289 285 294 287 289 291 292 291 290 291 297 297 294 295 294 289 292 293 296 297 300 303 298 292 289 290 290 290 289 287 287 290 287 287 285
303 303 304 304 305 306 307 307 307 306 306 291 290 290 290 291 292 291 292 290 290 292 294 292 292 296 295 291 292 291 293 293 294 296 294 294 288 290 289 294 294 292 292 291 290 292 294
303 303 303 303 304 305 306 306 306 306 305 296 296 295 293 290 290 289 289 290 292 294 296 297 295 295 293 293 296 298 298 295 294 293 292 291 289 285 285 291 291 287 290 292 294 296 295
302 302 302 303 303 304 305 305 306 306 306 300 297 296 291 287 290 289 291 292 292 294 293 297 297 296 299 302 300 300 299 298 298 296 295 291 287 285 283 285 280 291 297 299 296 299 300
302 302 302 302 303 304 304 305 306 306 307 301 300 296 294 288 290 290 290 291 294 295 295 296 298 303 303 300 296 290 291 293 295 296 294 293 289 284 282 281 289 293 296 296 293 295 302
302 302 302 302 303 303 304 304 304 306 307 303 295 297 295 290 288 294 291 291 291 292 294 296 301 305 302 296 291 284 284 288 289 291 295 294 291 288 281 279 278 290 298 302 299 290 303
301 301 302 302 303 303 304 304 305 306 307 304 299 295 296 292 293 294 290 290 293 294 292 294 296 297 300 292 290 288 288 292 286 286 287 287 285 283 285 284 287 297 301 302 287 289 303
301 301 302 302 303 303 304 304 305 305 307 304 299 297 297 294 294 295 296 291 292 293 289 294 294 295 294 289 291 291 290 292 293 294 291 287 283 286 288 280 281 299 300 292 293 297 302
301 301 302 302 303 303 304 304 305 305 307 306 295 296 298 295 293 297 300 301 299 300 294 294 295 296 297 293 294 295 292 293 292 287 296 287 290 287 288 286 293 295 296 298 298 299 298